ECMWFFLT1_sfc_temp_000.txt.gz
Temp
55 55 53 53 53 55 53 56 55 56 57 58 57 57 57 58 58 56 56 56 56 57 59 57 57 58 59 60 60 59 61 61 61 61 62 62 60 61 63 62 61 62 62 62 61 58 55 54 57 60 61 63 64 67 68 68 67 67 65 65 67 66 66
55 56 55 57 55 55 53 54 55 56 55 55 56 56 56 57 59 56 55 55 55 56 59 58 57 58 58 57 58 58 58 58 59 59 60 61 62 61 60 61 61 61 62 63 63 61 58 55 56 57 59 61 62 63 65 66 67 67 67 67 68 68 67
55 54 54 54 53 53 53 53 54 54 55 56 55 55 55 56 55 56 55 54 54 56 59 56 56 57 57 57 57 57 57 58 58 59 60 60 61 61 61 60 60 61 61 61 61 60 59 59 57 57 57 58 58 59 60 63 66 66 67 67 67 69 68
55 55 53 52 52 52 53 53 53 53 54 55 55 56 55 55 55 57 54 54 56 57 56 55 55 55 56 56 57 56 57 56 57 57 59 59 60 60 61 61 61 61 61 59 60 60 59 58 57 58 59 60 59 59 62 64 64 67 67 66 66 67 68
56 56 55 54 54 54 53 53 53 53 53 54 54 54 54 54 55 53 54 53 55 54 54 54 55 55 56 56 56 56 56 56 56 57 57 56 58 58 59 60 61 61 61 60 61 60 60 60 59 58 57 59 60 60 64 64 65 66 67 68 68 68 68
56 56 56 55 54 54 53 53 52 52 52 53 53 53 53 53 54 53 52 52 52 53 53 53 53 54 54 54 55 55 55 55 55 55 55 55 56 57 58 60 60 61 61 62 61 61 62 61 60 57 59 60 57 58 60 62 61 64 68 68 69 70 70
56 56 55 56 54 54 54 54 54 53 52 54 52 53 54 53 53 54 53 51 52 52 53 52 53 53 53 54 54 53 54 54 55 54 54 55 56 57 58 58 59 61 61 61 61 61 60 60 59 58 59 58 59 60 60 60 61 62 62 65 68 70 69
56 55 55 57 55 54 53 55 54 53 52 53 52 54 54 53 53 51 52 52 52 51 51 52 54 53 52 53 54 53 54 54 54 54 53 54 55 55 56 56 58 59 60 61 61 61 61 60 59 60 58 57 56 57 58 60 60 60 64 63 67 68 69
57 56 55 55 55 55 55 55 54 53 54 53 52 54 53 53 52 52 53 51 51 51 52 52 51 51 52 52 51 51 52 55 53 53 53 53 53 54 54 56 56 56 59 60 61 61 62 62 62 60 59 58 56 55 56 56 57 59 62 61 62 64 65
56 55 55 54 55 55 55 54 54 53 53 53 54 54 53 52 52 52 51 51 50 50 50 50 51 50 50 50 50 50 50 51 52 51 52 52 53 53 53 54 55 56 57 59 60 61 62 61 60 60 60 58 59 56 55 55 56 57 60 62 60 61 65
56 56 55 55 55 54 53 53 53 53 53 54 55 55 53 52 52 55 51 50 49 50 50 50 50 49 49 49 48 49 50 50 50 50 51 52 52 53 54 54 54 54 56 57 57 59 60 61 61 60 60 60 60 57 57 55 57 58 55 58 61 61 62
55 55 54 54 54 54 53 53 54 54 52 53 54 53 52 52 51 50 50 49 49 49 48 48 48 48 49 48 49 49 48 49 49 49 50 51 52 52 51 52 53 53 54 55 56 56 57 59 60 61 60 61 60 60 59 57 54 58 60 58 59 62 61
55 55 54 53 54 54 54 54 53 51 52 53 52 52 51 51 50 49 49 49 48 48 47 47 48 48 47 48 47 48 48 49 49 48 49 50 52 51 51 50 51 51 53 53 54 55 54 56 58 58 60 60 60 61 59 57 55 57 60 58 58 60 62
54 55 54 53 54 53 53 54 52 53 51 51 51 50 50 49 49 49 48 50 48 47 47 47 47 47 47 47 46 47 47 48 48 47 48 49 50 51 51 50 50 51 52 51 52 53 53 54 55 56 58 59 59 60 59 58 56 57 61 58 59 59 61
55 54 53 53 54 53 52 52 51 51 52 50 50 50 49 48 48 48 48 47 47 47 47 47 46 47 47 46 46 48 48 47 47 47 47 47 48 50 50 49 50 50 51 51 51 52 53 52 53 53 55 57 58 59 60 58 58 57 57 58 59 59 59
54 53 53 52 53 52 52 51 52 52 50 49 49 49 48 47 48 47 48 46 46 46 46 46 46 46 46 46 45 46 47 46 46 47 46 47 47 48 48 49 49 50 51 50 50 51 52 53 53 54 54 55 56 58 60 60 58 57 57 59 59 59 58
54 53 53 52 52 52 51 51 51 51 50 49 49 49 47 47 47 46 46 46 45 45 45 45 45 45 46 46 46 46 45 46 46 47 47 47 48 48 48 48 49 50 51 50 50 50 51 51 52 54 54 54 54 56 58 59 60 58 58 58 57 59 58
54 53 53 51 52 51 51 51 51 51 49 48 48 47 48 46 46 46 46 45 44 44 45 44 45 45 45 45 45 45 45 45 46 47 48 50 52 51 51 50 51 52 52 51 51 50 50 49 51 52 52 54 54 55 57 58 58 58 57 56 57 58 58
53 53 52 51 51 51 51 51 50 49 49 48 46 46 46 46 47 45 44 44 45 45 45 45 45 45 45 45 45 46 46 47 48 50 51 52 52 52 52 52 52 52 52 51 51 51 51 50 50 50 51 52 54 54 55 55 57 56 56 56 57 57 56
53 52 52 52 51 51 51 50 49 49 48 47 47 46 45 45 46 44 44 44 44 44 45 45 45 44 44 44 44 45 46 47 49 51 52 52 53 53 52 52 52 52 52 52 52 51 51 50 50 49 50 51 53 52 51 52 53 54 55 55 57 57 56
53 52 52 51 51 51 50 48 48 47 47 46 46 45 45 45 45 44 43 44 45 45 44 44 44 44 44 44 44 44 45 46 47 50 52 52 53 53 53 53 53 53 53 53 52 52 52 52 51 50 50 51 51 51 50 50 51 51 52 54 54 55 55
52 52 51 51 50 49 49 47 47 46 46 46 47 45 44 43 43 43 42 42 43 44 44 45 45 45 44 43 43 44 45 46 46 47 48 50 51 52 52 52 53 53 54 53 50 50 50 50 52 51 51 50 50 49 49 50 49 49 50 51 52 54 54
53 51 51 50 50 48 48 47 46 45 45 45 44 44 43 43 43 42 43 42 42 43 43 44 48 46 45 45 43 44 44 45 45 45 46 46 47 48 50 51 52 52 51 50 49 47 47 46 47 50 52 52 50 49 49 48 48 48 49 49 49 50 51
53 52 51 50 47 48 48 47 46 44 44 43 43 45 44 42 41 41 42 42 42 41 42 45 45 43 42 43 45 44 44 44 44 44 44 44 45 46 47 48 48 50 51 50 50 47 45 45 45 45 46 47 49 50 50 48 48 48 48 48 49 50 49
52 52 51 49 49 48 47 46 45 43 43 43 43 43 41 41 40 41 41 41 40 41 42 45 43 42 42 42 44 45 44 44 44 44 44 44 45 45 46 46 47 48 48 49 50 50 49 47 45 45 44 44 43 43 44 47 48 48 48 48 48 48 49
52 51 51 51 50 48 46 45 43 43 43 42 42 40 39 40 42 40 41 40 40 41 41 43 42 42 42 42 42 43 43 43 44 44 44 44 45 45 46 46 46 46 47 49 50 49 49 50 48 46 45 45 45 44 43 43 44 48 50 49 49 49 49
52 52 51 51 50 47 45 44 43 43 42 41 39 39 39 40 39 39 40 40 39 40 41 43 42 42 42 41 41 41 42 42 43 43 44 44 45 45 45 45 45 45 45 46 47 46 47 47 48 49 50 51 51 50 47 44 43 43 45 49 50 50 53
51 51 51 50 48 47 46 42 43 42 41 40 41 39 38 38 40 41 39 38 38 39 42 42 41 41 41 41 41 41 41 42 42 43 44 44 44 45 45 45 45 45 46 46 47 47 47 47 47 47 48 48 50 51 51 52 51 52 50 47 47 51 53
51 51 50 49 48 46 44 45 42 41 41 39 38 37 36 37 38 37 37 36 37 37 40 41 40 41 41 41 41 42 42 42 42 43 43 43 44 45 46 46 46 45 46 46 46 43 44 46 46 46 46 47 47 48 49 50 48 48 51 52 52 51 51
51 51 50 49 47 46 43 41 42 42 40 39 38 38 37 36 37 36 37 38 36 37 38 41 41 41 41 41 41 42 42 43 43 42 42 43 43 45 46 46 46 45 45 45 44 42 42 42 45 45 45 46 47 47 48 50 48 46 45 45 44 44 44
51 50 48 48 46 43 43 44 43 42 42 38 38 37 37 35 34 36 37 36 37 38 39 42 42 41 41 41 41 41 42 42 41 42 42 43 43 44 45 47 48 45 44 44 43 41 41 42 43 44 44 44 45 45 47 49 50 49 47 46 45 45 44
51 49 47 45 45 45 44 44 42 40 39 38 38 37 39 34 34 33 34 37 44 41 39 41 42 41 41 40 41 41 41 40 40 40 41 41 42 43 44 45 45 45 44 44 41 41 40 42 43 43 43 43 43 44 46 48 48 47 47 46 47 48 47
49 48 47 46 45 45 43 42 40 39 38 38 39 36 37 34 33 33 34 37 38 38 38 39 41 40 41 41 41 41 40 38 38 39 40 41 41 42 43 43 43 41 40 40 39 39 39 39 41 43 44 42 42 42 47 48 48 48 47 46 46 46 47
49 48 48 47 46 44 42 41 39 38 39 37 36 35 34 34 33 33 34 35 35 36 39 39 40 40 40 40 40 39 39 38 38 39 39 39 39 39 40 41 42 42 40 40 39 39 39 39 40 42 42 42 44 45 46 47 47 44 47 46 46 45 45
50 48 46 46 46 45 43 42 42 40 38 37 36 35 33 34 33 32 33 34 35 36 39 41 39 40 40 40 39 39 39 39 40 39 37 38 38 38 39 40 41 41 40 39 39 39 39 39 39 41 42 41 41 41 44 46 47 47 46 46 44 43 43
48 49 47 46 46 45 41 41 40 38 37 36 34 32 31 31 33 31 32 33 34 35 36 38 40 39 39 39 39 38 38 38 38 39 37 36 37 37 39 40 40 40 39 39 38 38 38 38 39 40 39 39 39 39 41 43 44 45 44 44 44 42 42
49 48 48 46 45 41 39 39 38 39 36 36 34 32 30 31 30 31 32 32 33 33 35 34 37 38 38 38 38 38 38 37 37 38 38 36 37 38 38 38 39 38 38 38 38 38 38 38 38 38 38 38 39 39 41 42 42 43 41 41 41 41 42

ECMWFFLT1_sfc_temp_003.txt.gz
Temp
55 55 51 51 50 52 51 53 53 53 52 54 54 53 54 55 55 54 54 54 55 57 57 55 55 55 57 58 58 58 58 59 60 60 60 61 60 60 60 60 61 61 62 61 60 58 56 55 58 60 60 60 61 64 66 67 66 65 64 63 65 65 65
53 53 52 54 52 52 51 52 53 52 52 53 53 54 53 55 57 54 53 54 54 55 56 55 55 56 55 56 56 57 56 57 58 60 60 59 60 60 60 61 61 61 61 60 60 60 57 56 57 58 59 59 59 60 62 64 65 65 65 65 65 66 65
53 51 51 51 51 50 52 51 52 53 52 53 52 53 53 53 53 54 53 53 53 54 55 53 53 54 54 55 55 55 56 56 56 57 58 58 59 59 60 60 60 60 60 60 60 60 60 59 56 57 57 57 57 58 58 60 62 64 65 65 64 65 65
52 52 51 50 50 50 51 51 51 52 51 53 52 52 52 52 53 54 52 52 53 55 54 52 52 53 53 53 54 54 55 54 55 55 55 56 56 56 57 58 58 58 58 57 57 58 58 57 57 58 59 60 59 59 63 63 63 65 65 65 64 64 65
54 54 53 53 51 52 50 51 50 51 52 52 51 51 51 51 52 50 51 51 52 51 51 52 52 52 52 52 52 54 53 53 54 54 53 53 54 54 55 56 57 58 57 58 59 60 59 59 58 58 58 59 59 60 63 62 64 65 65 66 66 66 66
55 55 54 53 52 52 51 50 49 51 50 53 51 51 52 51 51 51 51 51 51 52 51 52 51 51 51 51 52 51 51 52 52 52 52 52 52 53 53 54 55 56 57 59 60 60 60 60 59 57 59 61 57 58 60 60 60 62 65 65 66 67 67
55 55 54 54 53 52 52 52 52 51 51 52 51 50 51 50 50 52 51 49 49 50 51 50 50 51 51 52 51 50 51 51 51 51 51 51 52 52 52 52 53 54 55 57 58 59 59 59 58 58 57 58 59 58 60 58 61 61 61 63 66 67 67
56 55 55 55 54 53 51 52 52 50 51 52 51 51 51 50 50 49 49 49 49 49 49 49 51 49 49 51 51 50 51 51 50 51 50 51 52 51 51 51 52 53 53 54 56 56 58 58 58 58 57 55 56 58 58 59 58 59 62 63 64 65 66
57 56 55 54 53 54 53 53 52 51 52 51 50 50 50 50 50 50 50 48 48 49 49 49 48 49 49 49 48 48 48 52 50 49 49 49 50 50 50 51 51 51 53 54 54 54 55 56 57 58 58 57 55 53 56 56 56 58 62 60 60 63 63
55 55 55 53 53 53 53 53 52 52 50 50 51 50 50 49 48 49 49 48 48 48 47 49 48 48 48 48 48 47 47 48 49 48 48 48 48 49 49 50 49 51 51 52 53 53 53 54 55 56 58 57 57 54 54 53 54 56 59 61 59 59 63
56 56 55 54 53 53 51 52 50 51 51 51 52 53 50 48 49 52 48 47 46 47 47 47 47 46 46 47 46 48 48 48 48 48 49 49 48 49 49 49 49 49 50 50 51 52 52 53 53 54 54 56 57 55 56 54 54 58 57 57 59 59 59
55 55 55 55 53 53 52 52 52 52 50 50 53 51 50 49 48 47 47 46 47 47 46 47 46 46 47 47 48 48 47 47 47 47 47 49 49 49 47 47 48 48 49 49 49 50 50 52 52 53 53 54 55 55 55 55 54 59 61 58 58 60 60
55 55 54 54 53 53 53 52 51 50 51 52 50 51 50 49 48 47 46 46 46 46 46 46 45 45 45 46 45 47 47 46 47 47 47 47 50 48 46 47 47 48 48 48 49 49 49 50 50 51 51 52 53 54 55 55 53 54 61 60 60 59 60
54 54 53 53 54 53 53 53 52 52 51 50 50 49 49 48 47 47 46 47 46 46 46 45 44 44 44 45 45 44 45 46 46 46 47 47 47 47 48 47 47 47 47 47 48 49 48 49 49 50 50 50 51 52 53 53 52 53 59 61 59 59 60
54 53 52 52 53 52 52 52 51 51 51 50 50 49 48 47 46 46 46 46 45 45 45 45 44 44 46 44 43 46 46 44 45 45 45 46 46 48 47 46 47 47 47 47 47 48 48 47 48 48 49 49 49 50 53 52 52 52 53 58 57 59 58
53 52 52 51 51 51 51 50 51 51 50 49 48 49 48 47 47 45 45 43 43 43 44 45 44 44 44 44 44 43 45 43 44 45 45 45 46 46 46 46 46 47 48 47 47 48 48 48 48 48 48 49 48 49 51 52 52 51 52 54 57 57 59
52 52 52 51 51 50 50 49 50 50 50 48 48 46 47 46 46 45 45 43 43 43 44 45 44 43 45 44 43 44 43 44 44 45 45 45 45 45 46 47 48 48 48 48 48 48 48 48 48 48 48 48 48 48 50 51 53 52 53 52 55 57 58
52 51 51 50 50 49 49 49 49 49 48 47 46 47 46 45 45 45 45 44 43 43 43 42 43 43 42 43 43 43 43 43 44 44 45 45 48 48 50 50 50 51 50 49 49 49 50 48 49 48 48 49 48 49 49 49 51 53 52 51 53 55 57
50 50 51 51 50 50 49 49 49 48 48 46 44 44 45 44 46 44 44 43 43 42 41 41 42 42 42 42 42 42 42 43 44 44 45 46 47 48 50 51 52 51 51 50 50 50 50 50 50 49 48 48 49 48 47 48 49 50 50 51 51 51 54
52 52 52 51 51 50 49 49 49 48 47 46 46 45 44 45 44 45 43 43 43 42 42 41 41 41 41 41 41 42 42 42 43 44 44 46 46 47 49 50 50 51 51 51 50 50 51 51 51 50 51 50 50 48 46 46 47 47 48 49 50 50 50
53 53 52 52 52 51 50 48 47 47 47 46 45 45 45 44 43 43 43 42 42 42 41 41 40 40 41 41 41 41 42 43 43 43 44 45 45 46 47 47 48 49 50 50 50 51 51 50 50 50 51 51 51 49 48 46 45 45 46 47 48 48 49
53 53 52 51 51 51 50 49 47 47 46 46 46 45 44 43 43 42 41 42 41 42 41 42 42 43 42 42 40 42 42 43 43 43 43 43 44 45 45 46 46 47 49 51 49 48 48 47 48 47 48 48 48 47 47 47 46 45 44 45 46 48 47
52 52 52 52 51 50 49 48 47 46 46 46 46 44 42 42 43 42 41 39 39 41 41 42 46 45 45 43 42 43 43 42 43 42 43 43 43 43 44 44 46 49 49 48 47 46 45 45 46 47 48 48 47 46 46 45 45 45 44 43 44 44 44
51 51 51 51 50 51 49 48 47 46 46 45 44 44 43 41 40 41 42 40 39 40 41 43 44 41 41 42 42 41 42 42 42 42 42 42 42 43 43 44 44 47 48 47 47 45 44 44 44 43 44 44 45 46 46 45 45 45 45 44 45 44 44
52 51 51 50 50 51 49 48 47 46 45 44 43 42 41 41 41 40 40 38 37 40 41 44 41 41 41 41 42 42 41 41 42 41 42 42 42 42 43 43 44 45 45 46 46 46 46 45 43 43 43 43 43 43 43 45 46 46 45 45 45 45 45
51 51 51 51 50 49 48 48 46 45 45 44 42 42 41 41 40 39 39 38 38 39 40 42 41 41 41 41 41 41 40 40 40 41 41 42 42 42 42 43 43 44 45 47 48 46 45 45 45 44 43 44 43 43 42 41 42 45 47 46 45 46 47
51 51 50 50 49 48 47 47 46 45 43 42 42 42 40 40 39 39 38 38 37 37 38 42 41 41 41 40 40 40 39 39 40 40 41 41 42 42 42 42 42 43 43 44 44 44 44 43 43 44 44 44 44 45 44 43 42 41 43 46 47 46 48
52 51 50 50 49 48 47 45 44 43 43 43 42 42 41 40 39 39 38 35 35 36 38 42 40 40 40 40 40 40 39 39 39 40 40 41 41 41 42 42 42 42 43 43 43 43 43 42 43 43 43 43 44 44 45 45 46 47 48 48 47 47 48
48 48 48 48 48 46 45 44 43 42 41 41 41 40 38 39 39 37 36 35 35 35 35 40 39 40 40 40 40 40 38 38 38 39 39 40 41 41 42 42 42 42 42 42 43 42 43 44 43 42 42 42 42 43 44 46 46 46 47 48 49 49 50
49 48 48 48 47 44 43 41 41 42 42 41 40 39 40 39 39 38 36 35 33 33 34 39 39 40 40 40 39 38 37 38 38 38 38 39 40 41 41 42 42 42 42 42 43 41 41 41 42 41 41 41 41 42 42 45 45 44 43 43 43 43 43
49 48 47 46 44 43 42 42 41 43 42 39 39 39 39 38 37 37 37 36 35 34 34 38 40 40 40 40 40 37 37 37 37 37 37 38 39 39 40 44 44 43 42 42 42 41 40 40 40 40 40 40 39 39 40 43 44 45 45 44 43 43 43
50 49 48 47 44 43 43 44 43 42 41 40 40 38 39 38 36 35 36 36 42 39 34 37 40 39 39 39 40 38 37 36 36 36 36 36 37 38 39 41 42 42 42 42 41 40 40 40 40 40 41 40 39 38 39 41 42 42 44 45 46 46 45
48 48 47 45 44 44 44 44 42 41 38 39 38 36 37 37 37 37 36 36 37 36 34 33 36 39 40 40 40 39 37 35 35 35 36 37 37 38 39 39 40 39 39 39 39 39 39 39 40 41 41 39 39 38 42 43 43 43 43 44 45 46 46
49 48 47 45 43 43 44 44 41 40 38 36 35 34 35 34 35 35 34 33 32 32 35 34 36 39 39 40 39 39 37 36 36 36 36 37 37 37 37 38 40 40 39 39 39 39 39 39 39 41 40 39 40 41 42 41 42 42 42 43 43 45 45
48 46 45 45 44 44 43 43 42 40 38 36 35 33 32 34 34 33 33 31 31 32 35 40 35 38 39 39 39 39 38 37 38 37 36 37 37 37 37 38 38 39 39 38 38 38 38 38 38 40 40 39 39 38 40 41 41 42 42 42 42 43 43
46 46 46 47 46 46 42 41 39 38 36 34 34 32 32 32 32 32 32 32 31 31 32 34 39 37 38 39 39 39 38 38 37 39 37 36 36 37 38 38 39 39 38 37 37 37 37 37 38 38 38 38 38 37 38 39 39 39 39 40 40 40 42
46 45 45 46 47 45 42 39 37 37 34 35 33 32 33 32 31 31 33 33 34 32 32 32 35 37 38 38 38 38 37 37 37 37 37 36 37 37 37 37 38 37 37 37 37 37 37 37 37 37 37 37 37 37 38 38 37 38 37 37 37 39 40

ECMWFFLT1_sfc_temp_006.txt.gz
Temp
54 55 50 49 49 51 51 52 52 52 53 54 55 55 55 56 55 54 55 55 56 56 57 56 55 56 56 57 58 57 57 58 59 59 59 59 59 59 61 61 60 61 62 62 61 58 56 55 59 65 63 62 63 65 66 67 67 67 65 65 67 67 67
53 52 52 54 51 51 51 50 52 52 52 53 54 55 54 56 56 54 54 54 54 55 56 55 55 55 55 55 55 55 55 56 57 58 57 57 58 57 59 59 61 61 61 61 61 61 57 56 57 59 61 63 64 64 63 64 66 66 66 66 67 68 68
52 50 51 51 50 50 52 50 51 52 53 53 53 53 54 54 54 54 53 54 54 55 55 53 54 54 54 54 54 54 55 55 55 55 55 55 56 56 57 58 57 57 58 59 60 59 60 59 56 57 59 59 58 62 64 66 66 66 66 66 66 68 68
50 51 51 50 49 50 52 50 51 51 51 52 53 52 53 53 54 55 53 53 54 55 54 53 53 53 53 53 53 54 54 53 53 54 54 54 55 54 55 55 55 56 56 56 56 57 58 57 57 57 59 61 61 60 64 65 66 67 67 66 65 66 67
52 53 53 52 51 52 51 51 49 50 51 51 51 51 52 52 53 52 53 52 53 52 52 53 53 53 53 53 53 53 53 53 53 53 52 52 53 53 53 54 54 56 56 55 57 57 57 57 57 56 57 60 61 62 65 63 66 66 67 68 68 68 67
53 54 54 53 52 52 50 50 50 52 50 52 51 52 51 51 52 50 51 52 52 53 52 52 52 52 52 52 52 52 52 51 52 52 51 51 51 52 52 53 54 54 54 55 56 56 56 58 58 55 59 60 57 58 61 62 62 65 68 68 69 69 69
53 53 53 54 52 53 52 52 52 53 52 53 51 52 52 51 52 53 52 51 51 52 52 51 51 52 52 52 51 51 51 51 51 51 51 51 51 51 52 51 52 53 53 54 54 54 53 54 54 54 54 57 58 58 61 60 61 63 63 65 68 69 69
54 54 53 54 53 52 51 52 52 51 53 52 53 52 51 51 51 50 51 51 50 50 51 51 51 51 51 52 52 51 51 51 50 51 50 51 51 51 51 51 52 52 52 53 53 53 54 53 53 53 53 51 54 58 58 60 60 60 63 65 68 69 69
55 54 54 54 52 53 52 53 52 51 52 51 51 52 51 51 50 51 51 50 50 50 50 50 50 51 50 50 50 50 50 52 50 50 50 50 50 50 51 51 51 50 52 53 53 53 53 53 53 54 53 53 50 50 54 55 57 59 62 62 62 65 67
54 53 54 52 52 52 52 52 53 52 51 51 51 52 51 50 50 50 50 49 49 50 50 50 50 49 49 50 50 49 49 49 51 50 50 50 50 50 50 50 51 51 51 52 52 52 53 53 53 54 54 52 52 50 50 51 55 57 61 62 62 62 65
55 55 54 53 52 52 51 51 50 50 51 52 52 52 51 50 50 53 50 49 48 49 50 49 49 49 49 49 49 49 49 49 50 50 50 50 50 51 51 50 50 50 51 51 51 51 52 52 52 52 53 53 54 50 50 49 51 56 57 60 62 62 65
54 55 54 53 52 52 52 51 51 52 50 50 52 51 50 50 50 49 50 49 49 49 47 47 48 48 48 48 49 48 48 48 48 49 49 50 50 51 49 49 49 50 50 50 51 51 51 52 52 52 52 52 52 53 51 50 48 55 61 58 59 62 62
54 54 54 53 52 52 53 52 51 50 50 51 51 51 50 50 50 49 48 49 48 48 47 46 47 47 47 47 47 48 47 47 48 48 48 48 49 49 48 48 49 49 49 50 50 50 50 51 51 51 51 51 51 52 52 51 49 50 57 57 59 60 63
53 53 53 53 53 53 52 53 52 52 51 51 50 50 50 50 50 49 48 49 48 48 47 46 47 47 48 47 46 47 47 47 47 47 48 48 48 48 49 48 48 49 49 48 49 50 50 50 51 50 51 51 50 51 51 50 49 50 54 58 58 59 60
53 52 52 52 53 52 51 52 51 51 51 50 51 51 50 50 49 48 48 47 46 46 47 47 46 48 47 46 46 47 46 46 46 46 47 47 47 48 48 47 47 48 49 49 49 49 50 50 50 50 50 50 50 50 52 49 48 48 48 54 54 58 57
53 52 52 52 52 52 51 51 51 51 51 49 50 50 50 49 48 48 47 46 46 46 47 46 46 47 46 46 46 46 46 46 46 46 46 46 46 47 47 47 47 48 49 48 48 49 49 49 50 50 49 50 50 50 51 51 49 47 48 50 53 53 56
52 52 52 52 52 51 51 51 51 51 51 49 49 49 49 48 48 47 47 46 46 46 46 46 45 46 47 46 46 46 45 45 45 45 45 46 46 46 47 46 47 48 49 48 49 49 49 50 49 50 49 50 49 49 50 50 51 49 48 47 51 52 54
53 53 53 52 52 51 51 50 51 51 49 49 48 48 48 48 48 47 47 46 46 45 46 46 46 45 44 45 45 45 44 45 45 45 45 45 47 47 47 47 48 49 50 49 50 49 50 49 51 51 51 51 50 50 50 50 50 50 48 47 49 51 52
52 53 53 52 52 51 51 51 51 50 51 49 48 48 48 48 49 47 46 46 46 46 45 44 45 45 44 44 44 44 44 45 45 45 45 46 46 47 47 47 48 48 48 48 48 49 50 50 51 51 51 51 52 52 51 50 50 49 49 48 48 48 50
54 54 54 53 52 51 51 51 51 50 50 50 49 48 48 48 47 47 46 46 46 46 45 44 44 44 43 42 42 44 44 44 44 44 45 46 46 46 47 47 47 47 47 48 47 48 48 48 49 49 49 49 51 50 49 50 50 49 48 47 48 48 48
54 53 52 52 51 51 51 51 51 50 50 49 49 49 48 47 46 47 46 46 45 45 44 43 42 42 42 42 43 44 43 44 44 44 44 45 45 46 46 46 47 47 47 48 48 48 48 47 48 47 48 48 48 48 47 48 47 47 47 47 46 46 47
51 52 52 51 51 50 50 50 50 49 50 50 49 49 48 47 46 45 44 44 44 44 44 43 42 43 44 44 43 43 43 43 43 43 43 44 44 45 45 46 46 47 48 49 48 47 48 47 47 46 47 47 47 47 46 47 47 46 46 46 45 47 46
52 52 51 51 51 51 51 50 50 49 49 49 48 47 46 47 47 45 43 43 44 44 43 43 46 43 44 45 43 42 42 42 42 42 42 42 43 44 44 45 46 47 47 47 46 45 44 44 45 47 48 47 47 46 45 45 45 45 45 45 45 45 44
51 51 51 51 50 51 50 49 49 48 48 47 46 46 46 45 44 44 44 44 42 42 42 45 43 41 41 41 43 42 42 42 42 41 41 41 41 43 44 45 45 46 46 46 47 44 43 43 43 43 43 45 46 46 45 44 44 45 44 44 45 45 44
50 50 50 50 50 50 49 48 47 47 46 45 45 45 44 44 43 44 43 43 42 43 43 45 41 41 41 40 42 43 41 41 41 41 41 41 42 42 42 43 44 45 45 46 46 46 45 44 42 42 42 42 42 42 43 45 45 44 44 43 43 44 45
50 50 51 52 51 50 49 49 48 46 45 45 45 45 44 44 43 43 43 42 42 43 43 42 41 41 40 40 40 41 41 40 40 41 40 41 41 41 42 42 42 43 44 45 47 47 46 46 44 43 43 43 42 42 40 40 41 45 46 44 43 43 44
49 50 51 50 49 48 48 48 46 45 44 44 44 44 44 43 42 42 42 42 42 41 41 42 40 40 40 39 39 39 41 40 40 40 40 40 41 41 41 41 41 41 43 44 44 44 45 45 45 45 45 45 46 45 42 41 40 40 42 44 44 43 45
49 49 49 48 47 46 46 44 45 44 43 43 43 43 43 42 42 42 42 41 41 40 41 42 40 40 39 39 39 39 39 39 39 39 40 40 40 40 41 41 41 41 41 42 43 44 44 44 44 43 44 44 45 45 46 46 46 46 46 46 46 46 46
48 48 48 48 47 46 45 45 44 44 43 42 43 43 42 43 42 41 40 40 40 39 39 40 39 39 39 38 39 41 39 38 38 39 39 40 40 41 41 41 40 40 41 41 42 40 41 43 43 43 42 43 44 45 45 45 45 45 47 47 47 47 48
48 48 48 48 47 46 45 44 42 44 43 42 42 42 42 43 42 41 40 39 39 38 39 40 38 39 38 38 39 39 38 38 38 37 38 39 39 40 40 41 41 41 41 41 41 39 39 40 41 41 41 41 42 43 43 46 44 42 41 42 42 42 42
48 48 49 48 46 45 44 44 43 44 43 42 42 42 42 40 40 40 40 39 39 39 39 39 39 38 38 38 39 38 38 37 36 37 37 38 39 39 39 41 42 42 41 41 40 38 38 40 39 39 39 39 40 40 42 44 45 45 43 42 41 41 41
49 49 48 46 45 44 44 43 43 43 42 42 41 40 40 39 38 38 39 39 41 40 38 39 39 38 38 38 40 39 38 37 36 36 37 37 38 38 39 40 41 42 41 41 39 38 38 39 39 39 38 38 37 38 40 42 42 42 43 44 44 45 44
49 49 47 45 45 44 44 43 42 42 41 41 40 38 39 38 38 38 38 38 40 40 38 38 39 38 39 39 39 40 38 36 36 37 37 38 38 38 39 39 41 39 38 38 38 37 37 38 39 39 39 37 36 36 41 41 42 42 42 42 43 44 44
49 49 47 45 44 44 43 43 42 41 40 38 38 37 38 37 38 38 37 37 37 37 38 38 38 38 38 39 39 39 38 37 37 37 37 37 37 37 38 39 40 40 38 38 38 38 38 38 38 39 39 38 38 39 40 39 40 40 41 41 41 41 42
50 48 47 46 45 45 44 43 43 42 40 39 39 38 37 37 37 37 37 36 36 36 37 39 38 38 38 38 38 39 38 38 38 38 37 37 37 37 37 38 39 39 38 38 37 37 37 37 37 38 38 37 37 37 38 39 39 39 39 39 39 39 40
47 47 45 46 45 43 43 44 42 41 40 39 38 37 36 36 36 37 36 36 35 35 35 36 38 38 38 38 38 38 38 38 37 38 36 36 36 37 38 38 39 38 37 37 37 37 37 37 37 37 37 36 36 36 37 38 38 37 37 37 37 37 38
46 45 45 44 43 42 41 40 40 40 40 39 37 35 34 35 35 36 37 37 36 36 35 34 36 37 37 37 37 37 37 37 37 38 38 37 37 37 37 38 38 37 37 36 36 36 36 36 37 36 36 36 36 36 37 37 36 36 36 35 35 35 36

ECMWFFLT1_sfc_temp_009.txt.gz
Temp
66 66 65 65 66 67 67 66 67 67 68 69 68 68 68 68 68 67 67 67 67 68 68 67 66 67 67 67 66 66 67 67 66 64 63 65 64 63 64 64 65 65 64 64 64 62 60 60 64 72 73 70 71 72 74 75 75 75 74 74 77 78 77
65 65 66 66 66 66 65 66 66 67 67 67 68 67 67 68 67 67 67 67 66 66 68 67 66 66 65 64 64 64 64 64 65 64 64 63 64 62 64 64 65 66 65 65 65 64 61 60 62 65 68 71 70 71 72 73 75 75 75 76 77 78 77
65 64 65 65 65 65 65 65 66 66 67 66 66 67 67 68 67 67 66 65 65 65 66 66 65 64 64 63 63 63 63 62 63 62 62 63 64 63 63 63 63 64 66 65 64 64 64 62 58 61 64 65 64 67 70 70 72 73 75 75 75 78 78
64 64 63 63 64 64 65 65 66 66 67 66 66 65 65 66 65 66 65 65 65 65 65 65 64 65 64 63 63 63 62 62 62 62 61 61 62 62 62 63 62 61 60 60 59 61 61 62 63 64 65 69 67 63 68 71 71 74 75 74 74 75 76
65 64 64 63 64 64 65 64 65 65 65 65 65 65 64 65 65 64 64 64 64 64 64 64 64 64 64 64 63 63 62 62 62 61 60 60 60 60 60 61 61 62 62 60 60 59 59 60 61 62 65 68 68 69 72 71 74 74 76 77 78 78 77
66 66 66 65 65 65 65 65 64 65 65 64 65 65 64 64 65 64 65 64 64 64 64 64 63 64 63 63 62 61 61 61 61 60 60 58 59 59 59 60 62 62 62 62 62 61 61 61 62 60 66 66 61 65 70 71 71 76 77 78 79 80 80
65 65 66 66 65 66 66 65 65 66 65 65 65 65 65 65 65 65 65 64 64 64 64 63 63 64 64 64 62 61 61 61 61 60 60 59 59 59 59 59 59 60 61 61 61 62 60 60 60 59 59 62 63 64 69 71 73 71 75 77 79 80 79
66 66 67 67 66 65 65 66 66 66 66 66 66 66 65 65 64 64 64 63 63 63 63 63 63 63 63 63 63 61 61 61 61 60 60 59 59 59 58 59 59 60 60 61 60 60 61 61 60 59 58 56 59 63 64 70 71 69 70 75 77 77 79
66 67 66 66 66 65 65 66 66 66 67 67 67 65 64 65 64 64 64 64 64 63 64 64 64 64 63 62 62 61 60 62 60 60 60 60 58 58 58 59 59 59 59 60 61 60 61 61 61 60 59 59 57 56 61 61 65 68 73 71 75 76 77
65 65 65 64 64 64 65 65 66 66 66 66 65 65 64 65 65 64 64 63 63 63 63 63 63 63 63 62 61 60 60 61 61 60 60 59 59 59 59 57 59 59 59 59 59 60 60 60 60 61 61 59 58 55 55 58 61 63 69 71 68 73 76
65 65 65 65 65 64 64 64 65 64 64 65 65 64 64 63 63 64 64 63 63 63 63 63 63 63 62 62 61 61 61 61 60 60 60 60 59 59 59 59 59 59 59 58 58 58 59 59 59 60 61 61 59 55 56 54 57 62 63 67 69 70 74
65 65 65 65 64 64 64 64 64 65 64 64 64 63 63 63 63 63 64 63 63 62 63 62 62 63 63 61 61 60 60 60 60 59 59 59 59 59 58 57 58 58 58 58 58 58 58 59 59 60 60 60 60 58 56 56 52 60 65 63 67 71 70
66 65 65 64 64 64 65 64 64 63 63 64 64 64 64 64 63 63 63 63 62 62 62 62 62 62 62 61 61 61 60 60 59 58 59 59 59 58 57 57 57 58 58 59 59 58 58 58 58 59 59 59 60 59 58 56 54 55 62 63 64 67 69
64 65 65 64 64 64 65 64 65 65 65 64 64 64 64 65 65 64 64 64 63 62 61 61 61 62 61 60 60 60 60 60 59 59 58 57 58 57 58 57 57 57 58 57 58 58 59 58 58 58 59 59 58 59 58 56 54 55 60 63 63 64 66
64 65 64 64 63 64 64 64 64 64 63 64 64 65 66 64 65 64 64 64 63 63 62 62 61 61 61 59 59 59 58 59 58 57 57 57 57 57 56 57 57 57 58 57 57 59 60 59 60 59 59 58 58 58 58 55 55 54 54 60 61 65 64
65 64 63 64 63 64 64 64 64 63 64 64 64 65 65 64 64 65 64 63 63 62 62 62 61 61 60 60 59 58 58 58 57 56 56 56 57 57 56 56 56 57 57 56 57 58 58 58 60 59 57 58 57 57 58 57 54 53 53 55 59 59 61
64 63 63 64 63 64 64 64 64 64 65 64 63 64 65 65 64 64 63 63 62 62 61 61 61 62 61 61 60 58 58 57 57 56 56 57 57 57 56 55 56 56 56 55 57 57 58 58 58 58 57 58 57 56 56 55 55 54 53 52 56 58 60
64 63 63 64 63 64 64 64 63 64 64 64 64 63 63 64 64 64 62 62 62 62 61 61 61 61 60 59 59 58 57 57 56 57 56 56 55 56 56 55 56 56 56 55 55 56 57 56 58 58 58 59 58 58 57 56 56 55 53 52 53 57 58
64 64 64 63 63 64 63 63 63 63 65 64 63 63 63 63 64 64 64 63 63 62 62 62 62 61 60 58 58 57 57 56 56 56 56 56 56 56 55 56 56 56 56 54 54 55 55 55 56 56 56 57 59 58 56 56 56 55 54 53 54 54 57
65 64 64 64 64 64 63 63 63 63 63 62 61 62 63 63 63 64 64 63 62 62 61 61 60 59 58 58 57 57 56 56 56 55 55 56 56 56 56 55 55 55 55 55 54 54 55 54 54 54 55 55 56 56 55 56 56 55 55 54 55 55 55
65 65 64 64 64 63 63 62 62 62 59 56 57 60 62 63 63 63 62 63 62 61 60 59 59 59 58 57 57 56 56 55 55 55 54 55 55 55 55 55 55 55 55 55 55 55 54 54 55 54 56 56 56 55 54 54 54 54 54 54 54 54 56
64 65 64 63 62 62 61 62 60 59 59 59 58 59 59 59 59 60 61 60 60 60 59 58 58 58 57 57 57 56 55 55 54 53 54 54 54 54 54 54 54 54 54 50 47 47 48 48 51 52 53 55 54 54 54 54 54 54 54 53 53 54 54
63 64 63 62 62 62 62 61 60 59 59 60 59 57 55 56 58 58 59 59 59 57 57 56 51 46 50 57 56 55 54 54 54 53 53 52 53 53 53 54 53 49 47 46 45 44 43 43 45 49 52 53 53 53 53 53 54 54 53 52 52 52 52
63 62 62 62 62 62 62 61 60 60 59 58 57 56 56 57 57 58 58 57 56 56 55 54 42 41 41 44 53 54 54 54 53 53 52 52 52 52 53 54 53 51 50 48 50 44 42 42 42 42 43 44 46 50 51 50 52 53 52 52 52 52 51
62 62 62 62 62 63 61 60 59 58 57 56 56 56 55 56 56 56 56 57 55 55 55 46 40 41 40 41 46 54 54 53 52 52 52 52 52 52 52 51 52 51 51 51 50 51 48 44 42 41 41 41 41 41 43 48 50 50 51 51 51 52 52
61 62 62 61 62 61 60 59 58 56 55 54 53 53 54 53 54 54 55 55 55 55 55 43 41 41 40 39 40 47 55 53 52 52 52 51 51 51 51 50 50 50 51 47 49 51 51 51 45 43 43 42 41 41 40 39 41 48 51 50 49 50 51
61 61 62 61 61 60 58 57 56 57 56 55 54 54 53 53 54 53 54 55 54 55 55 44 41 41 40 39 38 43 54 52 51 51 51 51 50 51 50 50 49 49 50 51 50 50 50 49 49 49 50 50 51 49 43 41 39 39 43 49 50 49 52
60 61 61 60 59 58 56 55 54 54 53 54 54 53 53 52 52 51 52 53 52 52 53 42 40 40 39 39 37 41 52 51 51 51 51 51 51 50 50 49 49 49 50 49 50 47 47 47 47 47 47 48 49 50 51 52 54 53 51 50 50 50 51
59 59 59 58 56 55 54 53 53 52 51 51 52 51 50 51 50 51 52 53 53 53 52 40 40 40 39 39 38 50 52 51 51 51 51 51 51 52 51 50 50 49 49 49 46 40 42 46 46 45 45 46 47 48 48 48 46 46 50 52 53 53 53
58 58 58 56 55 54 52 52 52 52 50 49 49 49 49 50 52 52 52 51 51 50 50 43 39 39 39 38 42 53 52 52 52 50 51 51 51 51 50 50 50 49 49 49 45 39 39 39 45 45 45 45 45 46 46 49 45 42 41 41 42 42 42
57 57 57 55 54 53 53 53 51 52 51 49 49 49 49 49 49 50 50 49 51 52 51 46 39 39 39 38 44 52 53 52 51 50 51 51 51 51 50 45 46 48 48 48 43 39 38 41 44 44 44 43 42 42 44 46 47 47 43 42 41 40 40
57 57 56 56 55 53 52 51 49 48 47 48 48 49 49 48 47 48 49 49 46 48 49 46 40 39 39 38 44 51 52 52 50 50 50 50 50 50 50 48 44 45 46 45 40 39 38 41 44 43 43 41 40 40 42 44 44 44 45 46 47 48 47
56 56 56 55 54 52 50 48 47 48 48 49 46 45 46 48 47 47 47 46 46 47 46 47 45 38 39 39 40 50 52 50 49 49 50 49 48 49 49 50 48 41 38 38 37 37 37 37 41 43 42 40 39 39 43 44 44 43 43 43 43 44 44
56 56 56 54 52 50 49 47 47 47 46 47 46 45 45 46 46 44 43 43 45 46 47 49 48 38 39 39 38 40 51 50 50 49 49 48 48 48 48 49 49 45 39 38 37 37 37 37 38 41 41 40 40 41 41 41 41 40 41 41 41 41 42
56 55 55 52 50 49 49 48 48 47 45 44 45 44 43 43 43 43 43 44 45 46 46 43 50 42 38 38 38 37 45 49 48 47 46 47 47 47 48 48 48 44 38 37 37 37 37 37 37 40 39 38 37 36 39 41 41 41 41 41 40 40 41
54 54 52 51 50 47 47 47 47 46 45 45 45 43 42 42 42 42 43 44 45 47 49 48 40 45 41 38 38 38 37 41 39 43 45 45 45 46 47 47 46 41 37 37 37 37 37 36 37 39 37 36 36 36 37 40 39 38 38 38 39 38 39
54 51 49 49 48 46 45 45 45 45 45 44 43 42 42 43 44 46 47 50 51 53 52 52 44 39 42 38 37 37 36 36 36 43 44 44 46 46 46 45 43 38 36 36 36 36 36 36 39 37 36 36 36 36 39 39 38 37 36 36 36 37 38

ECMWFFLT1_sfc_temp_012.txt.gz
Temp
74 72 72 73 74 74 73 72 73 73 74 74 73 74 74 74 74 74 74 74 74 75 75 74 73 74 74 74 73 73 74 73 71 68 67 70 69 68 69 69 68 68 68 68 69 65 61 58 60 64 64 70 70 74 76 79 80 81 79 80 83 84 83
75 74 75 75 74 73 71 72 73 74 73 73 74 73 74 74 74 73 73 73 73 74 76 75 73 73 71 70 71 70 70 71 71 71 71 70 70 68 69 69 70 70 69 69 69 69 66 64 60 61 62 64 66 72 75 77 79 79 80 80 82 84 84
74 74 75 73 72 72 71 71 72 72 73 72 72 74 73 75 74 74 73 72 72 73 73 73 71 70 70 70 69 69 70 69 70 70 70 70 70 70 70 70 69 68 69 70 70 70 69 67 62 64 67 66 66 71 74 74 77 79 80 80 79 82 83
73 72 72 71 72 72 71 71 72 72 73 72 72 72 72 73 72 73 72 72 72 72 72 72 71 72 70 69 69 69 69 69 69 68 68 68 70 69 69 70 69 67 66 65 66 67 67 67 67 68 71 74 73 71 74 77 78 80 82 82 80 81 82
73 72 72 71 71 71 72 71 73 72 72 72 71 71 71 71 71 71 71 71 71 71 71 71 71 72 71 71 70 70 69 68 68 68 68 67 67 68 67 69 68 68 67 67 68 67 66 67 67 67 69 73 75 77 79 76 79 79 81 83 85 84 83
74 74 73 72 73 72 73 72 72 72 72 71 71 70 70 70 71 70 70 71 70 70 71 71 70 71 71 71 70 69 68 68 68 68 67 65 66 67 67 68 69 69 68 68 68 67 67 67 67 66 71 73 68 70 76 77 75 79 81 82 84 86 86
74 74 74 74 73 74 74 73 73 73 72 71 71 70 71 72 72 71 71 71 71 70 70 70 70 70 70 72 70 68 68 68 68 66 66 66 66 66 68 68 68 68 67 67 67 67 66 65 65 65 64 67 68 70 75 77 80 77 79 82 83 84 85
75 75 75 76 74 74 74 73 74 74 74 73 72 72 72 72 71 71 70 70 70 69 70 69 70 70 70 71 70 68 68 68 67 67 67 66 65 65 65 67 66 67 67 68 68 67 69 67 65 65 64 62 65 68 69 75 77 77 78 82 84 85 85
76 76 76 76 75 75 74 74 74 74 75 74 74 72 71 72 71 70 70 70 70 69 70 70 70 70 69 69 68 67 66 68 66 65 66 65 64 64 65 66 67 68 67 68 68 68 68 68 67 67 65 64 61 61 66 66 70 74 79 77 81 83 82
74 74 75 74 74 74 74 74 75 74 74 74 73 72 71 72 71 71 70 70 69 70 70 70 70 69 69 68 68 66 66 67 67 66 66 66 65 66 65 63 66 67 67 66 66 66 66 66 67 67 68 66 65 61 60 62 65 68 74 77 75 79 82
74 74 74 74 74 74 74 74 75 74 73 74 73 72 72 71 71 71 71 70 70 70 69 70 70 69 68 68 67 67 67 67 66 66 66 66 65 66 65 65 66 67 66 66 66 64 65 65 65 67 66 67 67 63 63 60 62 67 68 72 74 75 79
74 75 75 75 74 73 73 74 74 74 74 74 73 71 71 71 71 70 71 70 70 69 69 69 69 69 69 67 67 67 66 67 67 65 65 65 65 65 64 63 65 65 65 65 65 65 65 65 65 66 67 67 66 64 63 63 60 67 71 68 72 76 75
75 75 75 74 73 73 74 74 74 73 73 74 73 72 72 72 71 70 70 70 69 70 69 69 69 69 68 68 68 67 66 66 66 65 66 66 66 65 64 64 63 64 64 66 66 66 65 65 65 65 66 66 66 65 64 62 61 62 69 69 70 73 75
73 75 74 74 73 73 74 74 74 74 75 73 74 72 72 73 73 71 71 71 71 70 69 68 69 69 69 67 68 67 67 67 66 66 65 63 64 64 65 64 64 64 64 63 65 65 66 66 65 65 66 65 65 66 65 63 61 62 66 70 70 71 73
74 74 73 73 73 74 74 74 74 75 73 74 74 74 74 73 73 72 72 72 71 71 70 70 69 69 69 66 65 66 65 66 66 65 64 64 63 63 62 63 64 63 64 64 63 66 69 67 68 68 68 65 66 65 66 63 62 61 60 66 67 71 71
74 73 72 72 72 73 73 73 74 73 74 74 75 74 74 74 73 74 73 72 72 71 71 70 69 68 67 67 66 65 65 65 64 63 63 63 65 65 63 62 63 63 63 62 62 63 64 65 67 67 65 66 64 64 66 66 62 60 60 62 65 67 68
73 73 72 72 72 72 73 73 74 73 74 74 74 74 75 75 74 73 72 72 72 71 70 69 69 69 68 67 66 65 65 64 64 64 63 64 65 64 63 62 62 62 62 61 62 63 64 65 64 65 65 65 64 64 63 63 63 61 61 59 63 66 67
69 70 71 72 72 72 72 73 73 74 73 73 74 74 74 75 73 73 71 72 72 71 70 70 69 68 68 67 66 65 65 65 64 64 63 63 60 63 62 62 62 63 62 60 61 62 64 61 64 64 64 65 65 65 65 64 63 63 61 60 61 64 65
69 70 71 71 71 72 72 73 73 72 74 74 74 73 72 72 72 73 74 73 73 72 71 70 70 69 68 67 66 65 65 64 64 64 63 63 63 63 61 62 62 62 62 60 60 60 61 60 62 61 62 63 65 64 62 62 62 62 62 61 61 61 64
71 71 71 72 73 73 73 72 73 73 73 73 73 72 72 72 72 73 73 73 72 71 71 70 69 68 67 67 65 65 63 63 63 62 63 63 63 62 62 62 61 61 60 61 60 60 60 59 59 59 60 60 62 61 61 61 62 61 61 61 62 62 63
70 72 72 72 72 72 73 73 72 73 73 72 72 72 71 71 72 72 73 72 72 71 70 69 70 68 67 66 65 64 64 62 63 62 61 62 61 61 61 61 61 61 61 61 60 60 59 58 59 59 60 61 61 60 60 60 60 61 60 60 61 61 63
70 71 71 72 71 71 71 72 72 72 72 71 71 72 72 72 72 72 72 71 71 69 68 67 67 66 66 66 65 63 63 63 62 61 61 61 61 61 61 61 60 61 58 52 47 47 49 48 53 55 57 59 59 58 58 59 60 60 60 59 59 61 61
69 70 71 71 71 72 72 71 70 71 71 72 71 70 72 72 72 71 70 69 69 66 65 66 57 52 56 65 65 64 62 62 62 61 60 60 60 60 60 60 60 53 50 48 47 44 43 43 45 50 54 56 56 57 57 57 58 59 59 58 59 59 59
70 70 70 70 71 71 71 71 70 70 70 70 69 69 69 70 68 67 69 68 66 64 64 59 45 45 46 51 62 62 62 61 61 60 60 59 59 59 60 61 60 56 53 50 52 43 42 42 42 42 43 44 47 51 53 53 55 57 57 57 58 59 59
70 70 70 71 71 71 70 70 70 70 69 68 68 68 67 68 66 68 67 67 65 63 61 47 43 43 45 45 51 62 62 61 60 60 60 59 60 60 59 58 59 58 58 58 57 56 51 43 41 42 41 41 41 41 43 49 51 53 54 55 56 57 58
70 70 70 70 70 70 70 70 70 69 68 68 68 67 67 66 66 66 66 65 63 62 59 43 42 42 42 43 43 52 63 61 60 60 59 59 59 58 58 58 58 57 58 51 54 57 58 57 46 41 41 41 41 41 40 39 40 48 52 52 53 54 56
69 69 70 70 69 70 69 68 68 69 68 67 66 66 66 65 65 65 65 64 62 61 58 43 42 41 42 41 40 46 63 60 59 59 59 59 58 58 57 57 57 57 58 58 58 57 57 56 56 55 55 55 56 51 42 40 40 39 44 50 51 51 54
68 68 69 69 69 69 68 67 67 68 67 67 66 65 65 64 64 63 63 63 62 58 55 41 41 41 40 41 39 44 61 58 59 59 58 58 58 57 57 56 56 56 57 57 57 54 54 54 54 53 53 53 54 54 56 56 55 54 51 50 52 53 55
66 68 68 68 68 67 67 66 65 66 65 65 65 65 64 64 62 62 62 60 58 57 53 40 41 41 40 40 39 54 58 57 58 59 59 59 58 59 59 58 57 57 57 56 51 42 45 52 52 51 50 52 52 53 55 52 49 48 52 54 55 54 54
65 66 66 67 67 66 66 65 65 66 65 64 63 62 62 62 62 61 58 58 57 55 52 43 40 40 40 39 44 56 58 59 59 58 58 58 59 59 58 58 57 57 56 56 48 41 40 40 50 50 50 50 51 52 53 56 49 44 43 43 42 42 41
65 65 66 66 66 66 66 66 66 66 63 62 61 62 62 60 59 58 56 55 56 55 53 45 40 40 40 39 46 58 60 59 58 58 58 59 59 59 58 50 52 55 54 55 45 40 39 44 48 49 49 49 49 49 51 54 54 55 44 41 41 41 42
64 65 65 65 66 65 65 64 65 65 63 62 60 60 59 58 56 56 56 56 52 55 54 46 39 40 39 39 47 57 58 59 57 57 57 57 58 58 59 54 48 50 52 50 41 40 38 42 47 48 48 47 47 47 50 52 52 51 52 52 51 51 48
63 63 64 65 65 65 65 65 64 63 62 62 58 57 54 53 51 50 51 53 54 56 54 51 46 39 40 39 41 54 56 55 55 55 57 57 57 57 58 58 55 43 39 39 38 37 37 37 44 47 47 45 44 44 50 50 50 49 48 47 47 48 48
62 63 64 63 64 64 65 64 63 61 58 56 55 53 52 51 50 49 51 52 53 52 53 53 48 38 39 39 38 40 53 54 56 56 56 56 56 55 56 58 58 49 39 38 37 37 37 37 38 44 45 44 45 45 43 44 44 41 44 44 44 45 46
62 62 63 63 62 62 63 63 61 58 57 55 53 51 50 50 50 50 51 53 54 52 49 48 53 40 39 38 38 37 48 54 52 53 52 54 55 55 55 56 57 46 35 38 36 37 37 37 37 43 43 40 38 37 41 43 43 42 42 42 43 43 45
60 61 60 61 61 62 60 57 55 54 53 52 51 49 49 50 49 48 49 50 51 51 52 49 43 46 38 39 37 37 37 43 41 48 51 51 52 53 55 55 54 41 36 37 37 37 37 36 37 42 38 37 37 36 38 41 41 41 41 41 42 42 43
61 60 60 60 59 58 55 53 51 51 50 49 47 47 48 48 48 48 48 49 51 52 53 54 43 42 44 36 38 37 36 35 36 47 49 50 52 52 53 53 48 37 37 37 37 37 37 37 41 37 36 36 36 37 41 41 40 40 39 40 40 40 41

ECMWFFLT1_sfc_temp_015.txt.gz
Temp
75 73 74 75 76 76 75 75 75 75 76 77 76 77 76 76 76 75 76 76 77 78 78 77 75 76 75 76 73 74 75 74 72 67 66 67 65 63 67 66 66 67 69 71 70 66 61 58 60 64 66 66 65 66 66 66 67 66 67 68 75 81 81
76 75 76 76 76 75 74 75 75 76 75 76 76 75 76 76 76 75 75 75 75 76 78 77 75 75 73 72 72 72 72 72 72 72 72 69 69 67 68 68 69 69 69 68 71 71 60 62 60 60 61 65 64 65 67 67 67 68 66 67 67 71 71
76 76 77 75 74 74 73 73 74 74 74 74 74 76 75 76 75 75 75 74 74 75 75 74 73 73 72 72 72 71 72 71 72 71 70 71 72 71 71 70 68 70 70 70 66 66 69 66 62 65 65 63 61 65 67 67 68 68 69 67 68 72 78
75 75 74 73 74 73 73 73 74 74 74 74 74 73 74 75 74 75 74 74 74 74 75 75 74 74 73 72 72 72 71 71 71 70 70 70 71 71 71 72 71 69 68 67 67 68 67 66 67 68 70 74 71 67 67 70 71 72 70 69 71 74 71
75 74 73 73 73 73 73 72 74 74 73 73 73 73 73 73 73 73 73 73 73 73 73 74 74 74 74 74 73 72 71 71 71 71 70 69 70 70 70 71 70 70 70 69 69 68 67 67 67 67 69 74 75 77 77 71 76 77 79 79 80 80 78
75 75 75 74 74 74 74 74 73 73 73 72 72 72 72 72 73 72 72 73 72 72 73 74 73 73 74 73 72 71 71 70 70 69 69 67 68 68 69 70 72 71 70 70 70 69 68 68 67 66 71 74 69 70 75 77 76 81 83 83 84 86 87
75 75 75 75 75 76 76 75 74 74 73 72 72 72 72 73 73 73 73 73 73 73 72 72 72 73 74 75 72 71 71 70 70 69 69 68 68 68 69 70 69 71 70 70 69 68 68 67 67 66 65 68 69 70 75 76 79 78 82 85 86 86 87
76 76 77 77 75 76 76 75 75 76 75 74 74 73 73 73 73 73 73 72 72 72 72 72 72 72 72 73 72 71 71 71 70 69 68 68 67 67 67 68 69 70 69 71 70 69 70 69 67 67 65 62 64 68 69 75 77 77 78 83 86 86 86
77 77 77 78 77 76 76 76 75 76 76 75 75 74 73 73 72 72 72 72 72 72 72 72 72 73 72 71 71 70 69 71 69 69 69 69 67 67 67 68 70 70 70 70 70 70 69 68 67 68 67 65 62 61 67 67 71 74 80 78 82 84 85
77 76 76 77 76 76 76 76 76 76 76 76 75 74 73 74 73 72 72 72 71 71 72 72 72 72 71 71 70 69 69 71 70 69 69 69 68 68 68 67 68 70 70 69 70 69 68 68 68 68 68 66 65 61 60 62 66 68 75 79 75 80 83
76 77 77 77 77 76 76 76 76 75 75 76 75 74 73 73 72 72 72 71 71 71 71 72 72 72 71 71 70 70 70 70 69 69 69 69 68 68 68 68 68 69 68 68 68 67 68 67 67 67 68 68 68 63 62 60 62 68 69 74 76 77 81
77 77 77 78 77 76 76 76 76 76 76 76 75 73 73 73 72 72 72 72 71 71 71 71 71 71 71 70 70 70 69 69 69 68 69 68 68 68 67 66 68 68 68 68 67 68 68 68 68 69 69 68 68 66 63 62 58 66 71 68 72 77 76
78 77 77 76 75 76 76 76 76 75 75 76 75 74 74 74 73 72 73 72 72 72 72 71 71 71 70 70 70 70 69 69 69 68 68 69 70 68 66 66 66 67 68 68 69 69 68 68 68 68 68 68 68 67 66 63 61 61 68 69 71 73 75
76 77 77 77 75 73 74 74 77 76 77 75 75 74 74 74 75 73 74 73 73 72 71 71 71 71 70 70 70 70 69 70 69 69 68 67 68 68 68 68 67 67 67 65 67 68 69 69 69 68 68 68 67 67 66 64 62 62 66 71 70 71 73
76 76 75 75 75 74 73 73 72 77 76 76 76 75 75 75 75 74 74 74 74 74 72 72 71 71 70 69 69 69 68 69 69 69 67 67 67 67 66 66 68 67 68 67 66 68 71 71 72 71 71 70 69 68 68 65 64 62 61 66 68 72 72
76 75 75 75 73 74 71 69 71 74 75 76 77 76 75 75 75 75 75 74 74 74 73 73 71 71 70 70 69 68 68 68 68 66 66 67 68 68 65 65 66 66 66 64 65 65 67 67 69 70 68 69 67 67 68 68 64 61 61 63 66 68 69
74 74 74 75 75 74 73 72 72 70 73 76 77 76 77 77 76 75 74 74 74 74 73 73 72 72 72 71 69 68 68 68 68 67 67 67 69 67 66 65 65 65 65 64 65 65 67 67 66 67 67 68 67 67 67 66 65 63 62 60 64 67 68
72 70 67 68 68 69 71 73 73 72 70 71 73 75 76 77 76 75 73 74 74 74 73 73 72 71 71 71 70 69 69 69 68 68 67 67 64 66 66 65 66 66 65 63 64 64 66 64 66 66 65 67 67 68 67 67 66 66 64 62 62 66 67
69 70 68 68 68 69 70 69 72 71 73 73 73 72 75 76 76 76 76 76 76 76 75 74 73 72 72 71 70 69 68 68 67 68 67 66 67 66 64 65 65 65 65 63 63 63 63 63 64 63 64 64 65 65 63 64 64 64 64 63 63 63 66
70 69 69 68 68 68 67 67 72 73 73 73 71 71 74 76 76 76 76 76 75 75 75 75 73 72 72 71 70 69 67 67 67 67 67 67 67 66 65 65 64 64 63 63 62 62 62 62 62 62 62 62 64 63 62 63 64 63 63 62 63 63 64
68 70 70 71 69 68 68 69 67 64 64 68 71 72 72 73 76 76 76 76 76 75 75 74 74 73 72 70 69 68 67 66 66 65 65 66 66 65 64 64 64 64 64 63 61 60 60 59 60 60 61 61 61 60 60 61 61 62 61 61 62 62 64
67 67 69 70 70 71 71 68 64 62 62 64 67 69 74 75 75 75 76 75 76 75 73 73 73 72 71 70 69 67 67 66 66 65 64 64 64 64 64 64 64 64 60 53 48 49 50 49 55 56 58 60 59 59 59 60 60 60 61 61 61 63 63
68 69 70 71 71 72 72 73 73 70 66 65 66 71 72 74 74 73 72 74 74 73 72 72 66 57 60 69 68 68 66 66 66 65 64 63 63 63 63 64 63 56 52 51 50 46 44 44 45 51 55 56 56 56 56 57 58 59 58 58 59 60 59
72 72 72 72 72 73 74 74 73 73 72 72 71 71 71 72 72 68 62 67 71 70 67 65 50 50 52 55 66 66 65 64 65 64 63 63 62 62 63 64 64 56 54 52 52 45 44 43 42 43 43 44 47 51 52 52 54 55 56 56 58 58 58
73 72 73 73 73 74 73 73 73 73 73 71 71 71 70 70 70 70 68 66 64 64 65 49 46 47 48 50 56 66 65 64 63 63 63 63 63 63 63 62 62 62 61 61 61 58 49 43 42 42 41 42 42 41 43 49 50 51 53 53 54 56 57
72 72 73 73 73 73 72 72 72 72 71 72 71 70 69 69 69 69 66 65 67 66 62 45 45 46 46 47 49 58 66 64 63 63 64 63 63 63 62 62 62 61 62 53 56 58 60 58 45 41 43 42 42 42 40 39 41 49 52 51 51 51 53
71 72 72 72 72 72 72 71 71 72 71 71 70 69 69 68 68 68 66 66 66 66 57 45 44 45 45 44 44 51 66 63 63 63 63 62 61 61 60 61 60 60 61 60 60 60 60 59 59 56 54 53 54 50 42 40 40 40 44 50 51 50 53
70 70 71 71 70 71 71 70 71 71 71 70 70 69 68 67 67 66 65 65 63 59 55 43 43 43 43 43 41 47 63 61 61 61 61 61 61 60 60 59 58 58 59 59 60 57 58 58 56 55 54 54 55 56 57 56 53 51 50 50 51 53 54
69 70 70 70 70 70 70 70 69 70 70 70 71 71 70 69 67 66 67 65 62 56 53 41 42 43 43 42 41 56 61 59 59 60 61 61 60 60 60 59 59 59 60 60 48 42 49 55 54 53 52 53 54 55 56 53 50 51 55 57 56 56 57
68 68 68 68 69 68 68 69 70 71 69 69 69 68 68 68 68 67 66 65 63 56 53 44 41 42 42 41 46 59 59 59 59 59 59 60 60 61 61 61 60 60 59 60 44 39 39 45 52 52 51 51 52 53 53 56 50 45 44 45 44 44 44
68 68 68 68 68 68 69 70 70 70 69 68 68 68 68 68 67 67 65 63 60 56 53 45 40 41 41 41 49 58 59 59 59 60 60 61 62 62 62 55 56 59 58 59 40 39 37 45 51 51 51 50 50 50 52 54 55 55 47 43 43 43 43
68 67 67 67 67 67 68 68 69 70 69 69 68 69 68 66 65 64 63 61 52 53 51 45 40 40 41 41 48 58 60 61 60 60 60 60 61 61 62 57 51 54 56 55 38 39 37 44 51 50 50 49 48 48 50 52 52 52 54 55 54 53 49
67 66 66 66 66 67 68 68 68 68 68 69 68 68 67 65 62 59 58 56 54 53 49 47 44 39 41 40 40 53 59 57 56 57 58 59 59 60 60 60 56 43 43 38 36 37 37 38 46 48 49 48 47 46 51 51 50 48 47 47 47 48 48
67 67 67 66 66 66 67 67 67 67 66 66 66 65 62 61 57 56 56 56 54 53 51 50 45 39 40 41 38 44 54 53 55 56 57 57 57 56 58 59 56 38 37 37 38 36 37 37 38 44 45 45 47 46 43 45 45 43 46 46 46 46 47
67 65 66 65 64 64 66 67 67 66 66 65 63 60 56 55 53 53 54 53 53 53 53 49 48 40 39 39 38 39 49 54 52 54 53 55 55 56 58 58 58 40 36 37 37 37 37 37 37 42 44 40 39 37 42 44 44 44 44 44 44 44 45
65 65 64 64 63 63 64 65 65 65 63 62 59 56 54 53 51 51 52 53 53 53 53 51 44 44 39 39 38 39 38 44 42 49 52 53 54 55 58 57 54 39 39 38 39 38 38 37 38 44 39 38 38 37 38 43 43 42 42 42 42 42 43
66 65 64 64 63 62 62 63 64 64 60 57 55 53 52 52 52 50 50 51 52 53 53 52 44 42 42 38 38 38 37 36 39 49 51 52 54 55 55 56 51 40 40 39 38 39 39 38 42 39 38 37 37 37 42 43 42 41 40 40 40 41 42

ECMWFFLT1_sfc_temp_021.txt.gz
Temp
61 61 62 61 63 63 62 62 62 61 63 63 63 62 63 65 64 63 63 63 64 65 65 63 62 62 63 63 62 61 61 61 60 59 58 59 57 58 60 60 60 61 62 60 59 56 53 53 54 58 61 61 62 63 64 64 64 64 63 63 65 65 65
63 62 62 63 62 62 61 61 62 62 62 62 63 62 62 63 64 62 62 62 61 63 64 63 62 62 61 61 60 60 59 59 59 59 59 58 59 58 59 58 59 59 59 59 59 57 54 52 53 56 56 60 61 62 62 63 64 65 64 64 65 65 63
63 61 61 61 60 61 61 60 60 61 60 60 61 62 62 62 61 62 62 61 60 61 62 61 61 61 60 60 59 59 59 59 59 58 58 58 58 59 60 60 58 57 58 57 57 56 57 57 54 55 57 56 56 58 61 62 63 64 65 64 64 65 65
62 61 61 60 59 60 61 60 60 60 60 60 60 61 61 61 60 61 60 60 61 61 61 61 59 60 59 59 60 59 59 58 58 57 58 57 58 58 59 57 58 58 57 55 55 57 56 55 54 54 57 60 60 57 59 62 63 64 64 65 65 65 65
62 62 61 60 60 60 60 59 59 60 59 60 59 59 59 59 59 59 60 60 60 60 60 59 60 61 61 61 59 59 59 58 58 58 57 56 56 56 57 57 56 58 57 57 57 56 56 56 55 54 55 59 60 60 65 61 63 64 64 65 66 67 67
63 62 62 60 60 60 60 59 59 59 58 59 58 60 58 58 58 59 60 59 59 59 58 60 59 60 60 59 60 58 58 57 56 57 55 55 56 55 55 56 57 58 57 57 58 57 56 56 55 52 55 58 55 54 59 63 60 62 66 66 68 67 68
63 63 62 61 61 61 61 60 60 59 59 58 58 58 59 59 58 59 59 58 58 58 59 59 58 59 59 59 58 57 57 56 56 55 55 55 55 55 56 56 56 57 55 57 57 56 55 55 53 52 52 52 53 56 60 60 64 63 65 69 70 70 68
63 63 62 62 62 62 61 61 60 60 60 59 59 60 59 59 59 60 59 58 58 58 57 58 61 59 59 60 58 57 57 58 58 57 55 56 57 56 55 55 57 55 55 56 55 57 56 55 55 54 53 51 50 49 52 57 60 62 62 65 71 70 69
64 63 62 62 62 62 62 62 61 60 61 60 60 60 59 59 59 59 59 58 58 58 58 58 58 58 58 58 57 56 57 60 57 56 55 55 54 54 54 54 56 55 56 56 57 55 55 55 55 54 54 51 49 47 50 50 53 56 64 62 65 68 69
63 63 62 62 61 62 62 62 61 61 61 61 61 61 59 58 59 59 58 58 58 57 58 57 58 58 57 58 56 55 55 56 56 55 54 55 54 54 54 54 54 55 55 54 55 56 56 54 55 54 55 54 52 49 47 47 48 51 58 62 60 63 68
62 62 62 63 62 62 61 62 61 61 62 62 63 62 60 60 60 61 58 57 57 57 57 58 57 57 57 58 57 57 56 55 55 55 55 55 55 55 53 54 53 54 53 53 56 56 54 57 54 55 54 54 53 50 50 48 46 51 54 58 61 61 64
61 61 62 63 62 62 62 62 62 62 62 61 62 61 59 60 59 58 58 57 57 57 58 58 56 57 56 56 56 57 57 55 54 55 56 55 56 54 54 54 53 53 54 53 53 54 55 53 57 55 54 54 54 53 52 50 47 49 55 55 56 62 62
62 64 62 63 63 61 63 62 61 61 62 62 61 61 60 60 59 58 57 58 57 57 57 58 56 57 55 56 56 58 57 55 56 55 56 56 59 56 55 54 53 53 54 52 53 53 53 54 55 56 56 55 53 54 52 51 49 50 51 55 55 59 62
63 63 63 64 62 61 60 61 61 61 61 61 61 61 60 60 59 60 58 58 58 57 56 56 56 56 55 56 55 55 56 56 56 55 55 55 58 56 55 55 55 55 53 52 52 53 54 54 54 54 54 55 53 52 55 53 51 49 50 52 56 57 60
61 62 62 62 62 62 62 61 60 60 59 59 62 62 62 61 60 60 60 59 59 59 58 57 56 56 56 55 55 57 56 56 55 55 54 55 56 57 54 53 54 55 54 54 52 55 55 55 56 55 54 54 54 54 55 54 51 51 49 50 53 57 58
63 61 61 61 61 60 60 60 60 59 59 59 59 61 62 62 61 61 61 60 59 59 60 58 57 57 56 55 56 55 56 55 54 53 54 54 54 55 55 54 54 53 55 53 54 52 52 54 54 55 52 52 52 53 54 54 52 49 48 49 50 54 53
61 61 60 59 59 59 59 59 59 57 56 57 60 59 60 60 60 59 61 61 60 60 60 60 59 59 59 57 57 56 55 55 54 53 54 54 54 54 53 54 55 53 53 54 53 53 51 52 52 53 52 52 52 52 52 51 52 52 49 49 47 53 55
59 60 60 60 59 59 59 60 59 59 58 58 60 58 58 58 59 59 60 61 61 60 60 60 60 59 59 58 58 57 57 56 54 54 55 54 56 54 53 52 53 54 51 51 52 52 52 51 54 52 51 52 52 52 52 51 51 50 48 47 48 49 51
58 58 58 58 58 59 60 60 60 59 60 59 58 58 58 58 61 62 60 58 59 61 60 59 60 60 62 61 59 58 58 57 56 55 55 55 54 53 52 53 53 52 52 52 51 51 50 50 51 50 49 50 51 50 48 49 50 49 48 48 47 47 48
57 57 57 56 56 57 58 59 60 59 59 59 60 59 58 58 59 60 61 60 59 58 57 57 57 59 60 61 59 58 58 58 57 56 55 55 55 54 53 53 52 52 51 50 49 48 47 47 49 47 48 47 48 47 47 47 48 48 47 47 46 47 48
56 56 56 56 56 56 58 58 58 59 58 58 58 58 59 59 60 60 59 59 57 56 56 57 58 59 60 60 58 58 59 59 59 57 56 56 55 55 55 54 53 52 51 49 49 47 47 46 45 45 45 46 45 45 44 45 45 45 45 45 45 44 45
54 54 54 55 56 57 58 59 59 58 57 58 58 58 58 58 58 58 58 57 58 56 57 58 59 59 60 60 60 59 60 60 59 57 56 55 54 55 55 55 53 51 53 54 51 50 50 49 47 46 44 44 45 43 43 43 44 42 43 43 43 44 43
53 53 54 54 54 53 57 59 58 57 57 57 58 58 57 58 58 58 58 58 57 56 56 58 58 54 55 59 58 61 59 60 60 58 57 55 53 54 56 56 56 56 53 51 48 45 45 47 48 47 45 45 44 43 43 42 41 42 42 41 41 41 41
53 54 53 53 53 55 55 57 58 58 57 57 57 57 57 57 57 57 57 56 56 56 57 59 52 48 48 49 57 57 58 58 59 58 57 55 53 54 55 56 55 53 53 51 48 43 43 44 44 45 46 47 47 44 43 42 41 41 41 42 42 41 40
54 55 55 55 54 55 55 55 55 57 57 56 57 56 56 57 57 57 57 57 56 57 57 53 48 46 46 46 48 57 58 58 56 56 57 56 55 54 55 55 53 53 53 52 51 47 45 43 42 42 41 42 42 42 44 44 43 41 40 41 40 41 40
58 57 58 57 54 54 54 54 54 55 55 57 57 57 57 57 57 57 56 56 56 56 55 51 46 46 45 46 45 53 58 58 57 55 55 55 54 54 54 53 52 52 54 54 53 49 47 46 44 42 42 42 42 41 39 38 40 44 42 41 40 41 41
56 55 53 53 52 52 53 53 54 53 53 53 54 54 56 56 57 56 56 56 55 54 53 51 46 45 46 45 44 49 56 56 56 56 56 56 56 54 53 54 52 51 52 53 52 51 49 47 46 44 41 41 41 43 42 40 40 40 41 42 41 41 43
53 54 52 51 50 52 52 52 52 51 51 52 54 53 53 53 53 53 53 54 54 52 53 45 43 44 44 43 44 48 53 54 54 53 54 54 51 50 52 53 53 52 52 51 51 51 50 48 44 44 41 41 42 42 42 42 41 41 42 42 41 42 43
53 53 53 51 52 52 51 51 52 50 51 49 51 51 51 52 52 52 53 51 50 48 43 41 41 42 44 44 47 51 52 51 51 50 51 51 50 50 51 52 52 51 51 51 49 46 48 49 45 44 43 42 41 41 42 45 45 45 45 44 43 43 43
52 53 53 53 54 52 52 51 50 49 51 48 49 50 52 51 49 50 49 48 48 44 41 41 41 43 43 45 47 50 51 50 50 50 49 49 49 51 52 52 51 50 50 51 46 43 44 47 46 44 43 41 41 41 42 43 44 43 42 41 41 41 40
53 53 51 52 51 50 50 50 50 50 52 49 49 50 50 51 51 50 49 48 47 44 40 41 41 42 44 45 47 49 50 49 48 48 50 50 51 52 54 55 54 52 48 44 38 37 38 41 39 38 38 38 38 37 38 39 42 42 41 42 41 41 41
52 51 51 52 52 52 51 51 50 50 49 49 48 50 51 49 44 45 46 47 48 44 41 42 41 42 43 45 49 50 50 49 48 46 48 49 51 51 47 42 43 43 41 39 38 38 38 40 38 37 37 36 36 35 37 36 36 36 37 38 38 39 39
53 53 52 50 49 51 48 51 51 50 48 48 50 46 45 45 43 42 44 45 45 44 42 40 41 41 42 43 45 50 49 47 46 46 47 49 48 48 45 41 40 37 37 38 38 37 38 39 38 38 37 36 35 36 37 36 37 36 35 36 35 37 37
51 49 50 51 51 49 49 50 49 50 50 49 47 42 44 43 44 42 41 41 42 42 44 41 39 41 42 43 43 45 47 45 44 44 45 45 46 45 43 40 40 39 38 37 37 38 39 39 39 37 35 35 36 38 38 35 37 39 35 35 36 36 36
50 52 49 49 49 49 48 48 49 50 49 47 43 43 41 41 42 41 41 40 40 40 43 43 41 41 41 42 42 43 44 44 45 46 44 43 44 45 45 41 40 38 37 37 38 39 39 39 37 37 36 37 37 37 37 37 36 35 35 35 34 34 35
49 52 52 49 48 48 47 49 49 48 49 45 43 43 41 41 41 40 39 39 38 39 39 41 41 41 40 40 40 41 41 42 42 46 44 44 45 45 45 42 41 39 38 38 38 38 38 37 38 36 37 37 37 37 37 35 34 34 32 33 34 33 34
50 50 49 50 49 47 48 48 47 49 45 44 43 41 40 41 40 40 39 38 40 39 39 39 40 41 41 40 40 39 38 39 41 44 45 44 44 45 44 43 42 39 38 38 38 38 38 38 36 37 37 37 37 37 34 34 32 33 33 32 32 34 36

ECMWFFLT1_sfc_temp_024.txt.gz
Temp
59 58 58 57 57 58 58 58 57 57 58 59 60 59 60 61 61 60 60 60 60 61 61 59 58 59 60 60 59 58 58 58 57 58 57 59 58 57 58 59 59 60 60 58 56 55 52 53 55 56 58 60 60 62 62 62 63 63 62 63 64 64 64
59 59 59 59 58 57 56 57 57 57 57 57 58 59 59 61 61 59 59 59 59 60 61 60 59 59 58 57 57 57 56 56 57 58 58 57 56 56 58 57 58 58 58 57 57 56 54 52 52 53 55 56 59 61 61 62 62 63 63 63 64 65 64
60 59 58 58 57 56 56 55 55 56 56 56 56 57 58 59 58 58 58 59 58 59 60 58 58 58 57 56 56 56 56 56 56 56 55 55 55 56 57 57 57 58 56 55 54 54 55 55 54 53 53 53 53 55 58 60 62 61 61 62 63 64 64
59 59 58 57 56 56 56 54 55 55 55 56 56 56 56 57 57 58 57 57 58 59 58 57 56 56 56 56 56 56 55 55 54 54 55 54 55 55 56 55 55 56 55 53 54 54 53 52 51 52 52 55 56 54 57 61 61 62 62 62 62 61 63
60 60 59 58 57 56 55 55 54 55 54 55 55 55 55 55 57 56 57 56 56 56 57 57 57 57 56 56 55 55 55 54 54 55 54 54 54 54 54 54 54 55 54 54 54 53 53 53 52 51 52 54 53 56 60 60 61 63 63 64 64 64 63
60 60 59 58 57 57 56 55 54 54 54 57 55 55 55 55 56 58 58 56 56 56 55 56 55 56 56 55 55 54 54 53 52 53 53 51 52 53 52 52 54 54 54 53 54 53 52 53 51 49 51 53 53 51 53 57 58 60 65 66 67 65 65
59 59 58 59 57 57 57 56 56 56 55 56 55 55 55 55 55 57 57 55 55 55 56 55 55 55 55 56 55 55 54 52 53 53 52 51 52 51 51 52 52 52 52 53 51 53 52 51 49 49 50 48 49 50 52 55 58 58 61 65 67 67 65
60 59 58 59 58 57 56 57 56 55 56 56 56 56 54 55 55 54 55 55 55 55 56 56 57 55 55 56 55 54 54 53 54 54 52 54 54 52 52 52 54 53 52 52 52 53 52 52 51 51 49 49 46 45 48 50 53 57 58 60 65 66 65
61 61 59 58 57 58 58 57 56 56 57 56 57 56 55 57 55 55 55 54 54 55 55 55 55 56 54 54 53 54 54 56 54 53 52 53 52 51 50 51 53 51 52 53 53 51 52 52 52 50 50 48 47 45 45 46 48 52 58 58 59 63 64
61 60 60 59 58 58 58 57 57 57 56 57 58 56 56 55 56 55 55 54 54 54 54 54 54 53 54 54 53 52 52 52 54 52 52 53 50 50 50 50 50 51 50 50 51 52 51 50 52 51 51 51 48 45 45 44 44 48 53 58 57 59 63
61 61 61 61 60 59 57 58 56 57 57 58 59 59 57 56 55 58 55 54 53 53 53 54 54 53 53 53 52 53 53 52 52 52 52 52 51 51 51 51 50 51 50 50 49 50 51 50 50 51 50 49 49 49 46 46 45 45 51 52 56 57 60
62 62 62 62 60 60 59 58 58 58 57 57 58 57 56 56 56 55 55 54 54 54 53 53 54 54 53 53 53 53 51 52 52 51 53 52 52 52 50 51 49 51 50 50 52 52 51 51 52 52 50 50 50 47 46 47 45 45 51 52 51 55 57
62 62 62 61 61 61 60 59 59 57 58 58 58 58 57 57 56 56 55 56 55 54 53 53 53 53 53 54 54 55 51 52 52 52 53 52 54 51 50 50 50 51 50 50 51 51 51 52 51 50 50 51 49 49 45 47 47 48 47 52 51 53 56
60 62 62 62 61 61 60 60 60 60 59 58 58 57 58 57 57 57 56 57 57 56 55 53 52 52 53 52 52 54 51 53 53 51 52 54 52 51 51 51 51 52 50 50 50 51 52 51 51 51 51 49 50 50 50 49 48 48 47 46 50 54 54
62 61 61 61 61 60 59 58 59 59 60 60 60 60 59 58 58 58 57 57 56 57 57 56 54 54 55 53 52 55 54 52 53 51 50 52 51 53 49 50 52 52 50 50 49 53 51 51 52 52 50 50 48 50 49 50 46 47 46 48 50 52 53
59 59 59 59 59 59 59 59 60 60 59 58 59 60 60 59 59 58 58 58 56 56 57 57 56 56 55 55 54 54 54 53 53 52 51 52 52 51 51 50 50 52 52 50 49 48 49 50 51 51 49 49 49 49 50 49 48 46 45 47 45 52 51
57 58 58 58 59 59 59 58 60 60 58 58 59 58 58 58 58 58 58 58 57 57 57 56 56 56 57 55 55 54 53 53 52 53 54 52 52 52 51 50 50 50 50 51 48 48 49 49 49 49 48 48 48 48 47 48 48 46 44 46 43 49 51
55 55 56 58 59 58 58 58 58 59 58 58 59 59 59 59 59 58 58 57 57 57 58 57 57 56 56 56 56 55 54 54 53 53 54 53 54 53 52 53 51 51 49 50 49 48 48 48 49 49 48 48 48 47 47 47 46 46 44 44 45 43 47
56 56 57 56 56 56 57 57 57 57 57 58 58 57 59 59 60 59 57 57 57 58 58 58 58 58 57 56 55 55 55 55 54 53 53 53 53 53 53 52 51 51 50 51 49 47 46 46 46 46 45 46 46 45 45 45 45 45 45 43 43 44 44
56 56 56 56 55 54 55 56 56 56 56 58 58 56 56 56 57 57 56 56 56 56 56 56 57 57 57 56 55 55 54 54 54 54 54 54 53 53 53 52 51 51 51 49 48 47 47 47 48 45 45 44 44 43 44 43 44 43 43 43 42 42 44
54 55 56 55 54 54 54 54 55 54 56 56 56 56 56 57 57 57 57 56 56 56 55 56 57 57 57 56 55 55 55 55 55 54 53 54 53 53 53 53 52 52 51 50 50 50 51 50 48 46 44 44 42 42 41 42 41 41 41 41 40 39 40
52 53 54 55 53 53 54 54 54 54 53 54 55 55 55 56 56 55 55 56 55 55 56 56 57 57 56 56 56 55 55 55 55 54 53 53 53 53 53 53 52 51 52 54 51 51 51 50 49 47 45 43 41 40 39 39 40 39 39 40 40 40 40
52 52 51 51 51 50 52 53 53 53 53 53 53 53 53 53 54 54 54 54 55 55 55 56 56 53 54 57 55 57 56 56 56 56 55 53 52 53 53 52 54 56 54 52 49 47 45 46 49 48 45 43 42 40 40 40 39 39 40 39 39 38 39
51 51 50 50 50 51 52 52 52 52 53 52 52 52 53 52 53 54 54 54 54 55 56 57 51 47 47 50 56 55 55 55 57 56 56 54 53 53 53 53 54 54 52 50 48 44 44 44 44 44 45 45 45 42 40 41 40 40 42 40 39 37 37
50 50 50 49 50 50 51 52 51 51 52 52 53 52 52 53 53 52 53 53 53 54 55 53 48 46 45 44 49 56 55 55 56 56 56 56 56 56 55 53 53 53 52 52 50 48 45 43 42 42 42 43 42 43 44 43 43 41 39 39 38 38 36
49 49 49 49 49 50 49 50 49 49 50 52 52 51 53 51 52 52 52 52 53 54 54 50 47 46 45 44 43 48 54 54 54 54 55 56 56 55 54 52 52 52 53 53 52 50 49 46 43 42 42 41 41 40 39 39 42 43 40 39 38 37 37
49 49 49 49 47 47 47 49 50 48 48 48 48 49 49 50 50 50 52 52 53 52 53 50 46 45 44 44 42 43 52 53 54 54 54 54 55 54 54 53 52 50 51 52 52 50 50 50 48 45 42 40 41 43 41 40 38 39 41 41 39 39 40
49 49 47 46 45 45 46 46 47 46 45 47 48 49 47 47 49 49 49 51 51 51 48 43 44 44 43 42 42 41 49 51 51 50 50 50 50 51 52 52 52 51 50 51 51 50 48 47 45 44 40 40 41 41 41 40 40 39 39 39 38 38 39
48 47 46 45 47 48 46 48 51 47 45 44 45 45 46 45 45 46 47 47 49 46 39 41 42 43 43 42 42 47 48 48 47 47 48 48 48 48 49 51 50 49 50 51 48 45 46 45 45 44 43 41 40 39 39 42 41 40 40 39 39 39 38
46 46 46 49 50 49 49 51 49 46 47 43 44 44 44 45 45 46 45 47 46 40 39 41 41 41 41 42 45 46 46 47 47 47 47 49 50 50 49 51 52 51 49 45 41 40 42 46 43 43 42 38 37 37 37 40 41 40 40 40 40 40 39
47 46 46 48 46 46 45 45 45 45 50 48 46 44 43 45 41 42 44 45 46 43 39 41 41 41 42 44 46 46 45 46 46 48 49 49 48 47 47 52 51 48 44 42 38 38 39 40 38 37 37 35 35 34 36 36 39 39 40 40 40 39 39
45 45 46 44 44 45 44 46 46 44 44 44 45 41 42 43 41 40 41 43 48 43 39 41 41 41 43 43 46 47 48 48 49 48 48 46 45 44 44 44 44 43 42 40 38 39 39 40 37 36 35 35 36 34 35 34 34 34 35 36 36 37 37
45 45 45 43 43 45 43 45 47 49 44 43 42 38 39 37 37 37 39 38 40 39 40 40 41 42 43 44 45 47 47 47 45 45 46 46 43 43 43 42 41 38 38 38 38 38 38 39 37 36 36 36 36 34 34 34 35 34 33 33 33 33 35
48 45 44 46 45 45 44 45 44 47 45 41 39 38 38 37 38 37 37 37 37 38 40 38 39 41 42 43 43 44 44 44 43 44 43 42 42 40 39 38 38 39 38 38 38 37 38 39 39 38 37 37 35 35 37 33 34 39 33 33 34 34 34
46 48 47 47 47 46 44 44 43 43 41 39 38 38 36 36 36 36 36 36 36 36 41 42 38 40 41 42 42 43 44 43 44 45 44 42 40 38 38 38 37 38 38 38 37 38 38 38 37 40 37 37 37 36 34 35 33 33 33 33 31 31 32
47 48 48 45 46 45 44 44 44 42 40 38 38 37 36 35 35 35 35 35 35 36 36 40 41 40 40 41 41 41 41 41 41 44 43 40 38 38 39 40 39 39 37 37 37 38 38 37 38 36 36 36 36 36 36 33 32 33 32 31 31 31 31
44 45 46 46 44 44 44 43 43 44 41 39 38 37 35 36 35 35 35 35 36 37 36 38 40 41 41 39 39 39 39 40 41 42 41 39 39 40 39 39 39 37 37 37 38 38 37 37 35 36 36 36 36 36 34 32 31 32 31 30 30 31 32

ECMWFFLT1_sfc_temp_027.txt.gz
Temp
56 56 54 54 54 55 54 54 55 55 55 56 57 56 57 58 58 57 57 58 58 58 59 57 56 56 58 58 57 56 57 57 57 58 58 60 58 57 58 56 57 59 59 57 55 56 52 53 55 56 57 57 60 60 61 61 61 61 61 62 63 64 64
56 56 55 55 54 54 54 53 54 54 54 55 55 57 56 58 59 57 57 57 57 57 59 57 56 56 55 54 54 54 54 54 55 56 58 58 57 57 57 57 58 57 56 55 55 55 52 51 52 52 54 54 55 57 57 58 60 60 61 62 63 64 63
56 54 55 53 53 53 53 52 53 54 54 55 54 54 55 56 56 57 57 57 56 57 57 55 55 55 54 53 52 53 53 54 53 54 54 53 54 55 57 57 57 57 54 53 53 53 54 54 53 53 52 52 54 55 56 58 60 60 61 61 61 62 62
56 56 55 53 53 53 53 53 53 53 53 54 54 54 54 55 55 56 56 55 56 58 56 55 54 53 52 52 53 53 53 53 53 53 54 53 53 53 54 55 54 55 54 53 54 52 51 51 50 51 49 53 54 53 58 58 61 62 63 61 61 60 60
57 57 56 55 53 52 51 52 53 53 53 53 53 54 54 54 55 54 54 54 55 54 53 54 54 54 53 53 52 53 52 51 52 53 52 52 52 52 52 52 52 53 53 53 52 52 53 52 51 51 51 51 52 53 57 54 59 62 63 63 64 63 63
57 57 56 54 52 53 51 51 52 52 53 54 54 54 53 53 55 54 54 54 54 55 53 53 52 53 54 53 54 53 52 52 51 52 51 49 50 51 49 49 50 52 51 49 51 51 50 49 50 47 50 50 51 51 52 53 54 56 61 62 63 63 62
58 57 56 56 54 53 53 52 52 52 53 53 52 53 53 53 54 54 54 53 52 52 53 53 53 52 53 53 52 52 52 50 51 51 50 49 49 48 49 51 50 50 49 49 48 50 48 49 47 48 47 47 45 49 48 51 54 56 57 60 62 61 61
60 59 57 56 54 53 52 52 51 52 52 51 52 53 53 53 52 52 53 53 52 53 53 54 55 53 53 53 52 52 51 50 51 51 50 51 52 50 49 49 51 50 49 48 49 51 51 51 50 50 46 48 48 46 46 47 49 54 53 55 61 61 60
61 59 57 57 54 53 53 53 52 52 52 52 51 52 52 53 52 52 53 52 52 53 53 52 52 52 51 52 51 52 52 53 52 51 49 50 49 48 48 48 51 48 48 49 50 49 48 48 50 47 48 45 43 47 43 46 47 50 53 55 54 59 60
59 59 59 57 56 54 53 52 53 53 52 53 52 53 52 52 52 51 52 51 52 52 52 52 52 51 51 53 52 50 51 49 52 50 49 50 47 48 48 48 48 49 48 48 49 49 49 48 48 48 49 49 45 42 42 42 45 46 52 53 54 55 59
60 59 58 58 57 56 53 53 53 53 54 53 53 55 53 52 53 56 51 51 50 51 52 51 50 50 51 50 50 50 50 50 51 49 50 50 48 49 49 49 49 49 48 50 48 48 48 47 48 50 48 47 47 48 43 44 44 43 50 49 53 54 56
60 60 59 59 58 58 56 54 53 55 53 53 54 53 52 52 52 52 52 51 51 51 51 51 51 51 51 50 50 50 49 49 50 50 49 51 50 50 49 49 48 49 48 49 50 50 50 50 48 48 47 49 48 46 44 42 44 45 48 50 49 51 53
61 60 59 59 59 59 59 57 56 54 55 55 54 54 53 53 53 52 52 52 51 51 51 51 50 50 50 51 52 52 50 50 51 50 49 49 52 49 49 49 48 48 48 50 50 50 49 50 49 49 48 48 47 45 44 43 44 47 45 49 48 51 52
59 60 59 59 59 59 59 58 57 57 55 55 54 54 54 54 53 53 52 52 52 51 51 51 50 50 50 50 50 50 49 50 50 49 49 49 50 49 49 49 48 49 48 49 48 49 49 48 49 48 48 47 48 47 47 44 44 45 45 44 46 49 51
57 57 58 57 59 59 57 56 57 55 56 58 56 56 56 55 54 53 52 53 53 53 52 52 51 51 52 50 50 52 51 49 49 50 50 49 49 50 48 48 49 49 47 48 47 49 49 48 50 49 47 48 46 47 45 47 44 44 45 45 46 49 49
57 58 58 59 59 58 57 56 57 57 58 58 56 56 57 56 55 55 55 56 55 54 53 53 51 51 51 52 51 50 50 49 49 49 49 49 49 47 48 48 48 49 49 48 46 46 47 48 49 48 46 46 46 45 46 46 46 44 42 44 43 48 47
56 56 57 58 58 56 56 56 56 57 56 56 56 56 55 56 56 55 57 57 57 55 54 53 52 52 53 53 53 52 50 50 49 49 50 49 49 48 49 48 48 48 48 47 46 46 46 47 47 47 46 45 46 45 44 44 45 44 42 43 41 45 46
55 55 54 55 55 56 56 56 56 57 57 57 57 57 56 56 56 56 56 55 55 55 55 54 53 53 52 51 52 53 52 51 50 51 51 50 52 50 49 50 50 48 47 47 46 46 45 46 46 46 45 45 45 44 45 44 43 43 42 42 42 40 43
54 54 54 54 54 55 55 55 55 55 55 56 56 56 55 56 56 56 55 54 54 55 55 54 53 53 53 52 52 51 51 52 52 51 51 51 51 51 51 50 50 49 49 49 47 46 45 45 45 45 44 44 44 43 42 42 42 41 42 40 40 41 40
53 55 55 55 55 55 56 54 54 55 54 55 55 55 55 57 57 57 57 56 56 55 55 54 54 54 53 53 53 52 51 51 51 52 52 52 51 51 51 51 49 50 50 49 48 46 45 44 46 44 44 43 42 43 42 41 42 41 40 41 38 39 40
54 53 54 54 54 55 55 54 54 54 54 54 54 55 55 56 57 55 56 57 57 56 55 55 55 54 53 53 53 53 53 53 52 51 52 53 53 52 52 51 51 50 51 49 50 48 47 46 44 43 42 42 41 41 41 40 40 39 40 40 38 38 37
53 54 54 54 54 54 54 55 54 53 54 54 55 55 56 57 56 55 54 53 53 53 53 55 56 56 56 55 55 55 54 54 54 53 52 52 52 53 53 52 51 50 52 53 51 50 50 48 46 44 42 41 41 40 39 39 39 38 37 39 39 37 38
53 53 53 54 54 54 54 54 54 53 54 54 54 53 55 55 55 55 54 53 52 52 52 54 55 52 53 55 54 55 54 55 54 54 54 54 53 53 54 53 53 55 54 52 49 46 45 46 48 48 45 42 42 41 39 38 38 38 39 39 38 36 38
51 53 53 53 52 52 53 53 53 52 52 52 53 53 53 54 54 53 53 52 52 52 53 55 50 47 46 49 54 53 54 54 54 55 55 55 54 53 53 53 52 53 52 51 49 45 44 44 44 44 45 45 46 43 40 39 38 37 40 40 37 37 37
50 50 49 50 49 49 49 49 50 52 52 52 52 51 51 52 51 51 51 51 52 52 53 51 48 47 45 44 48 52 52 53 53 53 54 54 54 54 54 53 52 51 50 50 49 48 46 44 43 42 42 42 42 42 43 41 39 37 36 38 36 37 35
48 48 47 48 48 48 48 48 48 47 48 48 48 49 50 49 50 50 51 51 50 51 51 49 46 46 45 44 43 46 52 52 53 53 53 53 53 53 53 52 51 51 52 53 52 50 50 47 43 42 42 42 41 41 41 42 43 40 37 38 38 35 35
46 45 45 44 44 44 46 45 45 44 45 44 44 46 45 46 46 46 47 48 49 48 48 46 42 42 42 42 42 43 48 49 50 51 52 52 53 52 51 51 50 49 50 52 51 50 50 49 47 45 45 43 41 41 40 39 38 39 40 39 37 37 36
46 45 43 43 43 43 44 44 45 43 42 44 45 45 44 45 45 45 45 46 45 46 47 41 40 41 41 41 41 41 45 47 47 47 48 49 48 49 50 51 51 50 51 51 51 50 50 49 47 45 43 40 38 37 37 37 37 36 37 37 36 37 36
45 44 44 42 44 43 43 44 44 44 41 41 40 40 41 41 42 43 43 43 45 45 41 42 42 42 42 41 41 42 42 44 45 44 43 45 45 47 49 50 50 50 51 51 48 44 46 48 47 45 42 38 37 35 37 40 40 41 40 37 35 35 35
45 44 43 44 44 44 45 45 43 41 40 39 40 41 42 43 40 39 42 42 43 42 38 40 41 41 41 40 42 43 42 43 42 42 41 42 43 44 46 46 47 49 49 47 42 41 42 43 43 40 37 34 35 35 36 38 39 39 39 40 39 40 39
46 45 42 45 45 43 43 44 44 43 46 42 42 42 42 39 38 39 41 42 41 41 39 40 41 40 39 41 43 43 42 42 42 42 41 41 41 42 46 52 49 47 44 42 38 39 40 43 42 40 39 36 34 33 33 34 36 37 39 40 39 39 39
43 44 45 44 42 42 42 44 44 40 40 41 40 38 39 39 37 37 37 37 46 39 35 39 42 39 40 42 44 44 44 43 43 40 40 39 39 40 40 43 45 43 42 40 38 39 39 42 42 40 37 34 35 34 33 32 32 33 33 34 33 35 35
44 44 45 42 42 43 42 43 42 40 38 39 39 36 37 36 36 35 34 34 36 36 36 36 38 41 42 42 44 45 45 45 42 40 39 41 40 40 40 41 41 39 39 39 39 38 38 39 40 37 33 33 36 36 32 32 35 34 31 32 32 32 33
45 43 43 44 42 42 41 42 40 40 39 37 37 36 36 35 35 34 34 33 34 35 39 36 37 41 41 42 42 44 42 43 41 41 40 40 40 40 40 40 40 39 38 38 38 38 38 38 38 35 33 34 34 36 34 32 32 38 32 32 32 33 33
46 47 43 43 43 44 41 40 39 40 38 37 37 36 34 34 34 33 33 33 34 33 38 42 37 40 40 41 41 42 42 40 42 41 39 38 37 38 39 40 40 39 37 37 37 37 37 37 38 39 37 37 37 36 34 35 32 32 31 31 30 30 31
44 45 44 43 43 43 40 40 38 39 38 36 36 35 34 33 33 33 33 33 32 33 34 38 40 38 40 40 40 41 41 41 41 43 41 38 37 37 37 38 39 38 37 37 37 37 37 37 38 36 37 36 36 35 36 32 32 31 30 30 30 31 30
44 43 44 42 41 41 40 39 39 40 37 38 36 35 33 34 33 33 33 34 35 34 34 34 38 39 39 39 39 39 39 39 39 40 40 37 36 37 38 38 38 36 37 37 37 37 36 37 35 36 36 36 36 36 34 32 31 31 31 30 30 29 30

ECMWFFLT1_sfc_temp_030.txt.gz
Temp
56 55 53 53 52 54 54 53 55 54 55 55 56 56 57 58 57 57 57 58 58 58 60 58 59 59 59 59 59 60 61 61 62 60 60 60 59 58 60 59 59 58 59 58 56 59 54 54 55 58 59 58 60 58 59 61 62 62 62 63 65 65 64
55 55 54 54 53 53 54 53 54 54 54 54 55 56 56 58 59 57 57 57 57 58 58 57 56 57 56 56 56 57 58 57 58 60 61 59 59 58 58 58 58 57 56 56 56 57 55 54 52 54 56 57 59 58 57 60 61 62 63 63 64 65 64
55 53 53 52 52 52 53 52 53 54 53 54 54 55 55 56 56 57 56 56 56 58 58 55 55 55 54 54 54 55 55 55 55 57 58 57 58 59 59 57 57 57 56 56 55 55 56 57 55 55 55 55 54 57 58 56 59 60 62 63 63 63 62
54 54 54 53 52 53 53 51 52 52 52 53 53 55 54 55 56 57 55 56 57 58 56 55 54 54 53 53 54 54 54 54 54 54 54 55 56 57 57 57 58 57 55 55 55 55 56 55 55 55 55 56 57 57 59 59 61 63 64 61 60 59 60
56 55 54 53 52 52 52 52 51 52 52 53 52 53 54 54 55 54 55 54 55 54 54 54 54 54 54 54 54 54 53 53 54 54 53 53 54 53 53 54 54 55 55 56 55 54 57 56 55 53 53 54 57 57 59 57 62 63 63 63 63 63 63
56 55 54 53 51 52 51 51 52 52 51 54 52 54 54 54 55 54 54 54 54 54 53 53 53 53 54 54 54 53 52 53 52 53 53 51 53 54 53 52 53 54 53 52 53 53 52 52 54 52 53 52 54 56 57 56 57 61 62 62 63 63 63
56 56 55 54 52 53 52 51 51 52 51 51 51 52 51 52 53 54 54 53 53 53 53 53 53 53 53 54 54 53 53 52 52 52 52 51 51 51 53 54 53 53 52 52 52 52 52 53 52 52 51 51 50 53 54 55 58 59 61 62 63 63 62
57 56 55 56 54 53 51 51 50 49 51 51 52 52 53 51 52 52 53 52 52 53 53 53 54 53 54 54 54 52 52 52 53 53 52 53 53 52 52 53 53 52 52 52 53 52 53 54 54 51 49 53 52 51 52 54 55 56 56 60 62 62 61
58 57 57 55 54 53 52 52 51 50 50 50 50 52 51 52 51 51 53 52 52 52 52 52 52 53 52 53 53 53 53 54 52 52 51 52 51 51 52 52 53 51 51 52 53 52 53 52 52 51 51 49 51 51 49 51 52 55 57 58 61 61 61
57 57 57 55 54 53 53 52 53 51 50 51 52 53 51 51 50 52 51 51 51 51 52 52 52 52 52 53 52 52 52 52 53 51 51 52 51 51 51 52 52 51 51 51 52 52 52 51 51 52 53 54 49 50 47 48 50 51 56 56 56 59 60
58 57 57 56 55 54 54 54 53 53 53 53 53 55 52 52 52 54 50 51 51 52 51 51 51 51 52 51 51 52 51 52 52 51 52 52 51 51 51 52 52 52 51 52 51 51 51 51 52 52 51 51 54 53 48 48 50 50 54 54 55 55 58
58 58 58 57 56 56 56 55 53 54 53 53 55 53 52 52 52 51 51 51 52 52 51 52 52 51 51 51 52 51 50 52 52 51 51 53 52 53 52 52 51 52 51 51 51 51 51 52 51 52 51 52 51 53 51 48 50 52 52 52 54 55 55
58 59 59 58 57 57 58 57 55 54 55 55 53 53 52 52 52 52 52 52 52 52 52 52 51 51 50 51 51 51 50 51 52 52 51 51 52 51 52 52 52 52 51 52 52 51 51 51 51 52 52 52 50 49 50 49 49 51 51 52 52 54 54
58 58 57 57 57 58 58 58 56 55 54 54 54 53 53 52 52 52 52 53 53 52 52 52 51 51 51 51 51 50 50 51 52 51 52 51 51 51 52 52 51 51 51 52 51 51 51 51 51 51 51 51 51 50 52 49 49 50 51 49 51 52 53
57 57 56 56 56 56 57 56 55 54 54 53 53 53 53 53 53 53 53 53 52 52 52 53 52 52 52 51 52 52 50 51 51 51 51 52 52 51 51 52 51 50 50 51 51 52 52 52 52 52 51 51 51 50 49 50 49 49 49 49 51 52 52
56 56 56 55 56 56 56 56 56 55 54 54 54 54 54 54 54 54 54 54 54 54 54 53 52 52 52 52 52 52 52 51 52 52 52 51 51 50 51 52 52 51 51 51 50 50 50 51 52 52 50 50 50 49 50 50 48 47 49 49 47 50 49
55 56 56 55 55 55 54 55 56 56 55 55 54 54 55 55 55 55 55 55 55 55 55 54 53 53 53 53 53 53 52 52 52 52 53 52 51 51 52 52 51 50 50 50 50 49 49 50 50 50 49 49 49 48 48 49 50 48 47 47 47 48 49
55 55 55 54 55 55 55 55 56 57 56 55 55 55 55 56 56 56 56 56 55 55 55 55 55 53 53 53 53 53 53 52 52 53 52 52 53 52 52 54 53 51 50 51 49 50 49 49 50 50 49 49 48 48 47 47 48 48 47 47 47 46 47
54 55 55 55 55 55 56 56 56 56 57 56 55 55 56 56 56 56 57 56 55 56 56 56 55 55 55 54 53 53 53 53 53 53 53 52 53 53 53 53 52 52 51 52 50 49 48 48 48 49 48 48 48 46 46 45 46 46 47 46 47 46 46
53 54 54 55 55 55 55 55 55 55 56 56 55 55 55 56 55 56 57 56 56 56 56 55 54 54 55 55 54 55 54 53 53 53 53 53 53 53 53 53 53 52 53 52 51 49 48 48 49 48 48 47 46 46 45 45 46 46 46 46 44 45 46
53 53 54 54 54 54 54 54 55 55 55 55 55 56 55 55 55 55 55 56 56 56 55 55 55 55 55 55 54 54 54 54 54 54 53 53 53 54 54 54 54 53 54 53 52 50 51 50 49 49 47 46 45 45 45 44 45 46 46 45 45 45 44
52 52 52 53 53 53 53 54 54 55 55 55 56 56 55 55 55 55 54 54 55 55 55 55 56 55 55 56 55 55 54 54 54 54 53 53 53 54 55 55 54 54 54 54 51 51 51 50 50 49 47 46 45 45 44 45 45 45 44 45 45 44 45
52 51 51 52 52 52 52 53 53 53 53 53 53 53 54 54 53 54 54 54 54 54 54 55 55 51 52 56 54 55 54 54 54 53 53 53 53 53 55 55 55 56 53 52 49 46 45 47 49 51 49 47 46 45 44 44 44 45 46 46 45 45 46
50 51 50 51 51 51 52 53 53 53 52 52 52 53 53 53 53 53 53 53 53 53 54 55 50 46 45 46 53 54 54 53 53 53 54 54 54 53 54 55 54 54 53 51 49 44 44 44 44 45 45 46 48 48 45 43 44 44 47 46 44 44 45
49 50 50 50 50 50 50 51 51 51 51 51 52 51 51 52 52 52 52 52 52 53 54 51 46 45 44 43 46 53 53 53 53 53 53 54 55 54 54 54 53 53 52 52 51 48 46 43 42 42 42 42 42 43 43 46 46 44 44 45 44 45 43
48 48 49 49 48 48 48 49 49 49 51 52 51 51 52 51 51 51 51 52 52 53 53 47 42 42 41 42 41 47 53 53 53 53 53 54 54 54 53 53 52 51 52 52 52 51 51 48 43 42 42 41 41 39 38 38 41 47 45 45 45 43 43
48 47 47 47 47 46 47 47 45 45 46 47 48 48 50 50 50 50 50 51 51 50 49 46 41 41 40 40 40 42 50 51 52 52 52 52 53 53 53 53 52 50 51 52 51 51 52 50 47 47 47 46 46 43 40 39 38 39 43 45 45 45 43
46 45 45 45 44 44 44 42 44 44 45 45 45 45 45 46 47 47 47 47 47 48 48 41 39 39 39 39 39 40 48 48 48 48 49 49 50 51 51 51 51 51 50 51 51 51 51 49 48 46 45 44 43 42 43 43 43 43 44 43 44 43 43
45 44 43 43 44 44 44 46 46 43 43 42 42 42 42 43 42 42 41 42 43 43 43 39 40 40 40 39 39 44 45 46 46 45 44 45 47 48 49 50 50 50 51 51 48 44 47 50 48 46 44 42 41 42 42 41 41 42 44 43 43 43 43
47 46 44 45 45 45 45 43 43 42 44 42 43 44 43 41 39 40 41 42 43 42 41 40 39 40 40 38 41 44 44 44 44 43 43 43 44 46 48 49 49 49 48 47 43 41 42 45 48 47 44 42 41 41 41 42 40 39 39 39 38 39 39
47 47 46 48 48 47 45 45 45 44 46 44 45 44 42 39 37 39 41 42 44 43 41 40 40 40 39 40 43 44 44 44 42 42 42 42 42 43 47 50 48 46 44 44 39 39 41 46 46 44 43 42 42 41 41 39 39 39 38 39 38 38 38
45 46 46 47 46 46 46 47 45 44 44 45 46 43 42 40 38 38 38 40 45 40 39 40 40 39 39 40 43 44 45 44 43 41 42 41 41 42 43 45 45 45 45 42 38 39 40 44 45 44 44 43 41 41 41 38 39 39 39 39 38 39 39
45 46 47 45 43 44 44 43 43 43 40 41 41 39 40 39 38 37 36 37 38 38 40 39 40 40 40 40 42 45 45 45 43 41 42 43 42 42 43 44 42 38 38 38 38 38 39 41 44 42 43 42 41 41 40 39 40 39 37 37 37 37 37
49 46 46 46 45 44 44 43 42 43 42 40 40 39 38 38 38 36 36 36 36 38 41 38 39 40 40 41 41 43 45 44 43 42 41 41 41 41 41 42 42 39 38 38 38 38 38 38 39 41 41 41 41 41 37 39 38 38 37 38 38 37 38
48 50 48 46 46 46 43 42 43 42 40 41 40 38 38 38 37 36 35 36 37 35 40 42 39 40 40 41 41 41 44 43 43 42 40 40 40 40 40 41 41 39 38 38 38 38 38 38 39 42 39 36 35 35 39 39 37 37 37 37 37 37 37
46 48 47 48 49 49 45 43 43 43 42 41 41 40 38 37 38 37 36 36 35 35 36 40 40 40 39 39 40 40 40 42 40 45 43 41 41 40 41 40 41 39 37 37 37 37 37 37 39 39 36 35 35 35 37 38 37 36 37 37 36 37 37
46 46 47 46 47 48 44 43 42 43 42 42 40 38 36 36 37 37 38 38 37 36 36 37 39 39 39 38 38 39 39 39 40 44 44 42 41 41 40 41 40 37 37 37 36 36 36 37 37 35 36 35 35 36 38 38 37 36 36 36 36 36 36

ECMWFFLT1_sfc_temp_033.txt.gz
Temp
69 66 66 66 66 67 68 67 69 68 68 69 69 70 70 71 70 69 69 69 70 71 71 70 67 66 66 66 67 69 70 69 68 66 65 65 63 63 66 65 64 64 67 67 68 67 65 60 61 65 67 65 65 65 66 66 67 69 69 69 72 71 70
68 67 67 68 67 67 67 67 68 69 68 67 69 69 69 70 70 70 70 71 70 71 72 71 68 69 68 67 68 69 69 68 68 68 66 65 65 64 64 62 65 65 63 65 66 68 66 63 62 63 63 66 66 65 65 66 67 67 66 67 69 69 68
67 66 68 66 66 68 67 66 67 68 69 68 67 68 68 69 69 69 70 69 69 70 70 70 68 68 67 68 68 69 68 68 68 69 67 66 66 65 66 64 64 63 63 64 65 67 68 68 64 65 65 64 61 63 66 66 67 68 69 68 68 69 68
66 66 66 65 66 67 67 66 67 67 68 68 68 67 67 68 68 69 69 69 69 68 69 70 69 70 68 67 67 67 67 67 68 67 66 66 65 65 66 67 68 67 66 64 64 65 66 65 64 64 66 68 65 61 64 68 68 70 71 70 70 69 69
67 67 67 65 67 67 67 66 66 67 67 67 67 68 66 67 67 67 67 68 68 68 68 69 68 69 68 68 68 68 67 66 66 67 66 65 65 67 67 69 68 69 68 68 69 69 68 67 66 64 65 68 68 67 67 68 71 71 72 72 72 71 71
68 68 68 66 67 67 67 66 67 67 67 67 67 67 66 66 67 68 68 68 68 67 67 68 67 67 68 69 68 67 67 67 67 67 67 66 67 67 67 67 69 69 68 68 69 69 70 70 68 65 67 69 64 65 68 69 67 71 72 72 73 73 73
68 68 68 67 67 68 68 68 68 68 68 67 67 66 66 67 67 66 66 66 66 66 66 65 66 66 67 70 69 68 66 66 66 66 65 65 65 65 67 68 68 68 67 68 68 69 68 68 68 66 64 66 67 66 69 69 71 69 69 72 73 73 72
68 68 68 67 66 66 67 67 67 68 68 68 68 66 67 66 66 66 66 66 65 65 66 65 65 66 66 68 68 65 65 66 66 66 66 65 64 65 66 67 66 67 67 69 69 69 70 69 69 68 66 61 62 65 64 68 68 67 67 69 72 71 71
67 67 66 66 66 67 66 68 67 67 68 67 67 67 66 67 66 66 66 66 66 66 66 66 66 67 66 66 67 66 65 66 65 65 65 65 64 64 65 66 67 67 68 69 70 68 70 69 69 69 69 68 63 60 63 63 65 64 68 68 69 70 70
65 66 66 65 65 65 64 65 67 67 67 68 67 68 67 67 67 68 67 66 66 66 66 66 66 66 66 66 66 65 65 65 66 65 65 65 65 65 66 65 66 67 67 67 68 68 68 68 69 69 71 70 69 65 62 61 61 62 64 67 66 66 69
66 66 65 65 65 63 62 63 64 64 66 67 68 67 68 67 67 67 68 67 66 67 67 67 67 67 67 67 66 66 65 65 65 65 65 66 65 66 66 67 67 67 66 68 67 66 67 67 68 69 69 69 71 68 66 62 59 63 62 64 65 65 67
66 66 66 66 66 64 61 61 63 65 66 66 68 68 68 68 68 67 67 67 67 67 67 67 67 67 68 67 66 66 65 67 67 65 65 65 65 66 66 65 66 66 66 65 66 66 66 68 68 70 69 69 68 68 67 66 60 60 64 61 63 66 66
67 66 66 66 66 66 64 63 64 65 66 68 68 68 69 68 67 67 67 67 67 67 67 66 67 67 67 67 67 67 66 67 67 66 66 66 67 67 66 66 66 66 65 67 66 66 66 66 67 68 68 68 67 67 68 67 63 58 62 62 63 64 65
66 66 66 66 66 67 66 65 65 65 66 66 67 67 68 68 68 67 67 67 68 67 66 66 66 67 67 67 67 66 66 67 67 67 67 65 66 67 68 67 66 64 65 66 66 66 67 67 67 67 68 68 67 67 67 65 62 58 59 62 63 63 63
67 67 66 65 66 68 66 65 64 65 65 66 67 68 69 67 67 67 68 68 67 67 67 66 66 66 67 66 66 65 66 67 67 67 66 67 66 66 66 67 66 65 66 66 65 69 69 68 69 69 68 68 68 65 66 66 64 62 58 61 62 64 63
67 66 65 66 66 67 66 65 66 66 66 66 66 68 68 68 68 68 68 68 69 68 67 67 66 66 65 65 66 65 65 66 66 66 66 66 68 67 66 66 65 65 64 65 64 65 65 67 69 68 65 67 66 65 67 68 65 61 60 59 61 63 61
66 66 65 65 65 66 67 66 66 66 67 67 66 67 68 69 68 68 68 68 68 68 68 67 66 67 66 66 65 65 65 64 65 67 67 68 68 67 67 66 65 65 65 64 64 64 65 65 65 66 65 64 64 64 64 64 66 64 62 60 59 63 62
64 65 65 65 65 66 66 66 66 67 67 67 67 65 64 67 67 68 66 68 67 67 67 67 67 67 66 64 63 63 63 63 63 63 65 67 65 67 67 67 66 66 65 65 63 64 65 63 66 65 65 65 65 63 62 64 65 65 63 61 58 60 61
64 65 65 65 65 66 66 66 66 66 68 68 66 64 63 61 63 66 67 67 67 68 68 67 67 67 67 65 63 61 60 61 62 62 62 61 65 66 66 67 67 66 66 65 64 64 64 63 64 64 64 65 65 63 61 62 63 63 63 62 61 59 60
65 65 65 65 66 66 66 66 66 67 67 67 66 64 61 61 62 65 67 66 65 64 64 65 65 64 64 63 62 61 62 62 61 60 60 62 63 65 66 67 65 65 65 66 64 63 62 61 61 62 62 61 63 62 61 62 63 61 61 60 60 60 60
65 65 65 65 65 65 66 65 65 65 65 65 65 65 65 64 63 64 65 66 65 64 63 65 66 67 66 65 64 64 64 63 63 61 60 62 63 63 64 65 64 63 64 65 65 64 63 62 62 62 61 61 61 61 61 60 61 61 61 60 60 59 60
64 64 64 64 63 63 63 63 63 64 64 65 65 66 66 66 64 63 63 64 64 64 64 65 66 66 66 65 65 64 65 65 64 64 64 65 65 65 66 66 65 63 60 58 55 56 57 57 62 60 59 60 61 61 61 61 61 61 61 61 59 60 60
63 63 62 62 63 62 63 62 62 63 63 64 65 65 66 66 66 64 63 63 62 61 62 63 60 53 55 65 65 64 63 64 64 64 64 65 65 65 66 66 64 58 55 54 51 48 48 49 53 60 60 59 59 60 60 60 60 60 60 60 59 59 59
63 63 63 63 62 62 63 62 62 63 64 63 62 62 63 64 64 65 65 64 63 63 63 64 50 46 45 46 60 64 64 64 64 64 64 64 64 65 66 66 66 59 56 53 54 44 45 45 46 48 49 52 55 61 60 57 57 57 58 59 59 59 58
63 63 63 64 64 64 63 63 64 64 63 62 63 63 62 63 64 63 63 64 64 64 64 53 46 45 44 42 47 62 64 64 63 64 65 65 65 65 65 65 64 63 63 62 61 56 48 44 43 43 43 43 41 40 45 56 56 53 54 57 58 58 57
63 63 63 63 63 63 63 63 63 62 62 62 62 61 63 62 62 63 63 64 63 63 65 46 41 41 42 41 40 50 66 65 64 64 64 64 64 64 64 63 62 62 62 54 58 58 56 52 43 41 41 41 40 40 38 38 42 53 57 56 56 56 57
63 62 62 62 62 62 61 61 61 62 62 59 57 57 56 57 59 60 61 62 62 61 62 44 42 41 41 39 39 43 63 64 65 65 64 63 63 63 64 63 64 63 62 61 61 59 59 57 54 53 54 56 53 46 41 40 40 41 48 55 55 56 56
62 61 61 61 61 61 60 59 59 58 57 57 58 57 57 58 58 58 57 57 59 57 55 39 40 39 39 39 38 43 60 60 61 62 62 61 61 61 63 62 62 63 62 62 61 59 59 58 57 55 54 52 51 51 51 53 54 56 56 56 57 56 55
58 59 61 61 61 61 60 60 60 59 60 60 61 61 61 62 60 57 55 55 56 56 52 38 39 40 39 38 39 54 57 58 60 61 60 59 60 61 61 61 62 62 61 61 51 47 53 59 58 56 53 51 50 50 49 44 40 42 49 53 54 54 54
58 58 58 57 56 59 60 60 60 61 62 62 62 62 60 58 56 55 53 53 56 57 55 44 38 39 39 38 46 60 60 62 61 59 58 58 60 60 60 61 61 61 60 60 46 42 44 50 58 56 54 53 52 53 50 47 42 39 38 38 37 37 37
61 59 58 60 58 57 57 57 56 56 57 57 60 60 58 56 55 56 57 58 59 61 58 45 38 40 38 38 50 62 63 62 59 58 57 57 59 59 54 48 55 60 58 56 39 41 41 53 59 57 55 51 49 47 46 46 46 44 38 38 38 37 38
61 60 60 60 59 58 58 59 59 58 60 61 60 59 60 60 58 57 56 55 49 56 59 50 39 39 38 39 53 63 63 63 59 58 58 56 57 58 55 49 44 50 53 45 38 40 43 53 58 56 54 53 51 49 47 48 48 48 49 49 50 49 46
61 61 62 59 58 57 58 60 59 59 60 63 61 60 59 60 58 56 54 54 53 54 56 56 48 38 40 40 45 62 63 62 59 57 59 58 57 56 56 54 47 38 38 38 38 38 40 44 55 54 54 52 49 46 46 47 48 50 50 50 51 50 50
60 61 62 61 58 57 57 59 58 58 58 58 58 57 56 55 54 53 53 52 54 53 53 55 50 38 40 41 41 49 63 62 60 59 58 58 58 56 56 54 53 41 38 38 39 38 39 40 44 53 53 52 49 47 47 50 46 41 49 49 50 50 51
58 59 59 59 58 57 56 57 56 56 56 55 54 54 52 52 52 52 51 51 52 53 51 46 55 41 39 40 41 43 59 60 60 59 57 57 57 56 55 55 53 42 37 38 38 38 38 39 41 50 45 37 35 37 48 49 50 51 51 50 50 50 50
56 57 58 58 59 61 59 59 58 57 55 54 54 54 53 52 52 52 52 52 52 53 53 52 42 49 39 40 39 42 45 51 44 59 59 57 56 54 55 52 47 38 38 38 38 38 38 38 41 43 35 35 35 35 42 51 49 49 49 49 48 48 49
57 57 57 58 58 59 59 58 58 57 58 58 57 56 56 56 57 57 56 53 51 52 51 54 44 42 44 38 39 39 40 41 44 57 58 57 55 54 54 52 46 37 37 37 37 37 37 40 42 35 36 35 36 40 50 49 49 48 46 47 47 47 48

ECMWFFLT1_sfc_temp_036.txt.gz
Temp
75 73 74 75 76 76 76 76 77 77 78 78 77 78 78 78 77 77 76 76 76 77 78 77 75 75 75 76 75 75 75 75 73 71 70 71 69 69 71 69 70 70 74 73 72 67 60 59 66 72 73 72 72 72 71 71 70 71 69 66 66 67 68
75 74 75 75 75 75 74 76 76 78 77 76 78 77 78 78 78 77 76 76 75 76 78 77 76 76 74 73 72 73 72 73 74 73 72 72 72 72 71 70 71 71 72 72 73 73 62 67 68 69 68 71 71 71 72 71 71 71 71 71 72 72 72
75 75 75 74 74 74 73 73 75 76 76 76 76 77 77 78 77 77 77 75 75 76 76 76 76 74 74 73 73 73 72 72 73 73 72 73 73 73 73 71 70 71 72 72 72 73 73 74 70 70 71 69 66 69 73 73 73 73 75 74 73 76 75
73 73 72 72 74 73 73 73 74 75 76 75 75 75 75 76 75 76 76 76 76 75 76 77 75 76 75 74 74 73 73 72 72 72 71 71 72 71 71 73 73 73 71 70 71 72 72 71 72 70 72 73 70 66 70 73 75 77 77 74 73 73 73
74 73 72 72 73 73 73 73 74 75 74 75 75 75 74 75 75 75 75 75 75 75 75 75 76 76 76 76 75 75 74 73 73 72 72 71 71 72 71 72 73 74 75 75 75 75 74 72 72 71 72 71 71 72 73 73 76 77 77 77 78 76 74
75 74 74 73 74 73 74 73 73 74 74 74 74 73 73 73 75 73 74 74 74 74 74 75 75 75 76 76 75 74 74 74 74 73 73 72 72 72 72 74 76 76 75 76 76 76 76 75 74 72 75 75 68 68 72 74 72 77 78 78 79 79 79
75 75 75 74 74 75 75 74 74 74 74 73 73 73 74 75 74 73 73 73 74 74 74 73 74 74 75 77 75 73 73 73 73 73 72 72 72 73 75 75 75 75 74 75 75 75 74 73 72 71 71 73 73 74 76 77 77 75 76 79 79 79 78
75 76 76 75 75 74 75 74 75 75 74 74 74 74 74 74 73 74 74 74 73 73 73 73 74 74 74 76 75 73 73 73 73 73 72 71 71 72 72 74 74 74 74 77 76 76 78 76 74 73 73 68 69 72 71 76 76 74 73 76 78 78 77
76 76 76 75 75 75 74 75 74 74 75 75 74 74 74 74 74 74 74 74 74 74 74 74 74 75 74 74 74 73 72 75 72 72 72 72 71 71 72 73 74 74 75 76 77 75 77 76 76 76 74 73 69 66 70 69 71 71 76 74 75 76 77
74 74 74 74 73 74 74 75 75 75 74 75 74 74 74 75 74 75 74 74 73 74 74 74 74 74 74 74 73 72 72 73 72 72 72 72 72 72 72 72 74 74 74 74 75 75 75 75 77 77 78 75 74 70 67 66 67 68 71 75 73 73 76
74 74 74 74 74 73 74 74 74 74 74 74 75 74 74 74 74 74 74 73 73 74 73 74 75 74 74 74 73 73 73 73 72 72 73 73 72 72 72 73 74 74 73 74 74 73 74 74 75 76 76 77 76 73 72 68 66 70 69 72 74 73 75
74 75 75 75 74 74 73 72 71 72 73 74 75 74 74 74 74 74 74 74 74 73 74 73 74 74 74 73 73 73 73 74 73 72 72 72 72 72 72 71 73 72 73 72 73 74 74 75 76 77 76 76 75 73 73 72 66 66 71 67 70 74 74
76 75 75 74 74 74 73 72 72 72 73 76 75 75 75 75 74 74 74 74 73 74 74 74 74 74 74 73 74 74 73 73 73 73 73 74 75 73 72 72 72 72 73 74 74 73 74 74 74 76 76 75 74 74 74 73 68 64 69 70 70 72 73
74 76 75 75 75 73 73 73 73 73 75 75 75 75 75 76 76 75 75 75 75 74 73 73 74 74 74 73 73 73 73 74 74 74 73 71 74 73 74 73 72 72 73 72 73 74 75 75 75 75 76 76 74 74 74 71 68 65 66 70 70 72 72
74 75 74 74 74 74 74 73 73 74 73 74 76 76 77 76 76 76 76 76 75 75 74 74 74 74 74 72 71 72 72 73 73 72 72 72 72 72 71 73 73 72 73 73 72 77 77 76 77 77 76 75 75 73 75 73 70 68 64 67 69 73 71
74 74 73 74 74 75 74 73 74 73 74 74 76 76 76 75 76 76 76 75 76 75 75 75 74 73 73 73 73 71 71 72 71 71 71 72 74 74 71 71 72 71 71 71 71 72 73 75 77 76 73 75 73 73 75 75 72 67 66 67 69 71 70
73 73 72 74 74 74 74 74 74 74 75 75 75 75 76 77 76 76 75 76 76 75 75 74 74 75 74 74 73 72 72 71 71 71 71 73 74 73 72 71 71 71 71 70 71 72 73 73 73 74 72 72 72 71 71 72 73 70 69 66 68 73 71
72 71 72 73 73 74 74 74 75 76 75 74 76 75 75 77 76 76 75 76 76 76 76 76 75 74 73 73 73 72 73 73 71 71 70 70 68 70 71 71 72 72 71 70 70 71 72 70 75 73 73 74 73 71 71 72 72 72 70 67 66 69 70
71 71 71 72 73 74 74 74 75 75 76 75 75 75 75 76 76 76 76 76 76 76 77 76 76 75 75 73 73 72 72 72 71 71 70 70 69 69 68 69 70 71 70 69 70 70 70 70 71 71 71 73 74 71 69 70 71 70 71 69 68 66 68
71 72 71 71 72 73 74 74 75 75 76 76 75 75 75 76 75 75 76 75 76 76 75 75 75 74 74 74 73 73 70 70 70 70 71 71 71 70 69 68 68 67 66 68 66 65 66 67 67 67 68 67 71 69 68 70 71 69 69 68 68 68 67
71 72 72 73 72 72 73 73 74 76 76 75 75 76 76 75 75 76 76 75 76 75 74 74 75 75 75 74 72 72 72 70 71 71 70 72 71 71 70 70 70 70 69 67 67 67 65 63 61 60 65 67 66 67 67 67 68 68 68 68 68 67 68
71 71 72 72 71 69 69 72 74 75 75 75 74 76 76 76 75 75 75 74 74 73 72 72 74 73 74 73 73 71 71 72 71 71 71 71 71 71 71 70 69 69 68 62 58 60 61 60 65 64 64 64 65 66 66 68 67 67 67 67 67 68 67
71 72 72 71 72 72 72 72 72 73 73 74 74 75 75 75 75 74 74 74 74 72 72 73 64 56 59 72 72 72 70 70 71 71 70 71 71 70 71 71 70 63 59 56 54 50 49 50 55 63 67 67 66 65 65 65 66 67 66 66 66 65 64
70 70 71 71 71 71 72 71 71 72 72 72 72 73 73 73 73 73 74 73 72 71 70 70 48 47 47 48 66 71 71 70 71 71 71 70 70 70 71 72 72 64 61 56 58 46 47 46 48 49 54 52 54 62 62 62 64 65 65 64 64 63 62
71 70 70 70 71 71 71 71 71 71 71 71 71 71 69 68 68 69 69 71 69 70 71 51 42 43 42 43 49 68 71 70 70 71 71 71 71 71 70 70 70 68 68 68 66 62 52 45 45 46 45 44 41 38 43 57 62 62 61 62 60 60 60
71 70 71 71 70 70 70 70 70 69 68 64 63 62 64 64 64 66 66 67 66 65 69 44 43 41 43 41 42 53 74 72 71 71 71 71 71 71 70 69 69 68 68 58 63 66 64 58 45 41 42 41 41 41 40 39 43 58 63 59 57 58 61
71 71 70 70 70 70 70 69 69 68 64 63 63 62 62 60 61 63 63 65 66 65 66 44 42 40 41 40 40 48 73 71 71 72 71 71 70 70 70 70 70 69 67 64 67 67 66 62 59 58 59 61 60 49 42 42 42 44 54 60 60 60 61
71 71 71 70 70 70 69 68 67 66 66 65 64 63 61 60 60 61 63 65 66 66 61 40 41 39 39 39 38 49 70 70 71 71 70 69 69 68 69 69 69 70 70 67 68 66 65 63 62 61 61 60 60 60 60 59 59 59 59 59 61 62 62
70 70 70 70 70 70 69 69 68 68 67 67 66 66 65 65 63 62 62 63 63 65 58 38 39 39 39 40 40 64 70 70 70 70 70 69 69 70 69 69 69 69 69 69 54 49 57 65 64 62 61 61 60 59 55 45 40 42 51 58 59 59 58
71 71 70 70 70 70 69 69 69 70 68 68 67 67 66 66 66 65 65 65 64 66 63 44 38 38 39 38 48 70 70 71 70 68 68 68 69 67 66 66 69 69 68 66 49 46 47 54 64 63 61 60 59 60 56 52 43 39 39 39 37 37 37
71 70 71 70 70 70 70 70 70 70 70 69 68 69 69 69 69 70 69 69 70 69 67 48 36 40 38 39 49 69 71 70 68 68 67 67 68 65 58 44 55 67 64 61 40 44 45 57 64 63 62 61 60 60 57 55 55 50 38 39 38 38 39
69 69 70 70 69 69 69 69 70 70 71 71 69 70 70 70 69 70 69 68 56 65 67 54 38 39 38 40 50 69 70 72 67 67 67 66 66 66 62 53 43 52 57 49 38 43 43 53 66 64 64 62 60 59 58 57 56 55 55 54 54 52 50
68 68 69 69 69 69 70 70 69 69 70 72 71 71 70 70 68 67 66 66 66 68 67 65 53 37 39 39 40 61 71 69 67 66 67 67 65 64 63 60 50 38 38 38 39 39 41 44 63 64 63 61 59 56 57 57 56 57 57 57 58 58 57
66 66 68 68 69 69 70 69 69 69 69 71 70 69 68 68 67 66 66 66 66 66 66 65 54 37 40 40 41 45 72 69 68 68 67 67 66 64 64 62 58 41 38 39 39 39 41 42 47 61 60 59 55 52 53 58 51 43 55 56 56 56 57
65 65 66 67 66 67 69 69 69 68 70 70 68 67 67 68 67 67 67 66 66 65 58 52 64 41 39 40 42 39 62 69 68 69 66 67 66 65 63 61 58 44 37 39 39 39 40 42 43 58 49 39 37 41 55 56 57 57 57 57 58 58 58
64 64 64 65 65 65 67 68 68 68 67 67 66 65 64 65 65 65 65 65 65 64 62 58 47 54 39 40 39 43 44 59 47 66 66 65 65 63 63 58 50 38 38 38 39 39 40 41 45 46 36 38 39 36 43 58 57 56 57 57 56 56 56
64 64 65 65 64 65 65 67 68 67 67 66 66 64 63 63 64 64 63 62 62 62 61 60 46 45 47 37 40 42 43 45 47 64 66 66 65 62 60 57 48 37 38 38 38 39 39 43 46 36 37 36 36 38 55 57 55 56 53 54 54 55 55

ECMWFFLT1_sfc_temp_039.txt.gz
Temp
77 75 76 77 78 78 78 77 78 78 80 80 79 80 79 79 78 77 78 78 78 79 79 78 76 76 77 77 76 76 75 73 72 71 70 69 69 69 72 71 71 71 72 70 71 67 66 63 66 71 72 72 73 72 72 66 66 68 68 66 68 67 67
77 77 78 78 77 77 76 77 78 79 79 79 80 79 80 80 79 78 77 76 76 78 79 79 77 77 75 74 73 74 73 74 74 72 71 68 71 68 70 70 71 70 70 71 70 70 67 65 65 65 66 71 71 69 71 71 69 71 72 71 70 67 68
76 77 78 76 76 76 75 75 76 76 77 77 78 79 78 80 79 79 78 77 77 78 78 78 77 75 75 75 74 74 73 73 74 73 71 72 71 70 68 68 67 69 71 72 73 69 70 68 63 60 64 65 65 70 72 73 75 76 76 75 74 73 71
75 75 74 74 75 75 74 75 76 76 77 76 76 76 77 77 78 79 78 77 77 77 78 78 77 77 76 75 75 75 74 73 73 72 72 72 73 72 72 70 69 67 65 65 65 67 64 62 60 61 66 71 70 67 71 76 77 78 77 76 75 75 74
75 75 74 73 74 74 75 75 76 76 75 76 76 75 75 76 76 76 77 76 76 76 76 77 78 78 77 77 76 75 74 74 74 73 72 71 72 73 72 73 72 71 70 69 68 69 66 69 67 69 72 74 74 74 75 75 79 79 79 78 78 76 75
76 76 75 75 75 75 75 75 75 75 75 74 75 74 74 75 76 75 75 75 75 75 76 77 76 77 77 76 76 75 74 74 73 73 72 72 72 72 73 75 76 75 75 75 75 70 67 73 70 71 74 75 69 71 75 76 75 79 80 80 81 79 78
75 76 76 76 76 76 77 75 76 75 75 74 74 74 75 76 76 75 75 75 76 76 75 75 75 77 78 78 76 75 74 74 74 73 73 73 73 74 75 75 75 76 76 77 77 76 73 73 72 71 71 72 73 74 77 78 78 76 77 79 80 79 78
76 76 77 77 76 76 77 76 76 77 75 75 75 75 76 75 75 75 75 75 75 75 75 75 76 76 76 77 76 74 74 74 74 73 73 73 72 73 74 75 75 76 76 78 77 76 79 75 74 74 73 69 70 74 73 77 76 75 74 77 79 78 76
76 76 76 77 77 77 76 77 76 76 76 76 75 75 75 75 75 75 75 75 76 75 76 76 76 76 75 75 75 74 74 77 74 74 74 74 72 73 73 75 75 75 76 77 78 77 78 77 77 76 75 74 70 66 71 71 73 73 78 74 77 78 77
76 76 76 76 76 77 77 77 76 77 76 76 75 75 75 76 75 75 75 75 75 75 75 75 76 76 75 75 74 73 73 74 74 74 73 73 73 74 74 74 75 75 76 76 76 76 76 77 78 77 78 75 73 71 67 67 67 69 74 78 73 75 78
76 76 76 76 76 76 76 76 76 76 75 76 76 75 75 75 75 75 75 74 75 75 75 76 76 76 75 75 75 74 75 75 74 74 74 74 73 74 73 74 75 74 74 75 75 75 75 76 77 77 78 78 77 70 72 68 65 71 70 74 76 75 77
77 77 77 77 76 76 75 76 75 76 75 75 76 75 75 75 75 75 75 75 75 75 75 75 75 75 76 74 74 74 75 75 74 73 74 74 74 74 73 73 74 74 75 74 75 75 75 76 77 79 77 77 75 73 73 72 66 68 73 68 72 77 76
77 77 76 75 75 75 76 76 76 75 75 76 76 76 76 76 75 75 76 75 75 75 75 75 76 75 75 75 75 75 74 75 75 74 75 76 77 75 75 73 73 74 74 77 75 75 76 75 76 78 77 76 75 74 74 72 67 65 71 71 72 74 76
75 76 76 75 75 75 75 75 75 75 76 75 76 76 76 77 77 76 77 76 77 75 75 75 75 75 75 75 75 75 76 76 76 75 74 74 76 75 75 75 74 74 75 74 75 76 76 77 77 76 77 77 75 75 75 72 68 66 68 72 73 74 74
75 76 75 75 75 75 75 75 75 76 75 76 77 78 78 77 77 77 77 78 77 77 76 76 76 76 75 73 73 75 75 76 75 74 74 74 73 74 73 74 74 73 75 74 73 78 79 79 80 79 77 77 76 74 76 74 71 68 65 69 71 75 73
75 75 74 74 75 75 75 75 76 75 75 77 78 78 78 77 78 78 78 77 78 77 77 76 76 75 74 74 74 74 74 74 73 73 72 73 76 75 73 72 73 73 73 72 73 74 75 76 79 77 75 76 74 74 76 76 73 69 67 68 71 73 72
73 74 74 74 75 75 75 75 76 75 76 77 77 78 78 78 78 78 77 78 78 77 77 76 76 76 76 76 75 74 74 73 74 74 74 75 76 74 73 72 72 72 72 71 73 73 75 75 75 76 74 74 74 73 73 74 74 71 70 68 70 75 72
72 72 73 75 75 75 75 76 76 77 77 76 77 77 77 79 78 78 76 77 77 77 77 77 76 76 75 75 75 74 74 75 74 74 74 73 71 74 73 73 74 73 72 71 71 73 74 71 75 75 76 76 75 72 73 74 74 74 71 69 68 71 72
72 72 73 74 74 75 75 75 76 76 78 77 77 76 76 77 78 78 78 79 78 78 78 77 77 76 76 75 75 74 74 74 73 74 73 73 73 73 71 72 73 73 72 71 71 71 71 72 72 70 69 69 73 73 70 71 72 71 72 71 69 68 70
71 72 72 74 74 76 76 75 76 76 77 77 76 76 77 77 77 78 79 79 78 78 78 77 76 76 76 76 75 75 73 73 73 73 73 73 74 72 72 72 71 71 70 70 68 68 68 68 66 64 63 64 66 66 68 70 72 71 70 70 70 69 69
73 69 72 73 74 74 74 75 76 77 77 76 76 76 76 76 77 78 79 78 78 77 76 76 77 77 77 76 74 74 74 72 72 73 72 73 73 72 72 72 72 72 71 71 70 69 68 67 67 65 65 65 64 62 62 65 67 69 69 69 67 67 69
71 74 71 71 72 74 74 74 74 75 74 74 74 76 77 77 76 77 77 76 76 75 75 74 76 75 74 74 74 73 74 73 71 71 72 71 71 73 73 72 72 72 71 67 61 61 62 63 68 66 65 66 66 65 65 68 68 68 68 68 67 68 67
72 71 72 70 68 70 71 71 71 71 71 71 69 69 73 75 75 73 75 75 75 74 73 74 66 59 60 73 74 74 72 72 72 70 68 69 67 67 71 72 72 66 60 57 56 51 51 55 58 62 65 68 67 66 66 66 66 68 67 66 66 66 65
73 73 72 72 72 70 69 69 69 69 69 67 65 64 63 70 72 70 68 72 72 70 70 65 49 53 53 51 68 72 72 69 69 70 69 66 65 66 68 72 70 64 61 58 59 47 48 49 52 50 45 44 52 63 67 64 65 65 65 65 66 65 65
72 72 72 72 73 73 72 70 70 69 66 63 62 62 61 62 63 62 64 66 65 62 61 52 45 48 49 47 50 66 70 66 63 62 62 62 63 69 67 71 69 68 69 69 68 61 54 46 47 44 42 43 42 39 44 58 61 64 64 63 64 65 64
72 71 72 72 72 72 72 72 70 66 65 65 63 62 63 65 66 66 67 69 67 65 67 47 42 43 43 44 43 50 68 60 59 57 58 63 66 67 70 70 67 66 70 62 67 68 66 59 45 41 42 42 43 43 42 40 44 57 64 63 62 62 63
73 72 72 72 72 71 71 71 71 71 68 66 66 66 66 67 69 69 69 69 68 68 70 46 43 42 44 41 42 47 67 64 60 60 61 63 68 71 70 71 69 68 68 67 68 68 69 64 59 58 59 62 61 51 44 45 45 46 55 62 63 62 63
73 73 74 73 71 71 71 71 70 70 70 68 67 67 67 67 67 68 68 68 68 68 62 40 42 40 42 40 41 44 63 64 61 63 68 71 71 71 71 71 70 70 68 67 69 67 68 64 62 61 61 63 63 62 63 63 63 63 63 63 64 63 62
73 73 73 73 73 72 72 71 69 69 69 70 70 70 69 69 68 68 68 68 68 66 56 39 40 39 40 40 39 55 65 65 67 72 71 71 72 72 72 71 71 70 71 69 53 49 59 67 64 63 62 63 63 63 58 46 40 43 52 58 59 59 58
72 73 73 72 72 72 72 71 71 73 70 70 70 69 69 69 70 69 69 68 67 65 62 44 40 39 39 40 43 61 67 71 71 70 70 70 70 68 66 65 69 71 68 64 48 47 48 56 65 64 63 62 62 61 58 54 43 39 39 40 38 37 38
72 71 72 72 72 72 72 73 72 73 71 71 70 70 70 70 70 70 69 68 67 65 65 49 39 40 40 39 46 61 69 70 71 69 69 70 69 65 59 46 58 70 65 61 42 47 46 58 65 64 64 61 60 60 58 58 57 52 39 41 40 40 41
70 70 70 71 71 71 71 71 73 73 72 72 71 72 71 70 69 70 70 68 61 65 66 52 39 41 39 41 44 59 68 73 69 69 69 68 68 66 63 54 45 53 57 49 40 45 45 54 65 65 64 63 61 61 60 59 59 58 57 57 55 52 51
69 69 69 69 70 70 71 72 72 71 71 73 73 72 72 72 70 70 70 70 68 69 67 61 50 39 41 40 41 60 70 70 68 68 69 68 66 65 63 60 50 39 39 39 39 39 39 41 58 64 65 63 62 60 61 61 59 59 60 60 60 60 60
68 68 69 68 69 69 71 71 71 70 70 71 72 71 71 71 71 70 70 70 70 70 69 66 54 36 38 40 39 44 69 69 69 69 68 68 67 65 64 62 57 41 38 39 40 40 41 42 46 61 59 57 54 53 56 61 53 47 57 58 58 58 59
67 67 67 68 67 67 69 70 70 70 71 70 69 69 70 70 70 70 70 69 69 68 64 58 63 39 38 38 39 37 60 68 68 69 67 68 67 67 63 60 57 43 38 40 40 41 41 43 45 57 49 40 39 42 58 59 60 59 59 60 60 60 61
65 66 66 67 67 66 67 68 69 69 69 69 68 68 68 69 69 68 68 69 69 68 66 62 52 56 40 40 40 43 41 51 53 66 67 67 67 66 61 56 48 39 39 40 40 41 42 42 46 48 38 41 42 37 44 59 60 59 59 59 59 58 58
66 66 66 66 66 66 66 67 67 68 69 68 67 67 68 68 68 67 66 67 67 68 67 67 51 48 47 36 41 42 44 42 45 64 68 69 67 61 58 55 47 38 39 39 39 40 41 44 47 37 39 38 38 41 55 59 58 58 55 55 56 56 57

ECMWFFLT1_sfc_temp_045.txt.gz
Temp
64 64 65 65 65 66 65 66 65 66 68 68 67 67 65 66 66 66 65 64 65 65 65 64 64 64 65 65 64 64 63 62 61 60 58 60 58 59 60 60 61 61 63 63 62 58 57 54 56 59 60 61 61 62 62 62 62 62 63 63 63 63 62
66 65 65 66 64 66 64 63 64 65 65 65 66 65 65 66 67 66 64 64 64 65 67 66 65 65 63 63 63 63 62 62 62 61 60 59 60 59 59 59 60 60 60 61 60 61 56 54 54 56 57 59 60 61 61 62 62 62 63 63 64 62 60
65 64 64 63 64 62 63 63 63 64 64 64 65 66 65 65 65 65 65 65 64 66 66 64 63 63 63 63 63 63 62 62 62 62 61 61 62 61 60 60 59 59 59 59 59 60 58 58 54 55 57 56 56 58 60 61 62 62 63 62 61 61 59
64 64 63 63 62 63 63 63 63 63 63 63 63 64 64 65 63 64 63 64 64 64 65 65 63 63 62 62 63 62 62 62 61 61 62 61 61 60 61 59 59 60 57 56 58 58 58 55 55 55 56 58 58 57 59 61 62 63 64 62 61 60 59
65 64 63 63 62 63 63 62 62 63 63 63 62 62 63 63 63 63 63 63 63 63 62 63 63 64 63 63 62 62 61 61 62 62 59 60 60 60 60 60 59 61 61 61 60 59 59 57 58 57 57 59 59 59 62 60 64 63 64 63 63 61 60
65 65 64 63 62 63 62 63 62 62 61 62 61 61 60 61 63 63 64 62 63 64 62 62 62 62 62 61 62 61 60 61 60 59 59 58 58 59 59 59 61 61 61 61 62 61 61 61 60 57 61 61 55 57 61 62 60 64 64 63 63 62 61
65 65 64 65 63 64 63 63 63 62 62 61 61 61 62 63 62 62 61 61 60 62 63 62 62 63 62 63 62 61 61 59 60 59 59 59 59 59 61 61 61 60 59 62 62 63 62 61 58 58 59 59 59 59 62 62 64 61 61 63 64 63 62
65 65 64 65 64 64 64 64 63 63 63 62 61 62 63 62 61 62 61 61 62 62 62 62 63 62 61 62 60 59 61 60 60 60 60 61 61 61 60 60 61 60 59 60 60 63 63 61 60 59 59 57 57 57 57 61 60 60 60 61 64 62 61
65 65 64 64 64 64 64 64 63 63 62 62 62 62 61 62 62 62 61 60 60 60 61 62 61 60 58 58 58 57 59 63 60 60 59 60 60 60 59 58 61 60 60 61 62 60 60 62 62 62 61 60 55 54 54 54 57 57 63 59 61 62 61
64 64 64 63 63 64 64 64 64 63 63 63 63 62 62 60 59 59 59 60 61 62 62 61 61 60 59 60 60 58 59 59 60 59 59 60 59 60 59 59 59 59 59 59 61 61 61 60 62 60 61 60 58 56 52 52 53 53 59 62 57 60 62
64 64 64 64 64 64 63 63 63 63 63 64 65 64 60 60 61 63 60 60 60 60 60 60 60 60 59 59 59 59 59 58 58 58 60 60 59 58 58 59 57 58 58 59 60 59 59 59 59 60 58 58 60 58 52 51 52 54 55 60 59 58 60
63 63 64 64 64 64 63 64 64 63 63 63 63 61 61 61 60 59 58 58 58 60 60 60 59 59 59 58 58 59 58 58 58 58 59 61 59 60 57 58 58 58 57 57 59 59 60 61 59 60 59 60 59 59 58 54 51 56 53 55 59 62 61
63 64 64 64 64 63 64 64 64 63 63 63 62 61 62 61 60 58 59 60 60 60 60 61 62 60 59 60 61 61 58 58 59 58 59 60 64 59 57 58 57 57 57 59 60 58 59 60 60 59 60 60 59 58 57 53 52 54 55 53 57 61 63
63 64 64 64 63 62 63 64 64 64 63 63 63 61 61 61 61 60 60 60 60 58 60 60 59 58 58 59 59 59 59 60 60 57 60 59 60 59 59 58 58 59 58 60 58 60 60 60 62 60 60 59 58 59 59 55 54 53 57 55 55 59 59
63 63 63 63 63 63 63 63 64 64 63 63 64 63 62 63 62 62 62 61 59 59 59 59 59 60 59 58 58 62 60 59 58 58 58 60 59 61 57 56 59 58 59 58 57 63 62 63 64 63 61 60 58 59 58 56 52 49 52 58 59 59 57
63 63 62 61 62 63 62 63 64 64 63 63 63 63 63 63 63 62 61 61 61 60 60 59 59 60 58 58 58 59 60 58 59 58 59 59 61 60 58 57 59 59 59 56 57 58 60 60 61 61 59 60 60 57 59 60 55 53 54 55 53 58 57
63 63 62 61 61 61 62 62 63 63 63 63 64 62 63 64 62 62 62 62 62 61 60 60 61 62 61 58 58 58 57 58 58 57 58 59 61 60 58 57 59 59 56 56 56 57 58 59 57 58 58 57 58 58 57 57 60 55 50 54 56 58 57
62 63 62 62 62 63 63 63 62 63 62 64 64 62 64 64 62 62 62 63 62 61 62 61 61 61 60 58 59 60 59 58 58 58 60 59 61 59 58 59 59 58 56 56 56 56 57 57 59 58 58 58 58 58 58 57 55 55 54 54 55 57 56
58 58 61 62 62 63 63 62 62 62 62 64 63 62 64 64 64 63 63 63 63 62 62 62 61 61 60 60 59 60 59 58 59 58 58 59 58 58 58 57 58 58 56 56 55 55 56 56 57 56 56 57 57 56 56 55 56 55 57 54 54 56 56
58 58 58 59 62 63 62 62 63 63 62 64 63 61 64 64 62 63 64 62 62 62 63 63 62 61 61 61 60 60 59 58 58 58 58 59 58 58 57 58 57 57 58 57 56 55 55 54 55 53 53 54 55 55 55 54 56 56 54 54 53 52 54
58 59 58 59 58 58 59 59 61 63 62 62 61 61 64 64 61 61 61 63 62 61 61 60 60 60 60 60 60 58 59 58 56 56 57 58 58 57 57 57 57 57 57 57 57 56 57 56 54 53 53 53 52 53 52 51 53 52 52 52 52 53 53
58 58 58 58 58 58 60 59 58 59 60 59 61 60 60 60 60 62 61 60 59 59 60 60 59 58 58 58 59 60 59 57 56 55 55 56 55 57 55 55 55 55 58 59 57 57 57 57 56 54 53 52 51 51 51 50 51 51 51 52 51 50 50
59 58 58 57 58 58 59 59 58 58 59 59 58 59 59 59 59 59 58 57 56 57 58 59 57 53 55 57 57 60 57 56 56 56 56 55 54 55 55 55 56 61 56 54 52 48 47 50 54 55 53 52 51 51 51 50 50 51 52 51 50 47 50
59 58 59 58 58 59 59 59 58 58 58 57 57 56 57 58 58 58 57 56 55 56 57 59 48 43 45 52 58 57 56 56 56 56 56 55 55 55 55 56 55 57 56 54 50 45 45 45 45 45 46 49 52 53 51 50 50 50 49 50 49 49 47
59 59 59 59 59 58 59 59 59 59 58 58 57 56 56 56 56 55 56 55 55 56 56 55 46 45 43 46 52 57 57 56 56 56 56 56 55 55 55 54 54 57 55 55 52 49 47 44 43 43 43 43 43 44 47 51 50 48 47 49 49 47 47
59 58 58 59 59 58 58 59 60 59 58 58 57 57 55 55 55 55 56 55 55 55 56 51 45 44 42 41 44 53 57 56 56 55 56 56 56 55 54 54 54 56 58 60 57 53 50 47 44 43 44 44 44 44 43 45 47 51 50 49 48 46 47
58 58 57 58 58 58 59 58 58 57 56 56 56 55 55 54 55 55 56 56 56 56 56 52 45 42 41 40 42 48 57 56 56 56 56 56 56 55 55 54 54 54 55 57 55 54 52 50 49 49 49 49 49 45 43 43 43 45 48 50 48 47 47
58 59 59 60 59 58 57 56 56 54 54 55 54 53 53 53 53 54 54 55 56 57 58 52 45 42 41 40 40 44 56 57 56 55 56 56 56 56 56 56 55 55 55 55 56 55 53 51 50 50 49 49 49 49 47 47 48 49 50 50 49 48 47
58 58 57 56 55 56 56 57 57 55 55 54 53 53 52 52 52 52 53 53 53 54 56 46 41 41 41 40 40 50 53 56 55 55 55 54 53 53 54 55 55 55 55 54 52 48 50 53 52 52 51 50 48 46 45 44 43 45 48 48 48 47 46
56 56 56 56 55 54 53 56 56 56 55 54 54 54 55 54 53 52 51 53 52 52 54 47 39 40 40 39 44 51 52 55 55 55 54 53 53 52 52 54 55 54 54 54 48 44 46 49 51 51 50 48 47 46 45 43 41 41 42 42 43 43 41
56 56 55 55 54 54 54 54 55 55 55 54 54 55 55 55 55 54 53 54 55 54 54 49 40 41 40 40 46 52 53 54 54 55 52 51 49 48 49 52 56 55 53 50 42 44 45 51 51 50 49 48 46 46 43 44 45 43 40 40 39 39 39
54 55 56 55 54 54 54 55 54 54 54 54 55 56 56 55 55 55 55 54 56 56 55 52 42 41 40 40 46 52 53 54 54 51 51 49 47 47 46 47 51 53 51 46 42 44 45 50 52 51 50 49 47 46 45 44 45 43 44 44 44 44 44
54 55 55 54 55 54 54 55 55 55 54 55 55 52 52 56 56 56 56 56 57 56 54 51 45 41 41 40 42 51 53 52 53 51 51 51 49 46 45 45 43 40 40 40 41 41 43 45 50 50 50 49 47 46 45 46 45 43 42 43 42 42 42
54 55 55 55 54 54 54 53 53 54 54 54 52 53 53 51 53 54 56 56 56 55 56 54 47 39 40 40 41 44 52 53 51 51 51 51 50 47 45 43 43 41 40 41 41 41 42 42 44 47 47 45 44 45 46 46 45 45 45 43 43 42 42
54 54 54 54 53 52 52 52 52 52 51 51 52 52 52 53 53 51 52 53 54 56 56 55 53 40 40 40 40 41 50 53 50 53 50 49 48 47 46 45 43 41 40 41 41 42 42 42 43 47 45 42 41 43 48 46 46 45 46 45 43 43 42
52 53 52 53 52 51 51 52 51 51 51 51 52 52 52 53 52 52 51 50 52 54 55 54 48 44 40 40 40 40 42 48 43 51 53 50 48 46 43 43 43 41 40 40 41 41 42 42 43 42 39 40 41 42 44 44 42 44 43 42 41 42 41
51 51 51 51 51 50 51 51 51 51 50 50 49 49 49 51 51 52 53 51 52 50 50 51 46 44 42 39 40 40 39 42 43 48 53 52 49 47 44 42 42 39 40 40 40 41 42 43 43 39 40 40 41 42 43 42 42 43 40 41 42 41 40

ECMWFFLT1_sfc_temp_048.txt.gz
Temp
62 60 61 61 61 62 63 63 62 61 62 63 62 62 62 62 61 61 61 60 61 61 62 62 61 61 63 62 61 60 61 60 59 59 57 58 57 58 58 58 60 59 60 58 57 55 54 53 56 60 60 60 61 62 62 62 63 63 62 62 61 60 59
62 62 61 62 62 63 61 60 61 60 61 61 61 61 60 62 62 60 60 61 61 61 62 62 61 62 61 61 60 60 59 58 59 59 59 57 58 58 58 57 58 57 57 57 58 57 54 54 55 57 57 59 61 61 61 62 63 63 62 61 61 58 57
62 61 62 61 60 60 60 60 60 60 60 60 61 60 61 61 61 61 61 62 61 62 63 62 61 61 60 60 59 59 59 59 59 60 60 58 59 59 58 58 57 56 57 56 56 56 56 55 55 56 57 57 56 59 61 61 62 60 59 58 57 57 55
62 62 60 59 58 59 60 60 60 60 60 61 60 59 59 60 61 61 61 61 61 62 62 62 61 60 60 59 59 59 59 59 58 58 58 58 58 57 57 58 59 59 57 55 55 54 53 54 55 56 55 57 58 57 60 61 60 60 59 57 56 55 54
63 63 61 59 60 60 59 59 59 59 59 60 59 59 59 59 61 59 60 60 60 60 60 60 60 60 60 60 59 59 58 57 58 59 57 57 57 57 56 57 58 57 55 59 58 58 56 56 57 55 55 56 57 58 60 57 60 59 58 57 57 56 55
63 63 62 61 60 60 59 58 58 58 58 60 58 59 58 59 60 61 61 59 59 59 59 60 59 59 59 59 59 58 57 57 56 56 56 55 55 56 56 56 57 58 58 58 59 57 57 57 57 55 56 56 53 56 57 57 55 59 59 58 57 57 56
62 63 62 62 61 60 60 60 59 58 58 58 57 58 58 58 59 59 59 58 58 58 60 59 59 59 59 60 59 58 57 55 56 56 56 56 56 55 56 56 56 56 57 59 59 59 58 58 55 56 56 54 55 56 58 56 58 55 58 58 59 57 57
63 62 62 62 61 61 61 61 60 58 58 57 58 58 58 58 57 58 59 59 59 59 59 59 60 58 57 59 58 56 56 56 58 58 56 57 58 57 57 57 58 57 57 58 59 61 60 59 58 56 56 53 52 53 54 56 56 53 54 56 58 57 55
63 62 61 61 60 62 61 61 60 59 59 58 58 58 59 59 58 58 58 58 58 58 58 58 57 57 56 57 55 56 57 59 59 57 56 57 56 55 56 56 59 57 58 59 60 59 60 59 58 56 56 57 54 50 51 52 52 53 58 53 57 57 55
63 62 61 60 60 61 61 61 60 60 59 60 60 58 57 57 57 56 57 57 58 57 57 57 56 55 55 56 57 55 56 55 58 57 56 57 54 55 55 55 56 56 55 56 58 59 59 58 59 58 59 57 55 54 49 47 49 49 55 55 52 55 56
63 62 61 60 60 60 60 60 60 60 60 61 61 59 57 56 58 59 57 57 56 57 57 57 57 56 55 56 55 56 55 56 57 55 55 55 54 55 55 55 55 55 53 55 56 55 56 57 56 59 59 57 56 56 52 50 49 49 52 54 51 53 54
63 62 62 62 62 62 61 61 61 61 61 60 60 57 56 57 56 55 56 55 56 56 56 56 56 56 56 55 55 55 55 56 56 54 54 56 54 56 55 55 54 55 54 56 57 55 55 55 55 58 57 58 58 56 55 52 49 51 52 54 55 56 56
63 63 63 63 63 63 62 62 61 60 61 61 59 59 59 58 57 55 56 56 56 55 55 56 55 55 55 55 55 57 54 55 56 55 55 55 58 55 54 55 53 55 54 57 57 55 54 55 55 56 58 58 57 56 55 51 52 53 49 49 51 55 57
62 63 62 62 63 63 63 62 62 62 60 60 59 59 59 58 56 56 56 56 56 55 55 55 55 54 55 55 55 55 54 55 55 54 54 55 55 54 54 54 54 54 54 57 55 56 57 56 56 56 56 56 55 55 57 53 52 51 54 50 52 55 55
62 62 62 62 63 63 62 62 61 60 61 60 61 60 59 57 57 57 57 57 56 56 56 55 54 54 55 54 55 57 55 54 54 54 54 55 54 55 53 54 56 54 54 54 54 58 57 57 59 58 57 57 56 56 55 53 49 49 50 53 54 54 54
63 63 62 62 63 63 63 62 62 62 61 60 60 60 59 58 58 58 57 57 56 56 56 55 54 55 54 54 54 55 54 54 54 54 54 54 56 54 54 54 55 53 55 55 52 52 53 56 57 58 56 57 57 56 56 57 52 50 52 52 52 55 55
62 63 62 62 62 62 62 62 62 62 61 59 60 58 59 59 58 57 58 57 57 57 56 56 55 55 56 55 55 55 53 54 54 54 56 55 55 55 53 55 57 53 53 53 52 52 53 53 54 54 53 53 55 56 53 54 56 49 48 54 51 56 56
59 60 60 60 61 61 62 62 61 62 61 60 60 59 58 59 59 59 59 59 59 57 57 57 57 56 54 54 56 55 54 53 53 53 54 55 58 55 54 55 56 52 52 53 53 53 52 53 55 54 53 53 53 53 53 52 52 51 52 53 54 52 51
58 58 58 59 61 62 62 62 60 60 62 61 59 59 60 59 61 60 60 60 60 59 58 58 58 57 55 54 54 54 54 54 54 54 54 55 55 54 54 55 54 52 53 53 53 53 52 53 53 53 53 53 53 52 51 51 51 52 55 53 53 52 53
58 57 57 58 59 60 61 61 61 60 59 60 58 58 59 60 59 60 61 61 60 60 59 59 58 57 56 56 56 56 54 54 54 55 55 56 55 54 54 54 53 53 54 53 53 52 51 51 53 51 51 52 52 52 51 50 51 52 52 51 50 49 51
58 57 56 57 57 57 57 58 58 57 59 59 58 59 60 60 58 59 61 61 61 60 60 59 59 58 58 58 57 55 55 56 55 55 55 55 55 54 54 55 54 54 54 54 54 52 52 53 51 51 50 50 50 51 50 50 51 51 51 50 50 50 47
56 56 56 55 55 56 56 56 56 57 56 57 58 57 59 59 57 57 57 58 58 58 59 59 60 59 58 57 58 57 57 56 56 55 54 54 54 54 54 54 54 54 57 59 56 55 55 55 54 53 50 49 49 51 48 49 50 48 48 50 49 46 46
56 56 56 55 55 55 55 55 56 56 57 56 56 55 56 56 56 56 56 55 55 57 58 57 58 56 56 58 58 60 57 56 56 55 55 54 53 53 53 52 54 62 58 56 54 50 50 51 54 55 53 51 51 50 49 49 49 48 49 48 47 47 47
56 56 55 55 55 55 56 56 55 56 56 56 56 55 55 55 55 55 56 55 54 56 57 57 48 48 49 52 58 57 57 55 55 55 55 55 55 54 52 53 54 55 54 55 51 47 48 48 49 49 49 50 52 52 50 49 48 48 48 48 45 47 46
56 55 55 55 55 55 55 55 55 55 55 56 54 54 55 54 54 54 54 54 54 55 55 53 43 46 47 48 53 57 56 56 55 55 55 55 55 54 54 54 53 55 53 52 50 48 47 45 44 44 44 44 45 47 49 51 49 48 48 48 47 47 46
55 54 55 55 54 55 55 54 54 55 55 55 54 54 53 53 53 53 54 54 54 54 54 46 43 44 45 45 47 53 56 56 55 55 55 55 54 54 54 53 54 54 56 57 54 50 49 46 44 43 43 44 44 43 43 44 46 51 50 50 48 44 45
54 54 54 54 54 53 53 53 53 52 54 55 54 52 52 52 53 53 53 53 54 53 53 47 42 43 42 42 43 49 56 56 55 55 55 55 54 54 54 54 54 54 54 55 52 51 50 49 48 48 48 47 46 45 44 42 43 45 49 51 50 49 45
53 54 54 53 53 52 53 52 53 53 53 54 54 54 53 52 52 52 52 53 52 54 54 45 41 41 41 41 41 46 54 54 54 54 54 54 54 54 55 55 54 54 54 54 53 52 51 49 49 49 47 46 45 44 44 45 47 48 48 47 48 49 47
52 52 52 52 53 53 53 54 54 54 53 53 53 51 51 50 50 50 51 51 51 52 53 45 41 40 41 41 41 48 52 53 53 53 53 53 54 54 54 54 54 53 54 54 51 46 48 49 50 49 47 44 43 42 42 42 40 44 48 48 49 48 47
50 50 50 51 51 52 52 51 51 51 52 52 51 51 52 51 51 49 49 50 52 53 52 46 41 41 40 40 41 50 51 53 53 53 53 53 54 54 53 54 54 53 53 53 48 43 44 47 49 49 47 46 45 44 43 43 42 41 42 43 44 44 43
50 50 50 50 49 49 49 50 50 51 50 51 50 51 51 51 51 51 50 51 52 53 53 49 42 41 40 39 45 51 51 52 53 53 52 52 51 51 51 53 55 53 53 53 45 42 43 48 50 49 47 45 44 43 43 43 43 42 41 41 41 41 41
49 49 49 49 50 49 49 50 50 50 49 49 50 50 50 50 51 51 50 50 53 53 52 52 44 40 40 40 44 50 51 52 52 51 50 49 46 45 45 49 51 52 53 50 42 43 42 49 50 48 47 46 45 44 44 41 42 42 40 40 40 40 41
50 50 50 50 49 49 48 49 49 50 50 50 49 49 48 50 50 51 52 52 51 52 52 52 49 41 40 40 42 50 51 51 51 50 49 49 48 45 43 43 45 44 45 43 41 42 42 45 50 49 48 47 45 45 45 43 43 43 42 42 41 40 39
50 51 51 50 50 50 50 49 49 50 49 50 50 50 49 48 48 49 50 50 50 51 52 53 52 42 41 41 41 45 52 52 52 50 49 48 47 47 46 43 41 42 42 41 41 41 43 44 46 50 49 48 49 48 44 45 44 44 44 41 41 40 39
49 49 50 50 49 49 50 50 50 50 50 49 49 49 48 48 47 47 47 48 49 50 52 52 53 45 40 41 41 41 49 52 51 50 48 47 46 45 45 41 42 41 40 41 41 42 43 43 43 48 48 43 40 41 47 47 46 44 44 43 42 41 40
47 48 47 47 46 46 46 47 47 47 47 47 47 46 46 46 45 45 46 47 47 49 50 50 47 46 40 40 39 39 41 46 44 48 50 48 46 46 42 41 41 41 40 40 40 41 41 42 43 43 39 39 40 42 44 45 44 43 41 41 41 40 40
46 45 45 45 45 44 44 45 44 45 44 44 43 43 44 44 44 44 44 45 46 46 46 46 43 43 42 38 39 39 39 39 40 46 50 50 47 44 42 40 41 39 39 40 40 41 41 42 42 39 40 40 41 42 43 42 40 41 39 38 38 39 39

ECMWFFLT1_sfc_temp_051.txt.gz
Temp
61 59 59 59 58 60 59 59 60 58 59 59 59 58 58 60 60 59 58 58 59 59 61 59 60 59 60 60 60 59 59 60 59 59 56 56 57 57 57 57 58 58 56 54 57 56 55 54 56 60 61 61 62 62 62 62 62 62 60 58 57 57 56
61 61 60 60 59 60 58 57 59 58 58 58 58 58 57 59 61 59 58 57 58 59 60 59 58 59 59 59 58 58 58 57 58 58 58 57 55 56 56 55 57 55 56 56 55 55 55 56 55 57 57 60 61 61 61 62 61 60 59 58 58 56 55
61 60 60 59 58 58 58 56 57 58 58 58 58 57 57 57 58 59 58 58 58 59 60 58 57 58 57 57 57 58 57 58 57 59 59 56 56 56 56 56 55 55 56 55 53 56 57 57 55 56 57 57 56 58 60 60 60 59 57 55 54 54 53
60 60 58 57 56 57 58 56 57 56 57 57 57 57 57 57 58 59 59 58 59 59 59 58 58 58 57 57 57 57 57 58 57 57 56 55 55 55 55 56 56 58 55 52 54 54 55 55 56 56 57 59 58 57 58 60 59 57 56 54 53 53 52
61 60 59 57 57 57 56 56 55 56 56 57 56 56 56 57 59 58 58 58 58 57 57 56 56 57 56 56 56 56 56 55 57 58 56 55 54 54 54 55 55 55 53 56 57 56 56 57 57 56 56 58 58 58 59 57 56 56 55 54 54 52 52
62 61 59 57 57 57 56 56 56 57 55 58 56 57 56 56 58 58 58 58 56 56 56 57 56 56 56 56 55 55 54 55 55 56 56 54 55 56 55 54 55 55 55 56 57 56 56 58 58 56 56 57 54 55 56 53 53 55 55 55 54 54 54
61 61 59 59 58 58 58 58 58 57 57 57 56 56 56 56 56 57 57 55 55 55 56 55 55 56 55 56 55 54 54 53 54 54 54 53 53 53 54 55 54 55 55 57 57 58 57 57 56 56 54 55 56 55 54 52 55 52 55 54 54 54 53
60 59 58 60 60 59 58 58 58 57 57 57 57 56 56 55 55 55 56 56 55 55 55 56 56 54 55 55 54 54 54 54 55 55 54 55 56 54 54 54 55 55 56 56 57 58 59 58 57 56 56 53 52 50 49 51 49 49 51 53 54 54 52
60 59 59 59 60 61 58 58 57 56 57 55 55 56 56 56 56 56 55 55 54 54 54 54 54 54 54 55 54 55 55 56 56 55 53 54 54 52 53 54 56 55 57 57 58 58 58 58 57 56 56 56 53 48 48 49 47 49 53 52 54 53 53
59 59 59 59 60 59 58 57 57 56 56 56 57 55 55 54 55 55 56 54 54 54 53 54 53 52 53 54 55 54 55 53 55 53 52 54 51 52 53 53 54 54 54 57 58 58 57 57 57 56 58 56 55 52 46 45 46 46 52 50 51 53 52
60 60 60 59 59 59 56 57 56 57 57 57 57 57 55 55 56 57 54 53 53 53 53 52 52 51 52 52 52 52 52 52 54 52 52 52 51 52 52 53 53 55 53 56 57 57 57 57 57 57 56 53 55 55 47 47 48 46 50 51 47 52 51
59 59 59 59 59 59 59 58 57 57 55 55 57 55 54 54 53 52 53 52 53 53 52 52 52 51 52 52 53 52 52 52 53 52 51 52 52 53 53 53 51 52 53 54 54 55 55 56 56 57 55 55 54 52 53 49 47 49 50 53 51 49 53
60 61 60 60 60 60 61 59 56 55 56 56 54 55 55 54 54 53 53 53 53 52 52 52 51 51 51 51 51 54 51 52 53 51 51 51 54 52 53 53 50 52 53 53 53 53 54 55 56 56 57 56 54 52 53 51 49 52 49 51 48 50 52
59 59 59 60 60 60 60 59 58 58 56 55 53 54 54 54 54 54 53 54 53 52 52 53 52 51 52 52 51 50 51 51 53 51 51 52 51 52 53 52 51 51 52 53 51 51 52 52 54 57 57 55 54 53 54 50 49 48 52 46 47 51 51
59 58 58 59 60 60 59 58 57 56 55 54 54 54 53 54 54 54 54 54 54 53 53 53 52 51 52 52 52 52 51 50 51 51 50 51 51 53 51 53 52 51 50 51 50 53 52 53 53 55 54 56 55 53 54 50 47 48 52 51 53 50 51
59 58 58 58 59 59 58 58 57 58 56 54 54 55 54 54 54 54 54 54 54 54 54 53 52 53 52 52 53 53 52 51 51 52 52 52 53 51 52 52 50 51 53 51 49 49 50 52 53 54 53 54 55 54 54 51 48 49 50 50 49 50 50
59 59 59 59 60 60 59 59 58 58 56 55 56 54 54 54 54 53 55 54 54 55 54 54 53 53 53 51 52 52 52 52 51 51 51 52 52 51 51 52 51 50 51 51 49 50 50 50 50 52 52 52 52 53 51 51 54 45 45 52 48 53 51
57 58 59 59 60 60 59 59 59 59 57 56 55 54 54 54 54 54 56 54 54 53 53 53 54 54 53 52 51 51 51 51 51 51 51 51 55 51 51 52 52 49 50 51 50 50 50 51 51 52 52 51 53 51 51 50 49 47 51 52 50 49 48
57 57 58 59 60 60 60 60 60 59 59 58 54 55 55 54 55 53 53 53 53 53 53 53 53 53 52 52 52 52 51 51 51 51 51 51 53 50 52 51 51 49 50 52 51 50 50 50 50 50 50 50 51 50 50 49 49 50 52 50 52 50 49
57 56 56 57 58 59 60 60 60 60 59 59 57 56 55 55 55 55 54 54 54 54 53 53 53 52 52 52 52 51 51 51 52 51 51 52 53 52 51 51 51 50 50 50 50 50 49 50 50 48 49 49 49 50 49 48 49 51 50 49 49 48 49
58 57 56 56 58 58 59 58 59 59 58 57 58 57 57 56 55 55 54 54 54 53 53 53 53 52 52 53 53 51 51 52 52 53 53 53 53 52 52 52 51 51 51 51 51 49 50 50 48 49 47 48 48 49 48 48 49 49 48 49 48 47 44
58 57 57 57 56 56 56 56 56 57 56 56 57 57 57 57 55 54 54 55 55 55 55 56 56 55 54 53 52 53 53 53 53 53 53 53 53 53 52 52 51 50 53 57 54 53 53 54 53 51 48 47 47 48 47 48 50 48 48 50 47 43 45
56 57 57 56 55 54 56 57 57 56 55 54 54 55 55 56 57 57 57 56 55 56 57 56 57 55 55 57 54 56 54 54 54 53 53 52 52 52 52 51 51 59 57 55 52 49 48 50 54 55 51 48 49 48 47 47 47 49 50 49 47 46 47
56 56 56 55 54 56 56 56 55 55 53 53 53 54 54 54 54 55 56 56 56 56 57 58 53 49 48 51 57 55 55 54 54 54 54 54 54 54 52 52 51 55 55 55 52 47 46 46 47 49 49 50 52 52 49 48 47 47 49 50 47 46 45
56 55 55 54 54 54 55 55 55 55 54 53 52 52 52 51 52 51 52 52 54 55 56 55 49 47 47 47 51 57 55 55 54 54 54 54 55 53 54 53 52 52 51 52 51 50 48 46 45 45 44 45 46 48 49 53 50 46 45 48 46 47 46
54 54 54 54 54 54 54 54 53 54 53 52 52 52 50 51 50 51 52 52 51 52 52 49 44 45 46 46 47 53 55 55 55 54 54 54 54 53 52 52 53 52 53 57 55 49 49 48 46 44 44 43 44 44 44 44 46 52 51 50 48 44 45
52 52 53 53 53 53 53 52 51 51 52 51 51 50 50 50 50 50 51 52 51 51 51 48 42 42 43 43 43 47 54 54 55 55 54 54 54 53 53 53 53 52 52 53 52 49 48 47 46 46 46 46 45 44 42 42 44 46 49 52 50 49 45
50 50 51 51 51 50 50 50 52 50 49 49 50 49 49 49 49 49 50 52 51 52 54 48 42 41 41 40 40 41 52 52 52 53 53 53 54 54 54 54 53 53 53 53 53 50 49 48 47 48 46 45 44 44 45 45 46 47 48 48 50 49 47
48 48 48 49 49 49 48 48 48 48 48 48 48 48 48 48 47 49 50 49 49 51 52 44 41 41 41 40 40 46 50 52 52 52 52 52 52 53 53 53 52 52 52 53 51 45 48 48 48 48 46 42 42 43 42 43 40 42 46 47 48 48 47
47 47 47 47 47 46 46 47 47 47 47 47 47 47 48 48 48 48 49 49 49 50 51 47 41 41 41 40 41 47 50 51 51 52 52 52 52 52 52 52 52 51 52 52 49 43 44 46 49 49 46 44 43 43 42 42 42 41 42 42 43 43 43
46 46 46 46 45 45 45 45 46 47 46 46 47 47 47 47 48 48 47 49 49 48 50 49 44 42 41 40 43 49 50 51 51 51 52 51 51 50 51 53 54 52 51 52 46 42 42 46 49 47 46 45 44 43 42 42 43 43 41 41 41 40 40
46 46 45 45 45 45 45 45 45 45 45 45 45 45 47 47 47 47 47 47 51 50 49 49 46 42 41 41 42 47 50 50 50 51 51 51 50 50 49 50 50 51 52 50 45 42 41 46 49 47 47 46 45 43 43 41 43 42 43 44 43 44 41
46 46 44 44 44 45 45 45 45 45 45 45 45 44 45 45 44 45 45 45 46 46 47 48 48 43 42 41 40 45 50 49 50 51 50 51 51 50 49 47 46 42 42 43 43 41 41 43 49 48 48 47 45 43 43 41 43 43 43 43 40 39 39
45 45 45 45 45 45 45 45 44 44 44 44 44 44 44 43 43 43 44 44 44 45 47 46 47 44 42 41 40 41 49 50 51 51 50 49 49 50 50 49 47 45 42 41 42 41 40 41 45 48 48 46 47 48 43 42 43 43 42 41 41 40 39
45 45 45 45 44 44 45 45 45 44 44 44 43 43 42 42 42 41 42 43 44 44 47 47 44 42 42 41 39 39 45 50 51 51 48 48 48 48 49 50 48 46 42 41 41 41 40 41 43 48 48 44 42 40 44 44 43 42 42 41 39 39 39
42 44 43 43 42 42 43 43 43 43 43 43 42 41 41 41 41 41 42 43 44 45 45 46 42 41 40 40 40 39 40 43 43 48 50 50 48 48 46 46 47 45 41 40 40 41 40 41 43 45 42 41 39 41 43 43 42 41 39 39 39 38 37
41 41 42 41 41 40 40 40 41 40 39 39 39 38 38 39 40 39 39 40 42 42 43 42 42 40 39 39 38 38 38 38 38 43 45 48 48 46 45 44 43 41 40 40 40 40 40 41 44 42 41 40 40 42 44 42 40 40 38 38 38 38 38

ECMWFFLT1_sfc_temp_054.txt.gz
Temp
61 59 59 58 57 59 58 58 58 57 58 58 58 58 60 61 60 59 60 60 60 60 62 61 61 60 60 61 62 61 60 61 60 60 58 58 60 58 58 58 59 59 58 57 62 60 58 55 56 60 62 62 62 62 62 61 61 60 59 58 58 57 57
60 59 59 59 58 58 57 57 58 57 58 57 57 58 59 60 62 60 59 59 59 60 62 59 60 60 60 60 60 59 60 59 60 61 60 59 58 58 57 57 58 58 58 58 58 59 59 56 55 57 57 60 60 60 59 59 59 59 58 58 58 57 57
60 59 59 57 57 57 58 57 57 58 57 57 57 57 58 59 60 60 58 59 58 60 61 59 59 59 59 60 60 60 59 59 58 61 61 59 59 58 59 59 58 57 58 58 57 60 59 60 56 56 57 58 56 57 59 58 58 58 58 57 56 57 56
60 59 57 56 56 57 58 56 57 56 56 56 56 57 57 58 59 60 59 59 60 61 60 59 59 60 59 59 58 59 59 60 58 59 58 58 58 59 58 60 60 60 58 56 57 58 58 58 57 57 58 59 58 55 57 58 58 58 58 57 56 56 56
60 60 58 57 57 57 57 56 55 56 56 56 55 56 56 58 59 58 59 59 58 57 57 58 58 58 58 58 58 58 58 58 58 59 58 58 58 58 58 58 59 57 55 59 59 60 59 59 59 57 57 58 58 57 59 58 59 58 58 58 58 57 56
61 59 59 57 57 57 56 56 56 56 55 58 56 56 56 57 59 59 59 58 58 58 57 58 57 57 57 57 57 57 57 58 58 58 58 58 58 59 59 58 59 57 57 59 60 60 60 61 60 57 58 60 55 56 58 57 58 59 59 59 59 58 58
60 60 59 59 57 57 57 57 57 57 57 58 56 56 56 57 58 58 58 56 56 57 57 56 56 57 56 57 57 56 56 55 56 57 57 56 56 56 58 58 58 58 58 59 60 61 60 60 58 57 56 57 57 56 57 57 58 58 59 59 59 59 58
60 60 59 59 58 57 56 57 57 56 58 57 56 57 56 56 56 56 57 57 56 56 57 57 57 56 56 57 56 55 55 55 56 56 55 56 56 56 57 58 57 58 58 59 61 61 62 61 60 58 57 53 53 53 54 56 54 56 57 58 59 59 58
61 59 58 59 58 59 58 58 57 57 57 56 55 56 55 57 57 57 57 55 55 55 56 56 56 56 55 56 55 56 56 57 55 55 54 55 55 55 55 56 58 58 58 59 61 61 62 62 61 60 59 58 54 51 53 55 53 56 57 58 59 58 58
60 60 59 59 58 58 59 58 57 56 56 56 56 55 55 55 55 56 56 55 54 54 55 55 55 55 55 56 55 55 55 54 55 54 54 54 53 54 55 56 57 57 58 59 60 60 60 60 61 60 61 60 59 55 51 51 53 52 57 56 58 59 58
61 61 60 59 58 57 56 57 56 56 56 56 56 57 55 55 56 58 55 54 53 54 54 54 54 54 55 54 53 53 53 54 55 55 54 54 54 55 55 56 57 57 58 59 60 60 60 60 60 60 59 59 60 58 52 53 54 51 56 54 54 59 56
60 60 60 59 58 57 57 56 57 56 55 56 57 55 54 55 54 53 54 54 54 53 53 53 54 54 55 55 55 54 53 53 55 54 53 55 54 55 55 55 55 56 57 58 59 59 59 60 60 60 58 58 57 57 55 55 54 55 56 57 56 55 58
60 60 59 58 58 57 58 57 56 56 56 56 55 55 55 55 54 54 53 54 53 53 53 52 53 54 53 53 53 54 52 53 55 54 54 54 55 54 55 55 55 55 56 58 58 59 59 59 60 60 58 58 56 56 57 53 54 57 54 57 56 56 57
58 59 58 58 57 57 58 58 57 57 56 55 55 55 55 54 54 55 54 55 55 54 53 53 52 53 54 53 52 52 52 54 55 54 55 55 54 55 55 55 54 54 56 57 57 57 58 59 59 59 59 58 56 56 58 54 55 55 55 52 53 56 56
58 58 58 57 58 58 58 58 57 56 56 55 55 55 54 54 54 55 55 55 54 53 53 53 52 53 54 54 53 53 52 53 54 53 54 55 54 54 54 55 54 54 55 56 55 58 58 58 59 60 59 58 58 56 56 55 53 55 56 55 56 54 55
58 57 57 56 57 58 58 58 58 56 56 55 54 55 54 54 54 55 55 54 54 54 54 54 53 53 53 54 55 53 52 52 55 55 55 55 56 54 55 55 54 54 55 55 53 54 55 57 58 59 58 58 58 57 57 56 54 55 55 55 53 56 56
58 58 57 57 58 58 58 58 58 56 56 56 56 54 54 54 54 54 55 54 54 54 54 54 54 54 55 55 55 54 53 52 53 54 55 55 55 55 56 56 55 54 54 54 53 53 53 54 55 57 58 57 57 56 56 54 56 53 54 57 53 58 56
57 57 57 57 58 58 58 58 58 57 56 57 55 54 55 54 53 54 55 55 54 54 54 54 54 53 53 53 54 54 54 53 53 52 53 53 56 54 55 57 54 53 54 55 53 54 54 55 55 55 56 56 57 56 56 56 55 54 56 56 55 53 53
57 56 56 57 57 57 57 58 57 56 58 57 54 54 54 54 55 55 54 54 55 54 53 54 55 54 54 53 53 53 53 53 53 53 53 52 55 52 54 54 53 53 55 56 55 53 53 54 53 54 55 55 57 56 56 55 55 56 58 57 56 54 54
56 56 55 55 56 57 58 58 57 57 57 57 57 55 54 54 55 54 54 54 54 54 54 53 54 53 53 53 54 54 53 53 53 53 53 54 54 53 53 54 53 52 54 54 54 54 53 53 54 53 53 53 54 55 54 55 55 55 55 55 54 54 54
57 56 56 56 56 56 57 57 56 55 56 56 56 56 55 55 54 54 54 55 54 54 54 54 53 54 54 53 54 53 54 54 55 54 54 54 54 54 54 54 55 54 54 54 55 53 54 54 53 54 52 53 53 54 54 53 53 54 54 54 54 53 51
57 57 57 56 56 57 56 56 56 56 56 56 56 56 55 55 55 55 54 54 55 55 54 55 54 54 55 54 53 54 54 55 54 55 55 55 55 54 54 54 55 54 56 56 53 53 54 54 55 55 52 52 53 54 53 53 53 53 53 54 52 50 52
56 56 56 56 57 57 55 55 55 56 56 55 55 55 55 55 55 55 56 55 55 55 55 55 56 53 53 56 54 55 55 55 54 55 56 55 55 55 55 54 54 58 56 55 52 48 47 49 53 56 55 53 54 54 54 53 53 53 53 54 54 53 53
55 55 55 55 55 56 56 55 54 54 53 53 53 54 55 54 54 55 55 56 55 55 56 57 52 48 47 50 56 55 56 55 55 55 55 56 57 57 56 55 53 55 57 55 53 46 45 46 47 49 48 50 53 56 54 53 53 52 53 54 52 52 54
55 54 55 55 55 55 55 55 54 54 53 53 53 52 52 51 52 53 54 54 54 55 55 54 49 47 46 45 50 57 56 56 55 55 55 55 56 56 56 56 55 55 56 56 55 52 49 45 45 46 44 44 45 47 49 56 55 51 52 53 51 53 53
54 53 54 54 54 54 55 54 53 53 53 52 52 52 51 52 51 50 52 54 53 52 53 48 45 46 46 45 44 50 57 56 56 55 55 56 56 55 55 55 55 55 55 57 58 55 54 53 46 45 44 44 44 44 43 44 47 58 56 55 55 52 53
50 50 50 50 51 51 51 51 51 50 51 52 52 52 52 51 50 51 51 52 51 51 52 46 41 40 41 41 41 44 55 55 56 56 56 56 55 55 55 55 55 55 55 55 56 55 54 53 52 51 50 50 52 50 45 43 42 41 49 57 56 56 54
50 49 49 48 48 48 48 48 49 49 49 49 50 49 49 49 49 49 49 50 50 51 51 42 41 40 39 39 39 41 51 52 54 54 55 55 55 55 55 55 55 55 55 55 55 54 53 53 52 51 51 51 51 50 49 48 49 50 51 52 54 56 55
48 48 49 48 47 47 47 46 46 47 47 47 47 47 47 47 48 49 49 49 49 50 51 43 42 42 41 40 40 47 49 51 52 53 53 54 54 55 55 54 54 54 55 55 52 46 49 53 52 52 52 50 48 46 45 44 41 41 46 50 51 52 52
46 46 47 46 46 45 45 45 45 46 46 46 45 45 45 46 46 47 48 48 48 49 49 45 41 41 41 41 43 48 49 50 51 52 53 54 54 54 54 54 54 54 54 55 50 45 42 47 52 52 51 49 49 48 46 45 41 39 39 39 40 39 40
46 46 46 45 44 44 44 44 44 45 44 45 45 45 45 45 45 45 46 46 48 46 47 45 41 40 41 41 43 48 50 50 51 51 52 53 52 52 53 52 54 54 54 54 47 44 40 47 52 52 51 49 48 48 47 45 46 44 41 40 40 40 40
45 44 44 44 45 44 44 44 45 45 44 43 43 44 45 44 44 44 44 45 48 46 45 45 42 40 40 40 44 48 48 50 50 51 51 52 52 51 51 51 50 51 53 51 45 42 40 46 52 51 51 49 48 48 48 45 46 46 46 46 45 45 43
45 45 44 44 44 44 45 45 44 44 44 44 44 43 44 44 43 43 44 44 44 45 45 45 44 39 40 40 41 46 48 49 50 51 51 51 51 52 51 51 49 42 40 41 41 41 40 41 51 52 51 50 49 49 49 46 47 47 46 46 44 44 43
44 44 44 43 44 45 45 44 44 44 43 43 43 43 42 42 42 42 43 43 44 44 46 44 43 39 39 39 40 41 48 48 49 50 50 50 50 50 52 52 52 48 43 41 39 39 40 39 43 51 50 50 51 50 45 46 46 44 46 44 44 43 42
44 44 44 44 42 41 42 44 43 43 43 43 42 42 42 41 41 41 42 42 43 43 45 45 43 41 39 38 39 39 43 47 47 48 49 50 50 50 51 52 52 47 40 40 40 39 39 39 39 48 50 45 42 40 47 48 47 46 45 44 43 43 43
41 42 42 42 42 42 43 43 42 42 41 41 41 40 40 40 40 40 41 42 42 42 43 43 41 42 40 38 38 38 38 40 38 42 46 47 49 51 50 49 49 43 39 39 39 38 38 39 39 44 43 42 39 40 43 46 46 45 43 43 42 42 41
39 39 40 41 41 40 40 41 41 41 40 40 40 40 40 39 40 39 39 40 41 41 42 41 41 40 40 39 39 38 38 37 37 41 42 44 46 48 48 48 45 39 39 39 39 38 37 38 42 40 40 40 39 40 44 43 43 42 42 42 42 42 41

ECMWFFLT1_sfc_temp_060.txt.gz
Temp
70 73 76 76 77 78 77 77 78 78 80 80 78 80 80 79 79 78 78 78 77 79 78 78 77 77 78 78 76 76 76 77 75 74 73 73 71 72 74 73 74 75 78 76 76 73 67 64 59 66 70 68 68 68 68 68 69 69 69 70 72 72 73
77 77 77 78 78 78 76 77 78 79 79 78 79 79 79 80 79 78 78 77 77 78 80 79 78 78 77 76 74 75 74 75 75 74 72 72 73 74 72 69 74 75 75 76 76 76 73 67 63 62 62 67 67 67 67 68 70 71 72 72 73 73 72
77 77 77 76 76 76 75 75 77 77 78 77 77 79 79 80 79 79 78 78 77 78 79 79 78 77 76 76 75 75 74 74 74 74 72 71 70 70 75 71 72 73 75 74 74 75 74 70 62 66 67 66 64 64 68 68 69 72 74 73 73 74 74
75 75 74 73 75 75 75 75 76 77 78 78 78 77 78 79 78 79 78 78 77 77 79 78 77 78 77 76 76 75 75 74 74 73 73 68 70 71 73 70 69 71 70 71 73 73 71 71 70 69 70 72 69 64 67 71 73 75 77 75 74 74 76
75 74 73 73 74 75 75 75 76 77 76 77 77 77 76 78 77 77 77 78 78 77 77 78 78 78 78 78 76 76 76 75 74 74 74 73 72 70 74 75 70 73 74 75 75 74 73 73 72 70 70 72 73 74 73 72 77 76 77 77 78 77 77
75 76 76 75 76 76 76 75 76 76 76 75 76 76 76 76 77 76 77 77 77 77 78 78 78 78 78 77 77 76 75 74 76 75 75 73 73 71 73 75 77 78 77 77 77 75 75 75 74 70 72 74 69 70 74 75 75 80 80 80 81 79 79
75 76 76 76 76 77 77 76 76 76 76 75 76 76 77 78 78 78 78 77 78 78 77 77 77 78 78 79 77 76 76 76 76 74 75 74 74 74 74 75 77 78 77 78 77 77 75 74 72 71 70 72 73 74 77 78 77 75 76 79 80 80 79
75 76 76 77 76 77 77 77 77 77 77 77 77 77 77 77 77 77 77 77 77 76 76 76 77 77 76 79 78 76 76 77 76 75 76 75 74 75 74 76 76 77 78 79 78 78 80 77 75 74 71 67 69 73 73 77 78 76 74 77 80 79 78
74 76 76 77 77 77 77 77 77 77 78 78 78 77 77 77 76 76 77 77 77 77 77 77 77 78 76 76 76 76 75 78 75 75 76 75 75 74 74 76 77 78 78 79 80 79 80 78 77 77 75 73 69 67 72 71 73 73 77 75 78 79 78
71 74 75 76 76 77 77 77 77 78 78 78 77 77 76 77 77 77 77 76 76 76 77 77 77 78 77 77 76 75 75 76 76 76 76 76 75 75 76 75 77 77 78 78 79 78 78 78 78 77 78 76 75 71 68 68 69 69 74 77 74 76 79
72 75 76 76 76 76 77 77 77 77 77 77 77 76 77 76 76 77 76 76 76 76 76 77 79 78 77 77 77 77 77 77 76 76 76 77 76 77 76 77 77 78 78 78 77 77 77 78 78 78 80 80 81 76 74 70 68 73 73 76 78 76 78
74 75 76 77 76 76 76 76 76 76 77 77 77 76 76 77 76 76 76 76 76 76 76 76 77 77 78 77 77 77 77 78 78 76 77 76 76 76 76 75 77 76 76 76 76 77 77 77 78 80 80 80 78 77 76 74 68 72 76 72 76 80 78
74 75 76 75 75 76 77 76 76 75 75 77 77 77 77 77 76 76 77 76 76 76 76 77 78 77 77 77 77 78 77 78 78 77 77 78 79 77 76 76 77 77 77 77 77 77 77 78 79 80 79 79 78 77 77 76 72 69 75 75 76 78 79
74 76 76 76 76 76 77 77 76 76 77 76 77 77 77 77 78 77 77 77 77 76 76 76 77 77 77 77 77 77 78 79 78 78 77 76 78 78 78 77 77 77 78 77 78 77 78 78 78 79 79 78 77 77 77 76 73 70 73 76 76 77 78
75 76 75 75 75 77 77 76 76 76 75 77 77 78 78 77 78 77 78 78 77 78 77 77 77 77 77 76 75 77 78 79 78 78 77 77 76 77 76 77 78 77 79 79 77 80 79 78 79 80 79 78 78 77 77 77 75 72 69 72 74 79 77
75 75 74 74 75 76 76 76 78 76 76 75 77 78 77 77 77 78 78 77 78 78 78 77 77 77 76 76 77 76 77 77 76 76 76 77 79 77 75 76 76 76 76 76 76 78 78 79 81 81 78 79 78 77 79 78 75 73 70 71 74 76 75
74 74 73 74 75 76 76 76 77 76 76 75 77 77 77 78 77 77 77 77 78 78 77 76 77 78 78 78 77 77 77 76 77 77 77 79 79 78 77 75 75 76 76 75 76 77 78 78 77 79 78 78 77 76 76 76 76 75 73 71 73 77 76
73 73 73 74 74 75 75 75 76 77 76 76 77 76 77 78 77 77 76 77 78 78 77 78 77 77 76 77 77 77 77 78 77 78 77 77 75 78 77 77 77 77 76 75 75 77 78 76 79 78 78 79 78 78 76 76 76 77 74 72 72 76 77
72 73 73 74 74 74 74 75 75 76 77 77 76 76 76 77 77 78 78 79 79 79 79 78 78 78 78 77 77 76 77 77 77 78 77 78 78 78 77 78 77 78 77 76 76 76 77 77 78 77 77 79 82 78 75 75 75 75 75 75 74 73 75
70 73 73 73 74 75 75 75 76 77 77 76 76 75 76 77 77 78 79 78 78 78 78 78 78 77 78 78 77 77 76 76 76 76 77 78 78 78 78 78 77 77 77 78 76 76 75 75 75 75 76 75 77 77 74 75 76 75 73 73 74 74 73
69 71 73 74 74 74 74 75 75 76 76 75 75 77 77 76 76 78 78 78 78 78 77 78 78 78 79 78 76 77 76 76 76 76 76 77 77 77 77 78 78 78 78 78 78 77 76 75 76 75 75 76 76 74 74 75 75 75 73 73 74 73 74
66 67 71 73 73 74 74 74 74 75 75 75 75 77 77 77 76 77 77 77 77 77 76 76 78 78 79 77 78 77 77 78 77 76 77 77 77 77 78 78 78 78 74 64 56 60 62 64 75 75 74 75 75 74 74 75 75 75 74 74 73 74 74
67 68 69 70 71 72 72 73 73 73 73 74 74 75 76 76 77 75 75 76 76 75 75 71 55 47 53 74 78 79 76 76 77 77 76 76 76 76 77 77 76 64 60 59 58 52 52 53 55 65 73 76 74 73 73 73 73 74 74 72 73 73 71
67 66 65 66 67 68 69 70 71 72 71 70 70 71 72 73 73 74 75 74 74 72 63 54 40 41 44 47 69 76 76 76 77 76 76 76 75 76 76 78 78 69 65 63 65 48 48 48 49 48 48 50 57 69 74 71 71 72 72 72 73 73 72
63 63 64 64 63 63 63 64 66 67 66 65 66 68 67 67 66 66 68 71 68 62 55 44 39 41 40 42 49 70 76 76 75 76 76 76 76 76 75 76 76 76 75 75 76 72 58 46 45 46 44 47 50 47 48 65 71 71 71 70 70 71 72
65 64 63 61 60 60 61 62 62 63 62 62 64 63 63 62 62 64 64 62 60 57 53 41 41 40 40 40 41 52 76 75 75 75 75 76 76 76 76 75 75 74 76 64 70 75 75 69 48 42 46 43 42 43 46 44 47 64 72 70 70 69 71
61 61 60 59 60 61 60 57 57 59 60 61 61 59 58 58 60 63 62 59 56 54 49 42 40 39 41 39 40 45 73 74 74 75 75 75 75 75 74 75 75 75 75 73 74 74 75 74 72 67 66 69 71 61 43 41 42 38 49 67 70 69 71
59 59 57 56 58 60 59 59 59 59 60 59 59 59 58 58 59 61 60 58 57 52 47 39 39 39 39 40 40 45 72 71 73 74 74 74 74 74 74 73 73 73 75 74 75 71 73 73 73 72 72 72 72 73 73 71 69 70 69 69 71 72 71
58 58 59 59 58 57 58 59 58 59 59 59 60 60 59 60 60 62 62 60 58 55 50 38 38 40 39 40 39 64 71 71 72 73 73 73 73 74 74 74 74 73 74 74 59 51 58 69 72 71 70 72 72 72 73 61 52 56 63 69 72 71 70
59 58 57 55 55 55 57 59 61 62 60 59 58 59 60 60 61 59 60 62 60 57 54 42 38 39 39 38 50 70 69 72 72 71 71 72 73 73 72 72 71 70 68 70 49 44 45 50 69 70 70 70 70 71 72 66 44 39 39 39 38 39 40
54 55 57 57 56 56 57 58 57 58 59 58 59 59 59 58 58 58 58 58 59 57 53 44 38 39 39 37 46 66 69 70 69 70 71 70 71 71 69 58 61 67 67 64 39 42 40 53 67 69 70 68 68 69 70 70 63 57 38 39 39 39 41
52 51 52 55 56 55 55 56 57 58 59 58 55 56 57 57 56 57 56 55 52 55 55 48 39 39 39 39 48 65 67 68 67 67 67 68 70 70 71 61 52 55 58 48 40 43 39 49 66 68 69 68 67 68 69 72 69 66 63 62 60 57 54
54 53 53 53 54 55 56 55 56 57 57 58 56 56 55 53 54 55 57 56 54 54 54 52 45 38 39 41 40 57 64 63 62 63 64 65 64 68 68 68 52 39 39 39 39 38 42 39 56 65 68 68 67 66 71 71 70 69 68 68 68 66 65
55 56 56 55 54 54 54 55 56 56 56 57 57 56 56 55 55 56 57 57 56 54 53 53 46 38 40 39 39 45 59 56 57 59 60 60 62 64 66 69 65 42 41 40 41 39 41 39 41 57 61 65 68 56 52 67 67 54 66 66 66 65 64
55 55 56 56 55 53 53 54 54 55 56 55 54 54 55 57 57 57 57 56 56 56 52 47 53 42 38 39 38 38 52 53 50 54 58 62 63 65 64 65 68 46 38 39 39 39 39 40 39 50 55 47 43 43 56 60 65 66 65 65 65 64 65
53 53 53 55 55 55 56 57 56 56 55 55 54 55 55 56 56 56 56 57 58 57 56 54 43 49 39 38 37 38 37 45 39 49 55 57 61 63 64 63 58 39 38 38 39 38 39 38 40 50 44 42 42 40 42 54 57 60 63 64 63 65 64
55 55 54 55 55 55 55 56 57 57 57 58 58 57 58 57 58 57 56 57 57 58 58 58 45 41 46 37 38 38 38 37 37 50 53 56 60 61 61 58 51 39 38 38 37 39 39 39 45 43 41 40 39 39 47 52 55 59 61 61 62 64 65

ECMWFFLT1_sfc_temp_063.txt.gz
Temp
66 67 68 70 69 70 78 79 80 80 82 82 81 82 81 81 80 80 79 79 79 80 79 78 78 79 78 80 78 78 78 78 76 69 71 76 72 72 75 74 74 73 73 74 72 69 66 61 62 69 71 70 70 70 71 71 71 72 72 74 74 74 74
70 70 69 69 67 73 76 78 80 82 81 81 82 81 81 81 80 80 79 79 79 80 80 80 79 79 78 74 75 75 75 75 75 71 71 74 74 72 73 72 71 71 74 72 69 68 68 65 62 63 65 69 69 69 70 71 72 73 74 74 75 76 74
69 70 67 67 70 76 75 76 79 79 80 79 80 81 80 82 80 80 80 79 79 80 80 80 78 78 77 76 76 75 74 73 75 75 73 73 72 71 73 72 71 70 67 68 66 65 68 70 65 65 66 66 64 66 70 71 73 75 76 75 75 77 76
67 66 65 66 72 75 75 76 77 78 79 79 79 79 79 81 80 80 80 79 79 79 80 79 78 79 78 76 76 75 75 74 75 74 73 73 73 73 72 71 70 67 66 66 65 67 70 66 67 67 70 72 69 65 69 74 74 76 77 76 76 77 77
67 66 65 68 74 75 75 75 77 77 77 79 78 78 78 80 79 79 79 79 79 78 78 79 77 79 78 79 77 76 76 76 75 74 73 72 73 74 72 73 73 73 70 69 70 72 68 69 69 68 69 72 73 73 74 73 78 77 77 78 80 79 78
68 68 68 72 75 75 76 76 76 76 77 77 77 77 77 78 79 77 78 78 78 78 78 79 79 79 79 78 77 76 76 75 76 74 72 71 73 73 73 72 75 72 72 72 74 75 74 70 70 71 73 75 69 70 74 75 74 78 78 79 82 80 79
67 69 71 75 75 77 77 76 77 77 77 76 77 77 78 79 79 79 79 79 79 79 78 78 78 79 78 78 78 77 77 76 76 75 74 71 73 74 74 72 71 71 71 75 74 76 75 74 73 72 70 72 72 73 76 75 78 76 78 81 81 81 80
66 68 72 76 76 77 77 77 77 78 77 78 78 78 79 78 78 78 78 78 78 78 78 77 78 78 78 78 78 77 77 77 77 76 75 74 74 73 72 74 73 73 74 74 76 74 78 76 75 73 72 68 69 72 72 76 77 76 76 78 81 80 79
68 70 73 76 77 77 77 77 77 77 78 79 79 79 78 78 78 77 78 78 78 78 78 78 78 78 77 77 76 77 76 79 76 76 76 76 75 74 72 73 73 73 76 77 76 76 78 77 76 75 74 73 70 66 69 69 72 73 79 76 78 79 78
68 70 73 75 76 76 77 77 78 79 79 79 79 79 78 78 78 78 78 78 78 78 78 78 79 78 78 77 76 76 76 77 76 77 76 76 75 76 74 73 73 72 77 75 74 75 76 77 78 78 79 76 74 69 67 67 69 70 75 78 74 76 79
70 71 73 75 76 76 77 77 78 78 78 79 79 78 78 77 78 79 78 77 77 78 78 79 80 79 78 77 77 77 77 77 76 76 76 77 76 76 76 75 75 73 76 75 74 76 77 77 78 79 79 79 78 73 71 68 67 74 73 77 78 76 78
72 72 73 76 76 76 76 77 78 78 78 78 78 77 78 78 78 78 77 77 77 77 78 79 79 79 79 77 77 78 77 78 77 76 77 76 76 76 75 75 73 74 76 73 76 77 77 78 78 80 80 79 79 77 74 72 68 73 77 73 77 80 78
74 72 74 75 75 77 77 78 78 77 77 78 78 78 79 78 78 77 77 77 77 78 78 78 79 79 78 78 78 79 78 79 78 77 77 77 78 76 76 76 76 75 76 77 77 76 78 80 81 81 79 79 79 79 77 75 71 69 76 76 77 78 79
73 73 75 76 76 77 77 77 77 77 78 77 78 78 78 78 79 78 78 78 78 77 77 77 78 78 78 78 79 79 79 80 80 79 77 76 77 77 76 76 75 74 76 76 76 76 79 80 81 80 80 79 79 79 78 73 71 71 74 78 77 78 79
73 73 74 76 76 77 77 77 76 77 76 77 79 79 79 79 79 79 79 79 78 79 78 79 79 79 78 77 77 79 79 80 80 78 77 77 76 77 76 77 77 77 79 78 76 79 79 80 81 81 80 79 79 78 79 78 74 72 69 74 75 80 78
73 73 74 75 76 77 77 77 77 77 77 77 79 79 79 78 79 79 79 78 79 79 79 79 78 78 77 77 78 78 79 79 77 77 76 76 78 78 77 76 76 77 78 76 77 78 79 80 83 82 79 81 79 78 80 80 75 71 70 72 75 77 76
73 73 74 76 76 77 77 76 77 77 78 78 78 78 79 79 79 79 78 79 79 79 79 78 78 79 79 78 78 78 78 78 78 78 78 78 78 78 77 75 75 76 77 76 78 77 79 80 79 81 79 79 77 77 78 77 78 74 72 71 73 78 77
72 74 75 76 75 76 77 77 77 78 77 77 78 77 77 79 79 79 77 79 79 79 79 79 79 79 78 78 78 78 78 78 78 79 79 79 77 77 76 76 77 77 76 76 76 77 78 77 80 79 79 80 79 78 77 77 77 78 74 72 73 76 77
67 73 74 76 75 76 77 77 77 77 78 77 77 77 77 78 79 79 79 80 80 80 80 79 80 80 79 79 78 78 78 78 79 80 79 79 80 79 77 78 77 77 77 75 75 77 77 77 79 79 79 80 82 77 76 76 76 76 76 74 73 72 76
70 73 75 75 75 76 77 76 77 77 77 77 77 77 78 78 78 79 80 80 80 79 80 80 79 79 79 79 78 78 77 77 78 78 79 80 80 79 79 79 78 78 77 78 77 76 77 77 76 77 77 76 78 77 75 76 77 76 74 74 74 74 74
74 75 75 75 76 75 76 75 76 77 78 77 77 78 78 78 78 80 80 80 80 80 79 79 80 80 80 79 77 77 77 77 77 77 78 79 79 79 79 79 79 79 79 78 77 77 77 76 76 76 76 77 77 75 75 75 75 75 74 73 73 72 74
74 75 75 75 75 75 75 76 76 77 76 76 76 78 78 78 78 79 79 79 79 79 78 72 65 64 73 79 78 77 77 78 77 77 77 78 78 78 79 79 79 78 70 62 55 59 60 61 73 74 75 76 75 74 74 75 75 74 75 73 72 73 72
74 75 75 75 75 75 75 75 75 76 76 77 77 78 78 78 78 78 77 78 78 72 66 61 48 43 46 62 75 79 77 78 78 77 77 76 76 78 78 78 74 62 60 60 58 54 54 52 53 64 70 74 74 74 74 73 74 74 73 72 72 72 70
73 73 74 75 75 75 75 74 74 75 75 75 75 76 77 77 77 77 78 75 68 65 59 52 41 40 42 41 61 76 77 77 77 77 77 76 75 76 77 79 76 69 67 65 64 49 49 51 51 48 47 49 56 67 71 71 72 73 72 71 72 72 72
72 71 73 74 74 73 72 72 71 71 71 71 73 74 73 72 71 71 68 68 65 61 56 45 39 41 41 40 44 63 77 77 76 77 77 77 77 77 77 77 77 76 76 75 75 71 61 50 49 50 48 48 48 45 49 65 70 70 70 69 69 71 71
67 67 68 67 66 68 69 68 67 66 65 67 69 69 70 70 68 65 64 61 59 57 54 41 40 40 41 40 41 52 75 77 77 77 77 77 77 77 77 76 76 76 78 68 73 76 75 70 51 42 46 45 44 45 47 46 49 65 70 68 68 69 71
65 63 61 61 61 61 61 60 60 62 63 63 63 64 67 67 65 62 59 56 52 51 48 42 39 39 40 39 40 45 72 74 75 76 76 76 76 76 75 75 75 74 71 73 75 74 75 73 71 67 66 69 71 64 48 45 43 39 50 66 68 68 70
61 60 58 57 57 58 57 57 56 56 58 59 60 60 60 61 60 58 57 55 52 48 44 39 39 39 39 40 40 44 69 73 75 75 75 75 75 75 75 75 74 74 72 66 60 59 62 64 67 70 71 71 72 72 73 71 68 68 66 67 70 70 70
58 58 57 57 57 56 55 55 55 55 55 57 58 58 57 59 59 58 57 55 53 50 46 39 39 40 40 39 39 58 70 73 73 74 75 75 75 76 75 74 74 74 71 65 57 47 53 61 64 62 62 62 62 62 64 60 53 61 68 72 73 71 69
56 56 56 56 58 58 58 57 56 56 56 57 57 58 58 59 60 59 58 56 53 50 48 41 39 40 41 39 47 66 70 72 73 73 74 74 74 74 74 73 71 72 69 70 49 43 41 49 69 68 68 65 64 65 64 65 49 44 43 45 43 42 42
54 55 56 56 56 55 56 59 60 63 63 61 60 59 59 60 60 60 59 58 56 52 49 43 39 40 41 40 45 62 69 71 71 70 71 71 71 72 64 56 64 70 68 60 40 41 39 51 64 67 67 66 65 64 67 67 65 62 42 44 44 40 40
52 54 55 56 55 54 55 57 59 61 60 60 58 59 60 59 58 58 58 58 55 56 53 48 40 40 40 40 48 63 68 69 69 68 68 69 70 71 69 55 47 52 54 46 39 41 40 48 60 64 66 66 65 65 67 68 67 67 66 66 64 62 59
55 54 54 55 56 56 58 58 57 57 57 59 58 56 54 55 53 52 54 56 55 57 55 51 44 39 40 41 41 57 64 64 63 64 66 65 66 68 68 62 49 39 39 39 39 39 41 39 52 58 59 62 64 64 59 60 64 65 67 65 68 67 67
56 56 56 55 55 56 57 56 56 56 56 57 56 54 54 54 54 53 53 51 50 50 52 51 44 39 40 40 40 46 58 56 57 57 60 63 64 64 65 65 55 40 37 38 38 38 39 39 39 52 56 59 61 53 49 61 61 53 65 67 68 68 69
57 57 58 58 56 55 56 56 56 57 57 56 55 55 55 54 54 54 55 54 54 52 51 50 49 40 39 40 39 40 52 51 48 53 57 59 59 59 60 62 55 42 37 38 37 38 37 39 38 49 54 46 42 41 51 54 59 62 64 65 67 67 68
56 57 57 58 58 58 59 58 58 58 58 58 58 57 57 59 59 58 59 61 60 59 56 53 46 47 38 39 37 40 38 48 40 54 59 59 60 62 64 64 53 42 38 38 38 38 38 38 40 50 44 42 42 39 43 56 57 58 60 62 63 63 63
59 58 58 59 58 58 59 60 60 61 61 62 62 61 62 62 62 61 61 62 63 63 62 59 47 45 45 37 39 38 38 37 37 52 54 57 60 62 63 58 51 40 40 39 38 39 39 38 46 43 42 41 39 40 51 53 53 54 53 53 56 57 59

ECMWFFLT1_sfc_temp_069.txt.gz
Temp
63 63 64 64 64 65 65 65 66 67 68 69 69 70 71 71 69 68 69 69 68 69 67 67 67 68 69 69 68 69 67 67 66 64 63 63 62 62 63 63 63 64 65 62 63 59 58 56 57 61 62 61 62 62 62 62 62 62 62 63 63 63 63
64 64 64 65 64 64 64 64 66 67 68 69 71 71 72 71 70 70 69 69 68 69 69 69 68 69 67 67 66 67 66 66 66 65 64 63 63 63 61 61 62 61 61 63 62 62 60 57 56 58 58 63 62 61 61 62 62 63 63 63 64 64 63
64 64 64 63 63 63 63 64 64 65 68 68 69 71 70 71 70 70 70 70 69 69 69 69 68 68 68 67 67 66 66 65 65 65 64 63 64 63 63 62 60 59 60 60 60 60 60 61 57 57 59 58 56 59 61 61 63 63 64 63 64 64 63
64 63 62 62 62 62 63 64 64 64 68 68 68 69 70 71 69 70 68 69 68 68 68 68 67 67 67 67 67 67 66 66 64 65 64 64 64 63 63 62 61 61 59 58 59 60 60 58 58 57 57 59 58 57 60 63 64 65 65 64 63 62 62
64 64 63 62 62 63 63 64 64 65 66 67 67 67 67 68 68 67 68 68 67 67 67 66 67 67 67 68 67 66 66 65 65 65 65 64 64 63 63 63 61 62 62 62 62 61 60 59 59 57 57 59 60 60 64 61 66 66 66 65 65 63 62
64 64 63 63 63 64 64 64 65 65 66 66 66 67 66 67 67 67 67 67 67 67 67 67 66 67 67 66 67 67 65 65 64 65 64 64 64 63 62 63 64 63 63 62 63 62 62 62 61 58 60 61 56 58 62 63 61 66 66 65 65 64 63
64 64 64 64 64 64 65 65 66 66 66 66 65 65 66 68 67 67 68 67 67 66 67 66 66 66 67 67 67 66 66 65 65 65 64 64 64 63 64 63 64 63 62 63 63 63 63 62 60 60 59 59 59 60 63 62 64 63 64 66 65 64 63
64 63 63 65 65 65 65 66 66 66 66 66 66 66 67 68 67 66 67 67 66 66 67 66 67 66 65 67 67 66 66 66 66 65 64 64 65 64 63 63 63 63 63 63 64 64 65 64 63 62 61 57 56 58 58 62 63 63 63 63 65 63 62
63 64 64 64 64 66 66 66 66 65 66 66 66 66 67 67 66 67 67 66 66 66 66 66 66 66 65 65 64 65 65 69 66 65 65 64 64 64 63 63 64 64 64 64 65 64 65 65 64 63 62 61 58 55 56 56 59 60 66 61 61 63 61
63 63 64 63 64 65 65 66 66 66 66 66 66 67 66 67 67 66 67 66 66 66 65 65 66 65 65 65 65 64 65 65 66 66 64 64 64 64 64 63 63 63 64 63 64 65 65 65 66 66 65 62 60 58 54 53 54 57 61 64 58 60 61
63 64 64 64 64 66 65 66 66 66 66 67 68 67 67 67 67 67 65 65 65 65 65 65 66 65 65 64 64 63 64 64 65 65 65 65 64 65 64 64 63 62 64 63 63 64 65 64 65 65 65 64 62 60 56 56 54 57 58 60 60 58 59
63 64 64 64 65 67 66 66 67 66 67 67 67 66 67 66 64 65 65 65 65 65 64 64 65 64 64 64 63 64 63 64 64 63 65 65 64 65 64 63 62 63 62 63 63 63 65 65 66 65 65 63 63 61 60 57 55 57 61 59 60 63 61
64 65 64 64 66 67 67 67 67 66 67 67 67 67 66 65 65 65 64 64 64 64 63 66 65 64 64 63 64 66 64 64 65 64 63 65 68 64 63 63 63 63 62 63 63 63 63 65 65 64 65 63 63 63 61 57 55 57 58 59 59 61 62
64 65 65 65 66 67 67 67 68 68 68 67 67 67 66 65 66 66 65 64 63 62 64 64 64 65 64 62 63 64 63 65 65 63 64 63 65 64 63 64 63 63 63 63 62 62 64 65 64 64 64 62 64 63 63 59 58 57 58 60 60 60 62
65 64 64 64 66 66 67 67 68 69 68 68 68 67 65 66 66 66 64 63 62 63 64 62 63 64 63 61 62 66 65 64 64 64 63 63 62 65 63 63 64 63 64 64 63 65 65 65 66 65 64 64 63 63 62 60 57 54 56 57 57 61 61
66 64 64 64 64 66 67 68 69 68 68 67 68 66 66 66 66 65 64 63 62 62 63 62 61 62 61 61 62 62 64 65 63 62 63 62 64 64 62 62 62 63 65 64 62 63 64 65 67 68 63 63 63 63 64 64 60 57 58 56 58 60 60
66 65 65 64 64 65 66 67 68 68 68 68 67 65 67 66 65 64 64 63 63 63 62 63 63 63 64 61 61 63 64 64 64 64 63 63 64 64 62 62 62 62 62 62 63 62 63 63 64 62 63 62 64 63 61 60 64 58 55 58 58 62 61
66 65 65 64 65 67 67 68 68 68 68 68 66 66 66 66 65 65 64 64 63 62 64 63 62 63 63 61 61 61 63 63 63 63 63 64 65 64 63 63 62 61 60 63 63 62 62 62 66 63 63 63 64 64 63 62 61 63 60 59 58 60 61
63 65 65 65 66 67 67 67 68 67 68 67 66 67 67 66 66 65 64 64 64 63 65 63 63 63 62 61 60 60 61 61 61 63 64 64 64 64 63 63 62 62 60 60 61 60 61 63 65 64 63 63 64 62 61 61 62 60 62 60 59 59 58
61 61 63 66 67 67 67 67 68 67 66 66 66 66 65 66 65 67 64 64 62 60 59 58 58 60 63 61 61 65 63 60 62 65 66 65 65 64 63 64 63 62 61 60 60 60 60 60 61 60 60 59 61 61 61 60 61 62 61 60 57 59 60
61 61 62 66 66 66 67 67 66 66 66 66 65 66 66 65 64 63 60 59 58 57 55 53 54 55 59 61 60 60 59 60 62 64 65 65 65 63 62 62 60 60 61 60 60 59 61 60 60 59 58 59 59 59 58 58 57 59 59 59 58 56 57
61 61 63 66 65 66 66 65 65 65 65 65 65 64 65 64 61 60 59 58 55 54 52 51 48 48 54 59 59 60 60 61 61 63 62 63 63 63 62 61 60 59 60 60 57 58 59 60 60 59 57 58 58 58 58 58 57 55 56 57 58 56 57
60 61 63 66 66 65 66 65 65 65 65 63 61 62 63 62 61 59 57 55 53 51 50 48 46 44 44 54 58 63 61 60 61 60 62 63 63 63 62 61 62 62 58 57 55 50 49 52 56 59 58 58 57 57 56 56 56 56 56 55 54 56 56
59 59 60 64 66 65 65 65 65 64 61 60 60 60 61 60 59 58 56 53 51 48 47 46 42 40 41 50 60 59 59 61 61 60 60 61 60 60 60 61 59 60 60 57 53 48 47 46 46 47 48 52 58 59 56 54 54 55 54 55 55 54 54
59 59 59 59 62 63 63 63 62 61 61 60 60 60 59 57 56 55 53 52 50 48 46 42 40 41 41 43 52 61 62 61 61 59 61 61 61 60 60 59 59 61 60 59 57 53 49 45 44 44 44 44 45 47 51 58 56 54 53 54 54 55 55
58 57 58 59 59 61 61 61 61 60 59 59 58 57 56 55 53 52 51 49 47 46 45 42 41 42 41 42 48 57 62 62 63 62 61 61 61 62 60 59 59 60 60 61 60 57 55 52 48 49 49 49 46 45 44 46 50 55 54 54 54 52 54
56 57 57 57 57 58 58 58 58 58 57 57 55 53 53 51 51 50 49 47 46 45 44 42 41 41 42 42 46 55 61 62 61 60 60 60 61 60 59 58 57 58 55 51 52 56 58 56 55 55 54 53 53 51 47 45 44 46 50 56 54 54 54
54 55 55 55 54 54 55 55 55 55 55 54 53 51 50 50 49 49 48 48 47 46 43 41 41 41 41 42 44 54 61 62 61 60 59 59 60 60 60 60 58 56 53 50 47 46 52 55 55 55 54 55 53 53 54 55 54 52 51 53 53 56 57
53 53 53 53 53 53 52 52 52 52 53 52 51 51 50 50 49 49 49 48 48 47 45 41 42 42 42 42 47 59 61 61 60 59 59 58 58 58 59 60 57 54 51 49 44 41 44 53 54 54 53 53 52 52 52 54 50 50 54 55 56 56 56
51 51 52 52 52 52 52 52 52 52 52 51 50 50 49 49 49 49 49 49 48 47 46 43 41 42 43 44 51 59 59 60 59 58 56 55 54 54 56 57 55 51 50 47 41 41 42 49 54 54 53 53 54 53 53 55 50 47 46 44 42 41 42
50 50 49 49 50 51 51 51 51 52 52 51 51 51 51 51 51 50 49 49 49 47 47 44 41 42 43 44 50 56 57 57 57 56 55 53 51 50 52 54 52 49 48 45 39 41 43 50 51 51 51 52 52 52 50 51 54 54 49 49 48 48 46
48 49 48 48 49 49 49 49 50 50 50 50 50 50 50 49 49 50 51 50 51 48 47 45 42 41 42 44 50 53 54 54 53 53 54 53 51 49 47 45 46 46 45 41 38 39 40 47 51 50 49 49 49 49 46 47 49 49 50 51 53 54 53
48 48 48 48 48 48 49 49 49 49 49 49 48 48 47 47 47 48 48 48 47 47 46 45 43 41 42 43 45 51 51 51 51 51 53 54 52 50 48 46 42 38 38 38 37 37 37 41 47 48 46 46 46 48 46 46 48 46 48 49 50 52 53
48 48 48 48 48 48 48 48 48 48 48 48 48 47 47 48 47 47 46 47 47 46 47 46 43 41 42 42 43 45 47 46 47 48 50 50 50 49 47 45 45 41 39 39 39 38 38 38 38 44 45 46 47 45 42 45 47 45 46 47 48 49 50
50 49 49 48 47 47 48 49 48 48 48 48 48 47 47 47 47 46 46 47 47 46 48 47 46 42 41 41 42 43 45 43 42 46 48 48 47 46 46 47 46 42 40 41 41 41 39 37 36 40 44 42 42 41 43 43 44 45 46 47 46 47 48
49 50 50 49 48 47 48 48 49 49 49 49 49 48 48 48 48 47 47 46 47 47 46 46 44 44 41 40 40 40 41 43 42 48 48 47 46 45 45 45 46 43 40 41 41 40 40 38 37 38 38 38 38 37 38 41 41 44 43 44 45 46 45
52 52 51 50 49 48 48 49 48 48 49 49 49 49 49 48 47 47 47 46 47 47 45 44 42 41 42 40 40 40 40 38 39 43 46 44 43 43 43 42 42 40 40 40 40 40 39 40 38 38 38 39 37 37 40 40 40 43 41 41 43 43 45

ECMWFFLT1_sfc_temp_075.txt.gz
Temp
65 64 64 64 65 64 63 63 63 63 64 64 64 64 64 64 64 63 64 64 64 64 64 64 64 64 64 65 64 64 63 63 62 61 60 60 59 59 59 57 57 59 62 56 59 58 57 55 56 60 61 61 61 60 58 58 58 59 60 60 60 58 57
65 64 65 65 64 64 62 61 62 62 62 63 64 64 64 64 65 64 64 64 64 64 65 64 64 64 64 63 63 62 61 62 62 62 61 60 60 59 57 55 58 57 57 56 58 57 57 56 56 57 58 60 61 60 59 59 59 58 60 60 60 59 58
63 63 64 63 63 63 62 61 61 61 62 62 62 63 63 64 64 64 64 64 64 64 65 64 64 64 64 64 64 63 62 62 62 62 62 60 61 59 58 57 56 55 56 55 56 56 57 57 56 56 58 57 56 58 59 58 58 58 60 61 59 58 57
62 63 63 62 62 62 61 61 61 61 61 62 62 63 63 64 64 65 64 64 65 65 65 64 63 63 63 64 64 63 63 63 62 62 61 60 61 59 58 59 59 59 58 55 56 57 56 55 56 57 58 58 57 56 56 57 58 60 62 60 58 57 56
62 63 63 62 62 62 61 61 60 60 61 61 61 62 62 63 64 64 64 64 64 64 64 64 64 63 63 63 63 63 63 62 62 62 61 60 60 59 58 59 60 60 59 58 58 59 57 56 58 57 57 56 56 55 57 57 59 60 61 61 59 57 58
62 62 62 62 62 61 61 60 60 60 60 61 61 62 62 63 64 63 63 63 63 64 63 63 63 63 63 63 63 62 62 62 62 62 60 60 61 60 59 58 59 60 58 58 59 58 58 58 58 56 57 59 54 54 56 58 59 62 62 61 60 57 57
61 62 62 62 61 61 61 61 61 61 61 62 61 62 63 63 63 64 64 64 64 63 63 63 63 63 64 63 62 62 62 62 62 62 61 61 61 61 60 58 58 58 57 59 59 59 58 58 56 56 56 54 53 55 56 57 60 59 60 61 60 57 57
62 62 62 62 62 61 61 61 61 61 61 62 62 63 62 63 63 63 63 63 63 62 62 62 64 63 63 63 63 62 62 61 62 61 60 61 61 60 59 60 60 58 58 59 60 59 60 60 59 57 57 54 52 54 55 57 57 56 56 57 59 57 55
61 62 61 62 62 62 61 62 62 61 62 62 62 62 62 63 62 62 63 62 62 62 62 63 63 63 63 63 61 62 61 62 61 61 60 61 61 60 60 59 60 59 59 59 60 60 60 60 60 59 58 58 55 52 54 55 55 55 57 53 56 56 55
62 61 62 61 61 61 61 61 61 61 61 62 62 62 62 61 62 62 62 61 62 62 62 62 63 62 63 63 62 61 61 61 61 61 59 61 60 60 59 60 60 59 58 60 60 60 60 60 60 61 60 59 58 55 53 52 53 51 55 52 53 54 55
62 62 62 62 61 61 60 61 61 60 60 60 61 63 62 62 62 64 62 61 61 61 62 61 62 62 62 61 62 61 61 61 61 60 60 61 60 60 59 59 59 59 59 60 60 60 60 60 60 59 58 55 54 56 54 52 51 50 52 53 51 53 52
62 63 62 62 61 61 61 60 61 61 61 62 63 62 62 62 62 61 61 61 61 61 61 61 61 61 61 61 60 60 59 61 61 60 60 61 60 60 59 59 57 59 59 59 60 60 60 59 59 58 57 57 56 54 55 53 51 51 53 54 52 52 54
62 62 62 61 61 61 61 61 61 61 62 62 62 63 63 62 62 61 61 61 61 60 60 60 61 60 60 61 60 60 60 61 61 60 59 58 61 60 59 59 58 59 58 59 59 59 59 59 60 59 58 58 55 55 55 54 52 54 52 53 52 52 54
61 62 61 61 61 61 61 62 62 62 62 62 62 62 63 62 62 62 61 61 61 60 60 59 60 60 60 59 59 60 59 61 61 59 59 58 60 60 60 60 59 58 58 59 58 59 59 59 59 59 59 56 56 54 57 53 51 50 52 50 49 52 52
60 60 59 60 61 61 62 62 62 63 62 62 63 63 63 62 62 62 61 60 60 60 60 59 58 59 59 58 58 60 60 60 60 59 59 60 59 61 60 60 59 57 58 58 57 59 59 59 60 59 58 58 58 56 55 57 50 49 52 52 51 50 51
60 60 60 60 60 61 61 62 62 63 63 62 62 64 63 62 62 62 61 61 60 59 59 58 58 59 58 59 58 58 59 59 60 59 59 60 60 59 58 59 58 58 60 58 57 57 58 59 60 61 59 58 59 57 57 57 53 52 52 51 49 51 51
60 60 60 60 60 60 61 62 64 64 64 63 62 62 64 63 63 62 61 60 59 59 59 58 58 58 59 58 58 58 58 58 59 60 60 60 60 59 59 58 57 58 59 58 57 56 57 59 59 60 59 58 59 58 57 55 58 53 51 53 50 53 52
60 60 61 60 61 61 62 63 64 65 64 63 63 62 63 63 62 62 61 61 60 59 59 59 58 57 57 58 59 58 58 58 58 58 59 59 61 60 59 59 58 58 58 59 58 57 57 57 60 60 60 59 59 59 57 57 58 55 54 54 52 50 50
60 60 60 59 60 61 62 63 64 65 65 64 63 63 63 62 63 62 62 61 61 60 59 58 58 58 57 57 57 58 58 58 58 58 57 58 60 59 59 58 58 58 58 59 58 57 57 59 58 58 60 59 57 56 56 55 56 55 57 55 53 50 49
59 60 60 60 60 60 61 61 62 63 65 65 63 62 63 63 62 62 61 61 61 59 57 57 57 56 56 56 57 57 57 56 57 57 56 57 58 58 58 57 57 57 59 58 58 57 55 55 57 56 56 55 56 55 55 55 55 55 54 52 50 52 51
59 60 59 60 60 61 61 61 62 62 63 64 64 63 62 62 60 59 58 58 57 56 55 55 54 54 55 56 56 57 58 57 57 56 56 56 57 58 58 57 59 60 58 56 56 56 56 55 54 53 51 54 54 54 53 52 52 52 51 51 50 49 49
59 60 59 60 60 60 61 61 60 59 60 62 64 62 60 59 58 56 55 55 54 54 56 55 52 53 56 55 56 57 57 58 57 56 55 55 55 56 56 55 56 58 59 60 56 57 57 58 57 55 51 53 53 53 52 52 52 50 49 51 51 49 49
59 59 59 59 60 60 60 59 59 59 60 59 59 59 58 58 57 55 54 52 52 53 51 50 48 46 50 54 55 58 57 57 57 56 56 54 54 55 55 54 57 59 56 54 52 48 48 50 55 57 54 54 53 53 52 51 50 50 51 50 49 48 48
59 58 59 59 59 59 59 59 59 59 58 58 58 58 57 56 55 54 54 52 51 49 47 48 46 41 41 47 55 57 57 56 56 56 56 55 54 55 54 54 54 56 55 53 50 46 45 45 45 46 47 49 53 55 54 53 50 49 49 49 46 47 46
59 59 59 59 59 59 58 58 57 57 56 56 56 57 55 54 52 51 50 50 48 47 46 45 44 45 44 46 53 57 57 57 56 55 55 55 55 55 54 53 53 55 54 53 52 52 49 46 45 45 44 44 43 43 46 52 51 49 48 50 49 48 48
58 58 58 59 58 58 57 57 56 55 55 54 55 55 53 52 51 50 50 49 47 46 45 42 45 45 44 46 48 54 57 58 57 55 55 55 55 54 53 53 52 52 54 57 55 53 54 51 47 47 47 47 46 44 42 43 46 53 50 50 49 47 48
57 57 57 57 57 57 57 56 53 53 53 53 52 52 51 50 50 49 48 47 45 44 44 43 45 44 44 45 47 51 56 57 57 56 55 54 54 53 53 53 52 51 51 52 53 54 53 53 53 53 52 52 52 49 46 45 44 45 49 52 51 51 50
53 55 56 56 55 54 53 52 52 51 50 51 51 50 49 48 48 48 47 46 46 44 44 41 44 43 44 46 47 50 56 56 55 54 54 54 53 52 52 52 52 51 50 50 50 51 53 53 53 52 51 51 50 49 49 49 49 49 49 49 50 49 49
50 52 53 53 52 51 50 50 48 48 47 46 46 49 48 48 47 47 46 46 47 45 44 41 43 44 44 46 49 55 54 53 53 53 53 53 52 51 50 50 49 49 49 48 45 43 49 52 53 52 51 50 49 48 48 47 44 45 47 48 48 47 47
48 49 50 50 49 48 47 47 46 47 46 45 45 45 47 47 47 46 46 45 45 44 43 42 41 43 45 47 50 53 52 52 51 50 49 50 49 50 50 49 47 47 47 46 42 41 44 50 52 51 51 49 49 49 48 48 43 42 42 41 41 41 41
48 48 48 48 48 47 47 47 46 46 45 44 44 44 46 46 46 46 45 44 44 43 43 42 41 42 44 47 50 53 52 51 48 47 45 46 46 46 48 51 51 48 47 45 40 41 43 50 52 51 51 50 49 48 47 47 49 48 45 43 43 43 43
49 48 47 47 47 47 47 47 47 46 45 44 43 44 46 46 45 45 45 46 48 44 43 43 41 41 43 46 51 53 52 50 47 46 45 44 45 45 47 46 45 44 44 41 38 38 40 48 51 50 49 49 48 47 45 46 47 47 47 46 46 47 48
47 48 48 47 47 47 47 46 45 44 44 44 43 43 43 44 44 44 45 44 44 44 43 43 42 41 42 43 46 52 51 49 47 45 46 46 45 44 44 44 43 39 39 39 38 37 37 40 48 47 48 48 46 45 45 46 45 45 45 44 44 45 46
46 47 48 48 47 47 47 46 45 45 44 43 43 43 43 43 42 42 43 43 44 44 44 43 41 40 41 42 43 46 49 49 48 47 45 44 44 43 43 43 43 40 38 38 38 38 38 37 39 45 46 46 44 43 43 45 44 44 45 44 45 45 45
46 46 47 48 47 46 47 47 46 45 44 44 43 43 42 42 42 41 42 42 42 42 43 43 42 40 40 40 41 43 46 46 46 46 45 44 44 44 44 43 42 39 37 38 38 38 38 37 38 44 40 36 36 38 43 43 43 44 44 43 44 44 43
44 45 45 46 47 46 46 46 46 45 44 44 43 43 43 43 42 41 41 41 41 42 42 42 40 40 39 39 39 40 41 43 42 48 47 45 44 43 43 42 42 39 38 38 39 38 38 36 40 40 36 35 35 36 39 40 41 42 42 42 42 41 40
45 44 44 45 45 45 46 46 46 45 45 44 43 43 43 42 42 41 40 40 40 41 41 41 40 39 39 38 38 38 38 38 40 44 44 42 40 40 40 40 40 38 39 39 39 38 38 38 39 37 36 35 36 37 39 38 37 38 39 39 40 39 39

ECMWFFLT1_sfc_temp_078.txt.gz
Temp
63 63 65 65 65 64 63 64 64 64 64 64 65 65 65 65 64 63 63 63 63 63 64 64 63 63 64 64 64 64 63 64 64 62 61 62 60 61 60 60 59 60 63 59 63 60 58 55 57 61 62 61 62 62 62 61 61 62 61 61 61 61 61
64 64 65 65 64 63 63 63 64 64 64 64 64 64 64 64 65 64 63 63 63 63 65 64 64 64 64 63 63 62 62 62 63 63 62 61 61 60 58 57 60 60 59 60 61 60 59 56 56 57 58 60 61 61 60 61 61 61 61 61 62 61 61
64 63 64 63 63 62 62 62 63 63 63 63 64 64 64 64 64 64 64 64 64 64 65 64 64 64 64 64 64 63 63 62 62 63 62 62 62 61 61 59 58 58 59 59 59 59 60 60 57 57 58 58 57 58 61 60 61 61 62 62 61 61 61
63 63 63 63 63 62 62 62 62 62 63 63 63 63 63 64 64 64 64 64 64 65 65 64 64 64 64 64 64 64 63 63 62 62 62 62 62 61 60 61 61 61 60 58 59 59 58 57 58 58 59 60 60 58 60 60 62 62 63 62 61 60 60
64 63 63 62 61 62 62 62 62 62 62 62 62 62 62 63 63 63 64 64 64 64 64 64 64 64 64 64 64 63 63 63 63 63 62 61 61 61 60 61 61 62 61 61 61 61 60 60 60 58 58 59 59 59 60 60 63 63 63 62 61 61 61
63 63 63 62 62 62 62 61 61 61 61 61 61 61 62 62 63 63 63 63 63 64 64 64 64 64 64 64 64 63 63 62 62 62 62 61 62 61 61 60 61 61 61 61 61 61 60 61 61 58 60 61 57 56 59 61 60 62 63 62 62 62 62
62 62 62 62 62 62 62 61 61 61 61 61 61 61 62 63 63 63 64 64 64 64 64 64 64 64 64 64 64 63 63 63 63 63 63 62 62 63 62 60 61 61 60 61 61 61 60 60 59 59 58 57 59 58 59 60 61 60 61 62 62 62 61
61 61 61 62 62 61 61 61 61 61 61 62 62 63 63 63 63 63 63 64 63 63 64 63 64 64 64 64 64 63 63 63 63 63 62 62 61 61 61 62 61 60 60 61 62 62 63 62 61 60 60 56 56 58 57 59 60 60 60 61 62 61 61
62 62 61 61 61 62 62 62 62 61 62 62 62 62 62 63 63 63 63 63 63 63 63 63 63 63 64 63 62 62 62 63 62 62 62 62 62 62 62 61 61 61 60 61 62 62 63 63 62 62 62 61 57 53 56 56 57 58 60 60 60 61 60
62 61 61 61 61 61 62 61 61 62 62 62 62 62 62 62 63 63 63 63 63 63 63 63 63 63 63 63 63 62 62 62 62 62 61 62 62 62 61 61 62 61 60 61 62 62 62 62 63 63 64 62 61 57 54 54 56 56 59 59 60 59 60
62 62 61 61 62 61 60 61 61 60 60 61 62 62 62 62 62 64 63 62 62 62 63 63 63 63 63 63 63 63 63 62 62 61 61 62 61 61 61 61 61 60 60 61 62 62 62 62 62 63 63 62 62 60 57 55 55 58 58 57 58 60 57
61 61 61 61 61 61 61 60 60 61 61 61 62 62 61 62 62 62 62 62 61 62 62 62 62 62 63 62 62 62 61 62 62 61 60 62 61 61 61 60 60 60 60 61 61 61 62 62 62 63 61 61 60 60 59 58 55 57 59 59 58 58 59
61 61 61 60 60 60 61 61 61 60 61 62 62 62 62 62 62 62 61 62 61 61 61 61 62 62 62 62 62 61 61 62 62 61 60 60 61 61 61 60 60 60 60 60 60 61 61 61 62 62 61 61 60 59 60 58 57 59 56 58 58 57 58
61 61 61 61 60 61 61 61 61 62 62 61 62 62 62 62 63 62 62 62 61 61 61 60 61 62 62 61 61 62 61 62 62 61 60 60 61 61 61 61 60 60 60 60 60 61 61 61 62 62 61 61 59 59 61 58 58 55 56 54 55 57 57
60 60 60 60 60 60 61 61 62 62 62 62 62 62 62 62 63 62 62 62 61 61 61 61 60 61 61 60 60 61 61 62 62 61 60 61 60 61 61 61 60 59 60 61 60 61 60 61 62 62 61 61 60 59 61 61 56 56 57 55 56 55 56
61 60 60 59 59 60 60 61 61 61 62 62 62 63 63 62 62 62 63 62 61 61 61 61 60 61 61 61 60 60 61 62 62 60 60 61 61 61 60 61 59 59 60 60 60 60 60 61 61 63 62 62 61 59 60 62 58 56 56 56 55 56 56
60 60 59 59 60 60 61 61 61 62 63 62 62 62 63 63 62 62 62 62 61 61 60 60 60 60 61 61 60 60 60 61 62 61 61 61 61 61 61 60 59 59 60 59 58 58 60 61 61 62 62 61 61 60 59 59 62 58 56 57 54 59 56
59 59 59 59 60 60 60 61 61 62 61 61 62 62 62 62 62 62 62 62 61 60 60 60 60 59 59 60 61 61 60 61 61 61 61 61 62 61 61 61 59 60 60 60 59 59 60 60 61 60 62 62 62 61 59 59 60 59 58 58 56 55 55
59 59 59 59 60 60 60 61 61 61 62 62 61 61 62 62 63 63 63 62 62 62 61 61 60 60 60 59 59 60 60 60 60 61 60 60 61 61 61 60 60 60 61 61 60 60 60 61 61 61 62 62 62 61 60 58 59 58 60 59 57 55 54
60 60 59 59 59 60 60 60 61 61 62 63 62 61 62 62 62 63 63 62 62 62 61 60 60 59 59 59 59 59 59 59 59 59 59 60 60 60 59 59 59 60 60 61 61 60 60 60 60 60 61 61 61 60 59 59 59 58 58 57 55 56 55
59 59 60 60 60 60 60 60 61 61 61 61 62 62 62 62 61 62 61 62 62 61 60 59 59 59 59 59 59 59 59 58 58 58 58 59 59 59 59 60 60 60 62 61 61 60 60 60 60 60 58 59 58 58 58 57 56 57 57 57 57 55 54
60 59 59 59 59 60 60 60 61 60 60 60 59 59 60 61 60 59 59 60 59 59 59 59 58 58 58 58 58 59 58 58 58 57 57 58 58 59 59 60 60 60 61 60 55 56 56 57 59 59 56 57 57 57 56 56 55 56 55 56 54 53 54
59 60 59 59 60 60 60 60 60 60 60 59 59 60 59 59 60 59 58 57 57 57 57 57 56 54 55 59 58 59 58 58 58 58 57 57 56 57 57 57 60 60 56 54 51 48 49 51 55 59 57 57 57 56 55 55 55 55 55 55 54 54 54
56 59 59 59 60 60 60 59 59 59 59 59 59 58 57 57 57 58 58 57 55 55 54 53 46 44 47 51 57 58 58 57 58 57 57 57 56 55 55 55 56 56 55 53 50 46 45 45 45 46 48 52 56 59 56 54 54 55 55 55 52 53 53
54 57 59 59 59 60 60 58 58 58 58 57 57 56 55 56 56 55 55 55 55 53 52 48 43 41 42 46 52 58 58 58 57 57 56 56 56 55 55 55 55 55 54 53 52 50 47 44 43 43 42 42 42 43 47 56 55 54 54 54 53 53 54
52 55 58 59 59 59 59 58 57 57 57 56 55 55 54 54 53 52 53 53 52 51 50 44 44 44 43 45 47 54 58 58 57 56 56 56 56 55 55 55 55 55 57 57 55 52 50 49 45 44 45 45 44 43 42 42 47 58 57 56 54 52 54
51 52 54 57 57 57 57 57 55 54 54 54 53 52 51 51 51 51 51 50 49 48 47 43 43 43 43 44 46 51 57 56 56 56 55 55 55 55 55 55 54 53 54 55 56 56 55 55 55 55 54 54 53 51 46 45 44 45 51 56 56 55 54
49 50 51 52 55 55 53 51 51 50 50 50 50 49 49 49 49 48 48 48 48 46 45 42 41 42 43 45 46 50 56 56 55 54 53 53 53 53 54 55 54 52 52 52 52 54 55 55 54 53 52 51 50 49 49 50 51 53 53 53 54 54 52
49 49 49 49 48 48 48 48 47 47 46 46 45 46 46 47 47 47 47 48 48 46 45 40 41 42 44 45 48 55 55 54 53 52 52 52 51 52 52 53 52 51 50 50 46 45 50 55 54 52 50 49 49 48 47 44 41 43 48 50 51 50 50
47 48 48 47 46 46 46 46 46 46 44 43 43 42 43 44 45 46 46 47 47 46 46 42 42 42 44 46 49 54 53 52 52 50 50 50 50 51 51 51 50 49 48 47 43 43 45 50 54 52 51 49 49 50 49 49 43 40 39 39 39 39 40
47 47 47 46 45 45 45 44 44 44 43 42 42 42 43 43 44 45 45 46 46 46 45 43 41 43 44 45 50 53 51 50 48 47 47 48 49 50 51 52 51 49 48 46 41 43 45 51 53 52 51 50 50 49 48 49 50 48 43 42 41 41 41
47 46 46 45 45 44 44 43 44 44 43 43 43 43 43 42 43 43 44 45 47 44 44 44 41 41 43 45 50 52 51 49 47 46 47 46 46 47 47 46 46 47 47 42 39 41 44 50 53 53 52 51 49 47 47 48 49 50 51 52 51 51 49
46 46 46 46 46 45 45 44 44 43 43 43 43 43 43 42 42 42 43 43 43 44 43 42 41 40 42 44 46 52 52 50 47 46 47 47 46 46 46 45 43 38 39 39 39 38 39 43 50 50 51 50 48 46 47 47 48 49 49 49 48 48 48
46 46 47 46 46 46 45 44 44 44 43 43 43 42 42 42 42 41 42 42 42 42 43 42 41 39 40 41 43 47 50 50 48 48 46 46 45 45 44 43 43 40 38 39 39 39 40 40 43 47 48 47 46 46 45 47 46 46 48 47 47 47 47
45 46 47 47 46 45 45 45 45 44 44 43 43 43 43 42 42 41 41 42 42 41 43 42 41 39 39 40 40 42 47 47 47 47 45 44 44 43 43 43 42 39 38 38 38 39 40 40 41 44 40 38 38 40 44 45 46 47 47 47 46 45 45
43 44 45 46 46 45 45 45 45 45 44 43 43 42 42 42 42 41 41 41 41 41 41 41 40 40 38 38 39 39 40 43 42 47 46 44 43 42 43 42 42 39 38 38 38 39 39 39 40 38 36 37 37 38 41 44 45 45 45 45 44 44 44
42 42 43 44 45 45 45 45 45 44 44 43 42 41 41 41 41 40 40 40 41 41 41 41 40 39 39 38 38 38 38 38 40 43 43 42 42 42 42 42 40 38 38 38 38 37 37 37 37 36 36 37 38 40 44 44 44 43 42 43 43 43 43

ECMWFFLT1_sfc_temp_081.txt.gz
Temp
65 65 67 67 68 66 65 66 68 68 69 70 69 70 71 71 71 71 71 71 71 72 71 72 73 74 74 75 73 75 74 72 70 69 68 68 65 67 70 68 69 70 73 73 72 68 67 63 61 65 68 67 66 67 69 68 67 67 66 67 68 68 70
66 66 67 67 65 65 65 66 67 67 68 69 70 70 70 71 71 71 71 71 71 71 71 73 73 74 73 72 71 71 71 71 70 71 70 68 68 69 69 69 71 70 71 71 72 71 69 67 62 63 62 65 66 67 68 67 66 67 67 67 68 69 69
65 65 66 66 65 64 64 64 64 64 65 66 68 71 70 71 70 71 71 71 71 72 72 74 73 73 72 72 72 71 71 70 71 71 70 71 71 72 71 70 69 69 69 69 70 70 69 69 66 65 65 62 61 64 66 65 66 66 67 68 68 70 69
66 65 64 62 62 63 64 64 63 64 65 65 65 67 68 70 70 70 70 71 72 72 73 74 73 73 73 72 73 72 71 71 71 70 70 70 71 71 71 71 71 70 69 68 69 69 69 67 68 66 66 66 66 62 63 65 67 68 69 69 69 69 69
66 64 64 62 62 64 65 64 64 63 64 65 65 66 68 70 70 69 70 71 71 71 72 73 73 73 73 74 73 72 71 71 72 71 70 69 69 70 70 71 71 73 72 72 73 72 71 70 69 67 66 66 67 67 66 64 68 67 67 69 69 69 70
66 67 66 65 65 64 64 64 65 64 64 63 64 65 67 69 70 69 69 69 70 71 72 73 73 74 74 73 73 72 72 71 71 70 71 70 70 69 70 72 73 73 73 74 74 73 72 72 71 68 69 69 65 65 66 66 64 67 68 68 69 70 71
66 68 69 69 69 67 66 64 65 65 65 65 65 65 68 70 70 70 70 70 72 72 72 72 73 74 74 74 73 72 72 72 72 71 71 72 71 71 71 71 70 72 73 74 74 73 71 71 70 69 67 66 67 66 66 66 67 65 65 68 70 71 71
68 70 70 71 69 67 65 65 65 65 66 66 66 67 67 68 70 71 71 71 71 72 72 72 73 73 73 74 74 73 73 72 72 72 72 72 71 70 69 71 71 69 70 73 74 74 75 73 72 71 69 63 63 63 61 64 65 67 68 68 70 72 73
67 68 69 69 68 66 65 64 65 65 67 68 67 66 65 67 69 70 71 72 72 72 72 73 73 73 73 72 73 72 71 74 71 71 72 72 71 70 68 69 71 72 71 73 74 74 76 75 74 72 71 69 65 60 60 59 62 65 70 68 70 73 73
66 66 66 65 65 65 64 64 65 66 68 69 68 67 66 68 70 72 73 73 72 72 72 73 73 73 73 72 73 72 72 72 71 72 72 72 70 69 69 69 71 73 73 73 73 74 74 73 74 74 74 71 71 66 61 61 61 63 68 72 70 72 74
65 65 65 65 65 64 62 63 65 65 66 67 68 67 68 68 70 71 72 72 73 73 73 73 74 73 72 72 72 72 73 72 70 71 72 72 70 70 69 68 70 72 73 73 73 73 73 72 73 74 74 75 74 70 67 65 65 67 68 71 73 72 72
66 65 65 67 66 63 62 63 65 66 67 67 66 66 67 70 71 71 72 72 72 73 73 72 72 72 72 72 72 71 71 70 70 71 71 71 71 71 70 69 67 70 69 70 72 72 72 72 73 74 74 74 72 71 70 69 65 68 72 68 71 74 73
67 67 67 65 64 64 64 64 66 67 67 66 65 67 68 69 70 70 70 71 72 72 72 72 73 73 71 72 72 71 70 69 70 70 70 70 72 71 71 71 71 71 69 71 71 72 72 73 73 74 73 72 72 72 72 70 68 66 70 72 72 72 73
66 66 65 65 65 66 65 66 67 68 69 67 67 67 68 69 70 71 71 71 72 71 71 71 73 73 73 72 71 71 70 70 71 71 70 69 73 72 72 73 72 71 67 70 72 72 73 73 72 73 73 73 72 72 72 70 69 68 68 68 70 72 71
65 65 64 64 64 66 66 66 67 68 67 68 69 69 70 70 71 71 72 72 72 73 72 72 71 73 72 71 71 72 71 68 70 71 70 71 71 72 71 72 72 71 72 72 72 74 74 73 74 73 73 73 73 71 73 73 72 70 67 67 68 72 70
64 64 63 64 64 65 66 66 68 67 68 69 69 70 70 71 70 71 70 71 72 72 72 71 70 71 71 72 72 71 71 71 71 71 70 71 73 73 71 71 71 71 71 71 71 72 73 73 75 74 73 74 73 73 74 75 72 70 70 68 70 70 70
63 63 63 63 64 66 67 67 68 68 70 69 69 69 70 71 67 67 69 71 71 71 71 70 70 72 72 72 73 72 72 71 72 72 72 72 73 72 72 71 71 71 71 70 71 71 72 72 72 74 73 73 73 72 72 72 73 73 72 70 68 74 72
61 62 62 63 64 66 67 67 67 68 69 69 70 69 69 67 66 66 67 68 70 71 71 71 71 71 72 72 73 73 72 72 72 72 72 71 71 71 71 71 72 72 71 71 70 70 72 70 73 73 73 74 73 73 71 72 73 74 71 71 69 70 70
59 61 62 63 63 64 65 66 67 66 68 69 69 69 68 67 66 65 66 67 68 71 73 72 72 72 72 72 72 72 72 72 72 73 72 71 70 70 70 72 71 72 72 71 70 70 71 71 72 72 72 73 74 73 70 71 71 72 73 72 71 67 67
58 60 62 63 64 65 66 66 66 66 68 69 69 68 68 68 67 65 64 65 67 70 72 73 72 72 72 72 72 72 71 71 71 71 72 72 71 71 71 73 72 72 72 72 71 70 70 70 70 71 71 70 73 72 69 70 71 71 70 71 71 71 69
57 58 61 63 64 65 66 66 66 66 67 68 69 70 70 68 68 65 65 65 69 72 72 71 71 72 72 72 71 71 71 70 71 70 70 71 71 71 72 72 72 72 73 73 73 72 71 70 71 70 71 70 71 70 69 69 69 70 69 70 70 69 69
58 59 60 61 63 63 64 65 65 65 65 66 67 69 70 69 67 66 66 67 70 71 71 70 70 70 70 71 70 69 71 71 70 70 70 71 71 71 72 72 72 72 72 69 63 65 66 66 71 71 65 65 69 69 70 70 69 69 70 69 68 69 68
58 59 60 60 62 63 64 64 65 65 64 64 67 68 68 69 68 67 67 69 70 69 69 70 63 57 61 71 70 69 68 69 70 70 69 69 69 70 70 70 69 64 61 59 56 54 53 54 58 68 68 67 68 68 69 69 69 70 69 68 69 68 67
57 57 58 59 61 62 63 63 63 64 64 64 63 65 66 66 66 67 67 68 68 68 67 67 52 47 50 54 68 69 68 67 67 68 69 69 68 68 68 70 69 62 60 58 54 45 47 49 50 52 55 59 63 70 70 68 69 69 69 69 69 68 68
56 56 57 58 59 61 63 62 62 62 62 61 61 63 63 63 63 63 64 66 67 67 67 54 46 46 47 48 55 69 69 68 67 69 70 70 69 68 67 67 66 66 66 65 62 57 49 43 44 45 46 48 49 50 54 67 69 68 68 68 67 68 68
55 55 55 56 57 58 59 60 61 59 60 62 61 60 61 62 62 61 60 60 63 63 63 43 42 42 44 45 48 60 72 70 69 69 70 69 68 67 66 65 64 64 63 57 62 61 58 53 44 42 43 44 43 44 45 48 54 69 70 69 67 67 69
53 54 55 55 54 53 53 52 54 57 58 59 59 58 57 58 57 56 56 57 58 59 58 45 42 42 42 44 45 56 71 69 68 68 67 67 66 66 65 65 65 63 63 63 63 62 63 63 63 63 64 65 63 54 46 44 47 51 63 71 69 67 67
52 53 54 53 52 50 49 49 50 49 51 52 52 52 52 51 51 51 52 53 55 55 50 40 41 41 42 43 46 55 67 66 66 66 65 65 65 66 66 65 65 64 64 64 64 63 64 64 63 62 62 62 62 61 60 61 63 67 69 70 71 69 67
51 52 52 52 51 48 47 47 46 47 47 47 48 49 48 49 49 49 49 51 53 53 49 39 40 41 42 44 48 64 65 64 64 64 64 64 64 66 66 65 64 63 63 61 53 49 56 65 63 61 58 57 56 55 52 45 40 43 54 62 64 63 59
50 51 52 51 50 48 46 46 45 46 45 45 45 45 46 46 47 47 47 48 50 51 50 43 40 42 43 45 54 63 63 64 63 62 61 62 63 63 63 64 64 62 62 61 48 45 47 54 61 59 57 59 59 58 57 54 44 40 40 40 39 38 39
50 51 51 50 49 49 48 47 46 47 45 44 44 44 45 44 45 45 45 46 47 48 48 44 41 43 44 47 55 62 63 63 61 60 58 59 61 61 58 53 59 61 60 58 42 44 46 57 63 61 60 57 57 58 57 58 57 52 42 41 40 39 39
50 51 50 50 50 49 48 47 47 47 46 45 44 44 44 43 43 43 44 45 47 47 46 45 41 40 42 46 56 61 61 61 59 58 57 55 57 57 55 51 49 54 56 48 41 44 48 57 63 62 60 60 58 57 57 59 58 58 59 58 58 58 55
50 51 51 50 50 50 50 48 47 47 47 46 44 44 43 42 42 42 43 43 43 44 43 43 42 39 41 42 47 58 58 57 55 55 56 56 56 55 53 53 47 39 40 41 42 42 46 50 61 61 62 62 60 56 59 60 61 61 59 59 59 60 59
48 50 51 51 51 50 49 48 47 47 48 48 46 44 43 42 42 41 42 43 43 43 43 43 41 39 40 40 41 48 56 55 56 55 54 53 54 52 50 47 46 40 39 39 40 40 42 44 49 62 62 62 60 56 55 59 56 52 60 58 58 59 59
47 47 49 51 51 50 50 50 49 47 47 46 46 45 44 43 42 42 42 42 43 42 43 42 42 40 39 40 40 42 49 48 48 52 51 51 50 49 47 46 45 40 38 39 39 39 40 41 43 54 50 41 40 44 57 57 58 59 59 59 58 57 59
44 45 45 47 50 50 51 50 50 48 46 45 45 44 44 44 43 42 42 42 42 43 43 42 40 40 39 39 39 39 40 43 42 47 47 46 45 44 45 45 43 39 38 38 38 38 39 40 42 42 38 39 40 41 47 54 53 55 56 56 55 54 55
45 45 45 45 46 47 48 49 49 49 48 46 44 43 43 43 43 42 41 41 42 42 43 43 41 39 39 38 38 39 39 39 40 44 44 43 43 43 43 43 40 37 37 37 37 37 38 39 39 37 38 39 41 44 51 51 50 51 50 51 51 51 52

ECMWFFLT1_sfc_temp_084.txt.gz
Temp
71 70 71 70 69 69 67 67 66 67 67 68 68 70 72 71 72 71 75 75 75 76 76 71 70 69 70 71 69 70 74 75 74 73 73 75 69 70 75 74 75 75 78 79 77 74 71 67 68 72 74 72 73 75 75 75 74 75 74 74 74 75 78
73 73 73 72 69 67 66 65 66 66 66 67 68 69 71 72 72 73 73 74 74 74 77 76 73 76 75 75 73 74 71 72 74 74 73 73 74 74 73 73 75 76 76 77 77 75 72 69 69 68 69 72 73 74 74 75 75 74 74 75 76 75 76
73 72 70 69 66 65 64 65 66 66 66 66 68 69 71 73 73 73 72 74 73 75 75 77 78 78 77 76 76 75 67 68 74 73 73 74 75 76 76 75 73 73 74 75 74 74 73 72 67 67 71 66 64 70 73 73 74 74 75 75 74 77 76
72 71 68 69 67 63 64 65 65 65 65 66 67 69 70 71 72 73 74 74 73 74 75 77 77 79 78 76 75 75 73 73 74 74 73 74 75 75 75 75 74 74 73 72 72 74 73 71 70 71 73 74 71 69 71 74 75 77 77 75 75 76 76
73 72 70 66 66 65 65 65 65 65 65 66 67 67 67 69 71 73 74 74 72 72 72 74 78 79 79 78 76 74 73 74 75 73 73 73 73 75 74 75 74 75 75 74 75 74 73 71 71 71 73 76 77 75 75 72 75 75 75 76 77 75 74
72 71 72 67 68 67 66 64 65 65 66 66 66 67 67 68 70 72 72 72 73 69 68 71 77 79 79 78 77 74 71 74 74 73 73 73 73 74 73 74 76 76 76 77 77 75 75 74 71 71 75 78 72 73 75 73 71 75 77 76 77 77 77
73 73 73 73 70 71 70 67 66 65 65 67 70 69 70 72 71 70 72 73 73 72 68 71 76 78 78 79 77 75 74 75 75 74 74 74 74 74 75 73 75 77 76 77 77 76 74 73 72 71 72 74 74 74 76 74 75 72 73 76 78 79 78
73 73 74 75 73 71 73 73 71 68 67 67 68 70 71 72 72 71 71 71 72 72 72 70 74 77 77 78 78 72 71 76 75 75 75 74 74 74 74 73 75 75 77 78 77 76 75 76 76 73 73 69 69 72 71 75 75 74 75 75 77 78 78
71 72 73 74 75 74 74 73 73 71 70 68 69 69 68 69 70 70 71 71 70 70 72 73 76 76 74 74 74 73 70 76 76 75 76 75 73 72 74 76 76 76 77 79 80 78 79 78 77 76 75 74 70 66 69 69 72 74 77 73 76 79 79
71 71 73 73 73 74 73 71 72 72 71 70 71 71 70 69 69 70 68 68 71 71 71 74 76 76 74 70 70 72 73 78 77 78 76 75 70 74 72 75 75 71 70 73 76 78 77 77 79 79 79 76 74 71 67 67 68 70 75 78 74 77 80
72 72 71 72 73 73 73 73 73 72 71 72 72 70 70 68 67 69 69 70 71 73 73 75 77 76 73 69 71 76 78 78 77 77 77 76 73 72 74 75 72 70 71 69 71 73 78 77 78 79 79 80 77 69 72 69 69 72 73 77 79 75 79
72 72 72 72 71 69 71 73 73 72 72 73 71 70 70 70 69 70 72 73 73 73 71 73 75 73 70 67 69 74 76 76 76 75 75 75 76 76 75 75 75 73 72 69 72 75 77 78 78 80 79 80 78 71 74 74 70 73 78 73 78 82 80
70 72 72 71 69 69 70 72 74 73 72 73 72 72 70 70 71 71 73 74 75 75 74 73 70 69 69 69 72 69 74 76 75 75 75 76 79 77 75 75 74 75 75 76 77 76 77 78 78 80 79 79 78 76 76 75 72 71 76 77 77 80 81
69 71 69 69 69 70 70 71 73 73 74 72 72 72 72 72 73 73 73 73 75 73 73 70 70 74 74 72 72 72 77 78 77 77 77 76 78 78 72 76 74 75 75 73 72 78 78 79 78 78 79 78 78 77 76 74 73 72 74 78 78 79 80
68 67 66 67 69 70 70 69 71 73 72 72 73 74 76 75 74 74 73 71 70 73 70 70 72 76 75 72 75 75 77 77 77 78 76 76 77 76 74 67 72 73 78 74 75 80 80 80 80 79 80 79 79 77 78 78 76 73 68 74 76 80 78
65 65 67 68 68 68 68 69 71 71 72 74 75 74 75 76 75 74 72 69 71 72 68 69 70 69 71 73 75 76 77 77 76 76 75 75 76 73 72 69 69 69 74 76 76 78 79 80 81 81 79 80 80 78 79 80 78 73 71 72 76 77 76
63 63 64 67 68 69 69 69 71 70 70 72 73 74 75 77 75 73 71 71 71 70 68 67 67 70 71 77 77 77 77 77 76 75 76 74 72 71 75 76 77 75 76 75 76 76 79 79 78 80 80 79 79 78 78 78 80 77 75 73 74 79 78
61 60 60 63 66 68 68 69 70 71 71 70 72 74 74 76 76 75 72 73 75 72 68 67 68 67 68 70 73 76 77 77 76 75 74 72 70 71 76 76 77 78 76 75 75 76 78 77 80 79 80 81 79 79 78 78 80 80 76 74 74 78 78
61 59 59 60 62 64 66 68 69 70 71 71 71 71 70 74 75 75 74 75 76 74 71 68 67 68 69 73 76 76 77 75 72 74 72 71 73 76 76 77 77 78 77 75 75 75 77 77 79 79 79 80 80 80 77 77 78 78 78 77 74 73 76
61 61 61 62 63 65 67 68 69 70 71 71 71 70 70 72 74 74 75 76 75 75 72 71 69 68 68 72 77 78 77 76 70 68 70 70 75 78 77 78 77 77 77 76 75 76 76 75 76 76 77 76 81 78 76 76 78 78 76 76 76 75 75
63 62 62 63 64 65 66 67 68 69 70 70 69 70 70 70 73 73 74 75 76 75 73 71 70 69 69 70 74 78 78 76 77 72 72 76 77 77 77 77 77 77 78 78 77 76 76 75 76 75 74 76 77 76 75 75 76 77 76 75 75 74 75
63 63 63 63 63 63 65 66 68 68 68 69 69 70 71 69 69 70 75 74 75 74 73 72 71 70 69 71 75 77 77 78 77 76 76 76 77 77 77 77 77 78 76 73 66 66 69 70 75 71 65 66 70 74 74 75 75 76 76 74 74 75 74
64 64 63 62 62 63 64 66 67 68 68 68 69 70 72 71 69 69 70 75 74 72 73 73 67 59 61 72 74 78 77 76 77 76 75 75 75 76 77 77 76 65 61 58 57 53 51 50 57 66 67 70 71 73 74 74 74 75 74 74 74 74 72
63 63 62 62 62 62 63 63 64 65 66 67 68 69 68 69 69 68 67 68 72 73 72 72 56 53 53 56 73 76 76 76 76 75 74 73 73 74 76 78 76 64 65 61 61 48 51 47 51 54 55 60 66 74 73 72 74 74 73 74 75 74 73
63 62 61 62 62 62 61 61 60 59 61 64 67 68 66 66 66 67 66 70 70 69 70 56 48 49 49 51 59 75 76 75 74 74 74 72 70 72 74 75 75 73 73 73 73 67 56 46 49 49 50 51 53 52 55 67 67 70 69 74 74 74 74
62 62 61 61 61 60 60 59 58 57 56 58 62 64 66 66 66 66 66 64 65 65 66 48 45 47 47 48 49 62 78 76 74 73 73 74 74 72 72 71 72 72 74 62 69 73 71 62 48 46 48 49 49 47 49 50 53 67 68 71 75 74 74
60 61 61 61 60 59 58 57 57 56 55 54 54 55 57 58 59 60 61 63 64 64 59 44 40 42 44 45 46 54 77 76 74 74 74 73 74 74 73 72 71 71 70 70 73 72 71 69 66 65 66 69 69 56 48 48 50 47 59 76 76 74 75
60 60 60 60 59 58 56 55 55 55 54 51 50 51 51 53 55 56 57 57 59 57 51 40 40 39 41 43 44 49 75 75 73 73 74 74 74 74 75 74 73 72 71 71 72 70 71 70 70 68 69 70 69 66 62 64 66 71 76 77 77 75 74
60 60 59 59 57 56 55 54 53 54 54 53 51 50 51 51 50 52 53 56 55 53 48 39 40 40 40 42 43 66 74 73 73 74 74 74 74 75 74 74 73 70 70 71 60 53 62 72 70 67 65 63 60 58 54 46 40 43 56 63 65 63 57
58 59 58 57 56 54 54 54 53 53 53 52 50 49 48 47 48 49 49 50 51 50 47 41 39 41 41 42 49 71 72 72 73 72 72 72 73 73 74 73 73 71 70 69 52 48 51 58 68 67 66 64 64 63 59 54 44 41 40 40 39 39 39
57 57 57 56 55 54 54 54 54 53 51 50 49 49 49 49 48 47 46 47 47 47 46 43 40 40 39 39 46 67 70 71 70 71 70 70 70 67 58 49 62 71 67 65 44 48 48 62 69 67 65 63 62 61 60 61 58 51 43 41 41 41 42
55 56 56 56 55 53 53 53 54 53 52 51 50 50 49 48 48 49 47 44 45 45 45 43 40 40 40 41 49 66 68 69 67 67 67 65 65 63 60 54 45 53 61 52 42 47 49 63 68 66 64 63 61 60 59 59 60 60 60 60 61 62 59
52 53 56 56 56 54 54 53 53 53 52 52 51 51 50 50 48 47 47 44 43 43 44 43 41 39 41 42 43 60 64 64 65 65 65 64 61 60 60 58 50 40 40 40 41 41 46 54 66 66 66 64 60 58 61 62 62 64 64 64 63 63 63
51 51 54 56 57 56 55 53 52 52 51 52 52 50 49 49 49 46 46 45 45 44 43 43 41 39 40 41 42 47 55 59 64 64 62 58 56 54 53 52 51 41 39 39 40 41 41 42 50 67 67 65 65 61 59 62 60 55 63 62 62 63 65
52 52 53 55 56 55 56 56 54 52 52 51 50 49 50 50 49 48 47 46 47 46 45 43 42 40 39 39 40 43 51 50 55 60 55 53 50 47 47 46 45 40 38 39 39 40 40 42 44 55 53 46 45 48 62 62 63 64 63 63 64 64 65
52 52 52 54 55 56 57 57 56 55 53 51 50 49 48 49 49 48 47 46 45 45 45 44 41 41 39 38 39 40 41 46 44 53 52 49 47 45 45 44 42 39 38 38 39 39 41 41 45 47 40 42 43 46 54 63 62 62 62 62 61 61 61
55 53 52 52 53 55 56 57 55 54 54 53 51 50 49 49 48 48 47 46 45 44 44 44 42 40 40 38 38 38 39 39 42 49 50 47 46 45 45 43 39 37 38 38 38 38 38 40 42 39 41 42 45 48 58 58 59 59 56 56 56 57 57